Logo
 


Wetterdaten - Dienstag, 28.09.2021 - Rheinberg-Annaberg     25 m ber NN private Wetterstation Rheinberg/Angaben ohne Gewhr!
Wetterdaten: aktuell Dienstag, 28.09.2021 05:39
Datum Zeit Temp. A. Feuchte A. Luftdruck Regen Wind Richtung Richtung Sonnenschein ET UV Solar Taupunkt Windchill Windben Empfang
28.09.2021 05:39 11,6 C 96 % 1022,3 hPa 0,0 l/m 3,4 km/h S 181 0 min 0,000 mm 0,0 UV-I 0 W/m 11,0 C 11,6 C 5,7 km/h 100,00 %
28.09.2021 05:38 11,6 C 96 % 1022,3 hPa 0,0 l/m 1,5 km/h S 181 0 min 0,000 mm 0,0 UV-I 0 W/m 11,0 C 11,6 C 3,8 km/h 96,55 %
28.09.2021 05:37 11,6 C 96 % 1022,2 hPa 0,0 l/m 1,3 km/h S 181 0 min 0,000 mm 0,0 UV-I 0 W/m 11,0 C 11,6 C 3,8 km/h 100,00 %
28.09.2021 05:36 11,6 C 96 % 1022,2 hPa 0,0 l/m 2,1 km/h S 181 0 min 0,000 mm 0,0 UV-I 0 W/m 11,0 C 11,6 C 5,7 km/h 100,00 %
28.09.2021 05:35 11,6 C 96 % 1022,3 hPa 0,0 l/m 2,6 km/h S 181 0 min 0,000 mm 0,0 UV-I 0 W/m 11,0 C 11,6 C 3,8 km/h 100,00 %
28.09.2021 05:34 11,6 C 96 % 1022,2 hPa 0,0 l/m 2,4 km/h S 181 0 min 0,000 mm 0,0 UV-I 0 W/m 11,0 C 11,6 C 3,8 km/h 100,00 %
28.09.2021 05:33 11,6 C 96 % 1022,2 hPa 0,0 l/m 2,7 km/h S 181 0 min 0,000 mm 0,0 UV-I 0 W/m 11,0 C 11,6 C 3,8 km/h 100,00 %
28.09.2021 05:32 11,6 C 96 % 1022,2 hPa 0,0 l/m 3,4 km/h S 181 0 min 0,000 mm 0,0 UV-I 0 W/m 11,0 C 11,6 C 5,7 km/h 100,00 %
28.09.2021 05:31 11,6 C 96 % 1022,2 hPa 0,0 l/m 3,0 km/h S 181 0 min 0,000 mm 0,0 UV-I 0 W/m 11,0 C 11,6 C 3,8 km/h 90,91 %
28.09.2021 05:30 11,6 C 96 % 1022,2 hPa 0,0 l/m 1,4 km/h S 181 0 min 0,000 mm 0,0 UV-I 0 W/m 11,0 C 11,6 C 3,8 km/h 95,83 %
28.09.2021 05:29 11,6 C 96 % 1022,2 hPa 0,0 l/m 2,0 km/h S 181 0 min 0,000 mm 0,0 UV-I 0 W/m 11,0 C 11,6 C 3,8 km/h 100,00 %
28.09.2021 05:28 11,6 C 96 % 1022,1 hPa 0,0 l/m 1,1 km/h S 181 0 min 0,000 mm 0,0 UV-I 0 W/m 11,0 C 11,6 C 3,8 km/h 95,65 %
28.09.2021 05:27 11,6 C 96 % 1022,2 hPa 0,0 l/m 3,7 km/h S 181 0 min 0,000 mm 0,0 UV-I 0 W/m 11,0 C 11,6 C 5,7 km/h 100,00 %
28.09.2021 05:26 11,6 C 96 % 1022,1 hPa 0,0 l/m 5,9 km/h S 180 0 min 0,000 mm 0,0 UV-I 0 W/m 11,0 C 11,6 C 9,6 km/h 100,00 %
28.09.2021 05:25 11,6 C 96 % 1022,2 hPa 0,0 l/m 3,1 km/h S 171 0 min 0,000 mm 0,0 UV-I 0 W/m 11,0 C 11,6 C 7,7 km/h 100,00 %
28.09.2021 05:24 11,6 C 96 % 1022,1 hPa 0,0 l/m 3,0 km/h S 172 0 min 0,000 mm 0,0 UV-I 0 W/m 11,0 C 11,6 C 5,7 km/h 100,00 %
28.09.2021 05:23 11,6 C 96 % 1022,1 hPa 0,0 l/m 1,8 km/h S 172 0 min 0,000 mm 0,0 UV-I 0 W/m 11,0 C 11,6 C 3,8 km/h 100,00 %
28.09.2021 05:22 11,6 C 96 % 1022,1 hPa 0,0 l/m 1,5 km/h S 172 0 min 0,000 mm 0,0 UV-I 0 W/m 11,0 C 11,6 C 3,8 km/h 100,00 %
28.09.2021 05:21 11,6 C 96 % 1022,1 hPa 0,0 l/m 2,2 km/h S 172 0 min 0,000 mm 0,0 UV-I 0 W/m 11,0 C 11,6 C 3,8 km/h 100,00 %
28.09.2021 05:20 11,6 C 96 % 1022,1 hPa 0,0 l/m 2,7 km/h S 172 0 min 0,000 mm 0,0 UV-I 0 W/m 11,0 C 11,6 C 5,7 km/h 100,00 %
28.09.2021 05:19 11,6 C 96 % 1022,1 hPa 0,0 l/m 3,6 km/h S 172 0 min 0,000 mm 0,0 UV-I 0 W/m 11,0 C 11,6 C 5,7 km/h 100,00 %
28.09.2021 05:18 11,6 C 96 % 1022,1 hPa 0,0 l/m 1,7 km/h S 172 0 min 0,000 mm 0,0 UV-I 0 W/m 11,0 C 11,6 C 3,8 km/h 100,00 %
28.09.2021 05:17 11,6 C 96 % 1022,1 hPa 0,0 l/m 1,6 km/h S 172 0 min 0,000 mm 0,0 UV-I 0 W/m 11,0 C 11,6 C 3,8 km/h 100,00 %
28.09.2021 05:16 11,6 C 96 % 1022,0 hPa 0,0 l/m 3,3 km/h S 172 0 min 0,000 mm 0,0 UV-I 0 W/m 11,0 C 11,6 C 5,7 km/h 100,00 %
28.09.2021 05:15 11,6 C 96 % 1022,0 hPa 0,0 l/m 1,8 km/h S 172 0 min 0,000 mm 0,0 UV-I 0 W/m 11,0 C 11,6 C 3,8 km/h 100,00 %
28.09.2021 05:14 11,6 C 96 % 1022,0 hPa 0,0 l/m 1,3 km/h S 172 0 min 0,000 mm 0,0 UV-I 0 W/m 11,0 C 11,6 C 3,8 km/h 100,00 %
28.09.2021 05:13 11,6 C 96 % 1022,0 hPa 0,0 l/m 3,7 km/h S 172 0 min 0,000 mm 0,0 UV-I 0 W/m 11,0 C 11,6 C 5,7 km/h 100,00 %
28.09.2021 05:12 11,6 C 96 % 1022,0 hPa 0,0 l/m 3,5 km/h S 172 0 min 0,000 mm 0,0 UV-I 0 W/m 11,0 C 11,6 C 5,7 km/h 100,00 %
28.09.2021 05:11 11,6 C 96 % 1022,0 hPa 0,0 l/m 2,2 km/h S 172 0 min 0,000 mm 0,0 UV-I 0 W/m 11,0 C 11,6 C 3,8 km/h 100,00 %
28.09.2021 05:10 11,6 C 96 % 1022,0 hPa 0,0 l/m 2,6 km/h S 172 0 min 0,000 mm 0,0 UV-I 0 W/m 11,0 C 11,6 C 5,7 km/h 100,00 %
28.09.2021 05:09 11,6 C 96 % 1022,0 hPa 0,0 l/m 2,6 km/h S 172 0 min 0,000 mm 0,0 UV-I 0 W/m 11,0 C 11,6 C 3,8 km/h 100,00 %
28.09.2021 05:08 11,6 C 96 % 1022,0 hPa 0,0 l/m 1,1 km/h S 172 0 min 0,000 mm 0,0 UV-I 0 W/m 11,0 C 11,6 C 3,8 km/h 100,00 %
28.09.2021 05:07 11,6 C 96 % 1022,0 hPa 0,0 l/m 1,6 km/h S 172 0 min 0,000 mm 0,0 UV-I 0 W/m 11,0 C 11,6 C 3,8 km/h 95,65 %
28.09.2021 05:06 11,6 C 96 % 1022,0 hPa 0,0 l/m 2,3 km/h S 172 0 min 0,000 mm 0,0 UV-I 0 W/m 11,0 C 11,6 C 5,7 km/h 100,00 %
28.09.2021 05:05 11,6 C 96 % 1022,0 hPa 0,0 l/m 2,3 km/h S 172 0 min 0,000 mm 0,0 UV-I 0 W/m 11,0 C 11,6 C 3,8 km/h 100,00 %
28.09.2021 05:04 11,7 C 96 % 1022,1 hPa 0,0 l/m 1,5 km/h S 172 0 min 0,000 mm 0,0 UV-I 0 W/m 11,1 C 11,7 C 3,8 km/h 100,00 %
28.09.2021 05:03 11,7 C 96 % 1022,1 hPa 0,0 l/m 1,7 km/h S 172 0 min 0,000 mm 0,0 UV-I 0 W/m 11,1 C 11,7 C 3,8 km/h 100,00 %
28.09.2021 05:02 11,7 C 96 % 1022,1 hPa 0,0 l/m 3,3 km/h S 172 0 min 0,000 mm 0,0 UV-I 0 W/m 11,1 C 11,7 C 5,7 km/h 96,00 %
28.09.2021 05:01 11,7 C 96 % 1022,1 hPa 0,0 l/m 2,2 km/h S 173 0 min 0,000 mm 0,0 UV-I 0 W/m 11,1 C 11,7 C 5,7 km/h 100,00 %
28.09.2021 05:00 11,7 C 96 % 1022,1 hPa 0,0 l/m 2,3 km/h S 173 0 min 0,000 mm 0,0 UV-I 0 W/m 11,1 C 11,7 C 3,8 km/h 100,00 %
28.09.2021 04:59 11,7 C 96 % 1022,1 hPa 0,0 l/m 2,3 km/h S 173 0 min 0,000 mm 0,0 UV-I 0 W/m 11,1 C 11,7 C 3,8 km/h 99,70 %
28.09.2021 04:58 11,7 C 96 % 1022,1 hPa 0,0 l/m 2,8 km/h S 173 0 min 0,000 mm 0,0 UV-I 0 W/m 11,1 C 11,7 C 5,7 km/h 100,00 %
28.09.2021 04:57 11,7 C 96 % 1022,1 hPa 0,0 l/m 2,6 km/h S 173 0 min 0,000 mm 0,0 UV-I 0 W/m 11,1 C 11,7 C 3,8 km/h 100,00 %
28.09.2021 04:56 11,7 C 96 % 1022,1 hPa 0,0 l/m 1,5 km/h S 173 0 min 0,000 mm 0,0 UV-I 0 W/m 11,1 C 11,7 C 5,7 km/h 100,00 %
28.09.2021 04:55 11,7 C 96 % 1022,1 hPa 0,0 l/m 2,7 km/h S 173 0 min 0,000 mm 0,0 UV-I 0 W/m 11,1 C 11,7 C 5,7 km/h 100,00 %
28.09.2021 04:54 11,7 C 96 % 1022,1 hPa 0,0 l/m 3,3 km/h S 173 0 min 0,000 mm 0,0 UV-I 0 W/m 11,1 C 11,7 C 5,7 km/h 100,00 %
28.09.2021 04:53 11,7 C 96 % 1022,0 hPa 0,0 l/m 3,4 km/h S 173 0 min 0,000 mm 0,0 UV-I 0 W/m 11,1 C 11,7 C 5,7 km/h 100,00 %
28.09.2021 04:52 11,8 C 96 % 1022,0 hPa 0,0 l/m 2,9 km/h S 173 0 min 0,000 mm 0,0 UV-I 0 W/m 11,2 C 11,8 C 3,8 km/h 100,00 %
28.09.2021 04:51 11,8 C 96 % 1022,0 hPa 0,0 l/m 4,3 km/h S 173 0 min 0,000 mm 0,0 UV-I 0 W/m 11,2 C 11,8 C 5,7 km/h 100,00 %
28.09.2021 04:50 11,7 C 96 % 1022,0 hPa 0,0 l/m 2,9 km/h S-SO 152 0 min 0,000 mm 0,0 UV-I 0 W/m 11,1 C 11,7 C 5,7 km/h 100,00 %
28.09.2021 04:49 11,7 C 96 % 1022,0 hPa 0,0 l/m 1,6 km/h S-SO 150 0 min 0,000 mm 0,0 UV-I 0 W/m 11,1 C 11,7 C 3,8 km/h 100,00 %
28.09.2021 04:48 11,7 C 96 % 1022,0 hPa 0,0 l/m 1,5 km/h S-SO 150 0 min 0,000 mm 0,0 UV-I 0 W/m 11,1 C 11,7 C 3,8 km/h 100,00 %
28.09.2021 04:47 11,7 C 96 % 1022,0 hPa 0,0 l/m 3,8 km/h S-SO 150 0 min 0,000 mm 0,0 UV-I 0 W/m 11,1 C 11,7 C 7,7 km/h 100,00 %
28.09.2021 04:46 11,7 C 96 % 1022,0 hPa 0,0 l/m 3,8 km/h S-SO 149 0 min 0,000 mm 0,0 UV-I 0 W/m 11,1 C 11,7 C 7,7 km/h 100,00 %
28.09.2021 04:45 11,7 C 96 % 1022,0 hPa 0,0 l/m 3,5 km/h S 169 0 min 0,000 mm 0,0 UV-I 0 W/m 11,1 C 11,7 C 7,7 km/h 100,00 %
28.09.2021 04:44 11,7 C 96 % 1022,0 hPa 0,0 l/m 3,7 km/h S 169 0 min 0,000 mm 0,0 UV-I 0 W/m 11,1 C 11,7 C 7,7 km/h 95,65 %
28.09.2021 04:43 11,7 C 96 % 1022,0 hPa 0,0 l/m 3,3 km/h S-SO 167 0 min 0,000 mm 0,0 UV-I 0 W/m 11,1 C 11,7 C 7,7 km/h 100,00 %
28.09.2021 04:42 11,7 C 96 % 1022,0 hPa 0,0 l/m 0,9 km/h S-SO 167 0 min 0,000 mm 0,0 UV-I 0 W/m 11,1 C 11,7 C 1,9 km/h 100,00 %
28.09.2021 04:41 11,7 C 96 % 1021,9 hPa 0,0 l/m 3,1 km/h S-SO 167 0 min 0,000 mm 0,0 UV-I 0 W/m 11,1 C 11,7 C 5,7 km/h 96,15 %
28.09.2021 04:40 11,7 C 96 % 1022,0 hPa 0,0 l/m 3,5 km/h S-SO 167 0 min 0,000 mm 0,0 UV-I 0 W/m 11,1 C 11,7 C 7,7 km/h 100,00 %
28.09.2021 04:39 11,7 C 96 % 1022,0 hPa 0,0 l/m 3,9 km/h S-SO 167 0 min 0,000 mm 0,0 UV-I 0 W/m 11,1 C 11,7 C 7,7 km/h 100,00 %
28.09.2021 04:38 11,7 C 96 % 1022,0 hPa 0,0 l/m 5,0 km/h S-SO 166 0 min 0,000 mm 0,0 UV-I 0 W/m 11,1 C 11,7 C 7,7 km/h 100,00 %
28.09.2021 04:37 11,8 C 96 % 1022,0 hPa 0,0 l/m 3,3 km/h S-SO 167 0 min 0,000 mm 0,0 UV-I 0 W/m 11,2 C 11,8 C 7,7 km/h 100,00 %
28.09.2021 04:36 11,7 C 96 % 1022,0 hPa 0,0 l/m 2,2 km/h S-SO 167 0 min 0,000 mm 0,0 UV-I 0 W/m 11,1 C 11,7 C 5,7 km/h 100,00 %
28.09.2021 04:35 11,7 C 96 % 1022,0 hPa 0,0 l/m 3,6 km/h S-SO 167 0 min 0,000 mm 0,0 UV-I 0 W/m 11,1 C 11,7 C 7,7 km/h 100,00 %
28.09.2021 04:34 11,7 C 96 % 1021,9 hPa 0,0 l/m 4,2 km/h S-SO 167 0 min 0,000 mm 0,0 UV-I 0 W/m 11,1 C 11,7 C 7,7 km/h 100,00 %
28.09.2021 04:33 11,7 C 96 % 1022,0 hPa 0,0 l/m 4,5 km/h S-SO 167 0 min 0,000 mm 0,0 UV-I 0 W/m 11,1 C 11,7 C 7,7 km/h 100,00 %
28.09.2021 04:32 11,7 C 96 % 1021,9 hPa 0,0 l/m 3,0 km/h S-SO 167 0 min 0,000 mm 0,0 UV-I 0 W/m 11,1 C 11,7 C 5,7 km/h 100,00 %
28.09.2021 04:31 11,7 C 96 % 1022,0 hPa 0,0 l/m 3,1 km/h S-SO 167 0 min 0,000 mm 0,0 UV-I 0 W/m 11,1 C 11,7 C 5,7 km/h 100,00 %
28.09.2021 04:30 11,7 C 96 % 1022,0 hPa 0,0 l/m 4,7 km/h S-SO 167 0 min 0,000 mm 0,0 UV-I 0 W/m 11,1 C 11,7 C 7,7 km/h 100,00 %
28.09.2021 04:29 11,7 C 96 % 1021,9 hPa 0,0 l/m 5,0 km/h S-SO 167 0 min 0,000 mm 0,0 UV-I 0 W/m 11,1 C 11,7 C 9,6 km/h 100,00 %
28.09.2021 04:28 11,7 C 96 % 1021,9 hPa 0,0 l/m 1,2 km/h S-SO 167 0 min 0,000 mm 0,0 UV-I 0 W/m 11,1 C 11,7 C 5,7 km/h 100,00 %
28.09.2021 04:27 11,8 C 96 % 1021,9 hPa 0,0 l/m 3,3 km/h S-SO 167 0 min 0,000 mm 0,0 UV-I 0 W/m 11,2 C 11,8 C 5,7 km/h 96,55 %
28.09.2021 04:26 11,8 C 96 % 1022,0 hPa 0,0 l/m 3,0 km/h S-SO 167 0 min 0,000 mm 0,0 UV-I 0 W/m 11,2 C 11,8 C 5,7 km/h 100,00 %
28.09.2021 04:25 11,8 C 96 % 1021,9 hPa 0,0 l/m 3,9 km/h S-SO 167 0 min 0,000 mm 0,0 UV-I 0 W/m 11,2 C 11,8 C 5,7 km/h 100,00 %
28.09.2021 04:24 11,8 C 96 % 1021,9 hPa 0,0 l/m 2,0 km/h S-SO 167 0 min 0,000 mm 0,0 UV-I 0 W/m 11,2 C 11,8 C 5,7 km/h 100,00 %
28.09.2021 04:23 11,8 C 96 % 1022,0 hPa 0,0 l/m 3,5 km/h S-SO 167 0 min 0,000 mm 0,0 UV-I 0 W/m 11,2 C 11,8 C 7,7 km/h 100,00 %
28.09.2021 04:22 11,8 C 96 % 1022,0 hPa 0,0 l/m 1,8 km/h S-SO 167 0 min 0,000 mm 0,0 UV-I 0 W/m 11,2 C 11,8 C 5,7 km/h 100,00 %
28.09.2021 04:21 11,8 C 96 % 1021,9 hPa 0,0 l/m 4,4 km/h S-SO 167 0 min 0,000 mm 0,0 UV-I 0 W/m 11,2 C 11,8 C 5,7 km/h 100,00 %
28.09.2021 04:20 11,8 C 96 % 1021,9 hPa 0,0 l/m 3,9 km/h S-SO 167 0 min 0,000 mm 0,0 UV-I 0 W/m 11,2 C 11,8 C 7,7 km/h 100,00 %
28.09.2021 04:19 11,8 C 96 % 1022,0 hPa 0,0 l/m 2,5 km/h S-SO 167 0 min 0,000 mm 0,0 UV-I 0 W/m 11,2 C 11,8 C 5,7 km/h 100,00 %
28.09.2021 04:18 11,8 C 96 % 1022,0 hPa 0,0 l/m 0,5 km/h S-SO 167 0 min 0,000 mm 0,0 UV-I 0 W/m 11,2 C 11,8 C 1,9 km/h 100,00 %
28.09.2021 04:17 11,8 C 96 % 1022,0 hPa 0,0 l/m 2,0 km/h S-SO 167 0 min 0,000 mm 0,0 UV-I 0 W/m 11,2 C 11,8 C 5,7 km/h 100,00 %
28.09.2021 04:16 11,8 C 96 % 1022,0 hPa 0,0 l/m 1,0 km/h S-SO 167 0 min 0,000 mm 0,0 UV-I 0 W/m 11,2 C 11,8 C 1,9 km/h 100,00 %
28.09.2021 04:15 11,8 C 96 % 1021,9 hPa 0,0 l/m 2,5 km/h S-SO 167 0 min 0,000 mm 0,0 UV-I 0 W/m 11,2 C 11,8 C 5,7 km/h 100,00 %
28.09.2021 04:14 11,8 C 96 % 1022,0 hPa 0,0 l/m 2,1 km/h S-SO 167 0 min 0,000 mm 0,0 UV-I 0 W/m 11,2 C 11,8 C 5,7 km/h 100,00 %
28.09.2021 04:13 11,8 C 96 % 1022,0 hPa 0,0 l/m 3,2 km/h S-SO 167 0 min 0,000 mm 0,0 UV-I 0 W/m 11,2 C 11,8 C 5,7 km/h 100,00 %
28.09.2021 04:12 11,8 C 96 % 1021,9 hPa 0,0 l/m 1,9 km/h S-SO 167 0 min 0,000 mm 0,0 UV-I 0 W/m 11,2 C 11,8 C 5,7 km/h 100,00 %
28.09.2021 04:11 11,8 C 96 % 1021,9 hPa 0,0 l/m 0,2 km/h S-SO 167 0 min 0,000 mm 0,0 UV-I 0 W/m 11,2 C 11,8 C 1,9 km/h 100,00 %
28.09.2021 04:10 11,8 C 96 % 1021,9 hPa 0,0 l/m 1,2 km/h S-SO 167 0 min 0,000 mm 0,0 UV-I 0 W/m 11,2 C 11,8 C 5,7 km/h 100,00 %
28.09.2021 04:09 11,8 C 96 % 1021,9 hPa 0,0 l/m 0,5 km/h S-SO 167 0 min 0,000 mm 0,0 UV-I 0 W/m 11,2 C 11,8 C 1,9 km/h 100,00 %
28.09.2021 04:08 11,8 C 96 % 1021,9 hPa 0,0 l/m 0,9 km/h S-SO 167 0 min 0,000 mm 0,0 UV-I 0 W/m 11,2 C 11,8 C 1,9 km/h 100,00 %
28.09.2021 04:07 11,8 C 96 % 1021,9 hPa 0,0 l/m 5,3 km/h S-SO 167 0 min 0,000 mm 0,0 UV-I 0 W/m 11,2 C 11,8 C 7,7 km/h 100,00 %
28.09.2021 04:06 11,8 C 96 % 1021,9 hPa 0,0 l/m 2,1 km/h S-SO 168 0 min 0,000 mm 0,0 UV-I 0 W/m 11,2 C 11,8 C 3,8 km/h 100,00 %
28.09.2021 04:05 11,8 C 96 % 1022,0 hPa 0,0 l/m 2,2 km/h S-SO 168 0 min 0,000 mm 0,0 UV-I 0 W/m 11,2 C 11,8 C 3,8 km/h 100,00 %
28.09.2021 04:04 11,8 C 96 % 1021,9 hPa 0,0 l/m 5,8 km/h S-SO 168 0 min 0,000 mm 0,0 UV-I 0 W/m 11,2 C 11,8 C 9,6 km/h 95,65 %
28.09.2021 04:03 11,8 C 96 % 1021,8 hPa 0,0 l/m 2,6 km/h S-SO 167 0 min 0,000 mm 0,0 UV-I 0 W/m 11,2 C 11,8 C 7,7 km/h 100,00 %
28.09.2021 04:02 11,8 C 96 % 1021,8 hPa 0,0 l/m 3,6 km/h S-SO 167 0 min 0,000 mm 0,0 UV-I 0 W/m 11,2 C 11,8 C 7,7 km/h 100,00 %
28.09.2021 04:01 11,8 C 96 % 1021,9 hPa 0,0 l/m 6,1 km/h S-SO 167 0 min 0,000 mm 0,0 UV-I 0 W/m 11,2 C 11,8 C 9,6 km/h 100,00 %
28.09.2021 04:00 11,8 C 96 % 1021,9 hPa 0,0 l/m 6,2 km/h S-SO 167 0 min 0,000 mm 0,0 UV-I 0 W/m 11,2 C 11,8 C 9,6 km/h 100,00 %
28.09.2021 03:59 11,8 C 96 % 1021,9 hPa 0,0 l/m 6,1 km/h S-SO 165 0 min 0,000 mm 0,0 UV-I 0 W/m 11,2 C 11,8 C 9,6 km/h 100,00 %
28.09.2021 03:58 11,8 C 96 % 1021,9 hPa 0,0 l/m 4,2 km/h S-SO 163 0 min 0,000 mm 0,0 UV-I 0 W/m 11,2 C 11,8 C 7,7 km/h 100,00 %
28.09.2021 03:57 11,8 C 96 % 1021,8 hPa 0,0 l/m 2,2 km/h S-SO 163 0 min 0,000 mm 0,0 UV-I 0 W/m 11,2 C 11,8 C 3,8 km/h 100,00 %
28.09.2021 03:56 11,8 C 96 % 1021,9 hPa 0,0 l/m 3,6 km/h S-SO 163 0 min 0,000 mm 0,0 UV-I 0 W/m 11,2 C 11,8 C 9,6 km/h 100,00 %
28.09.2021 03:55 11,8 C 96 % 1021,9 hPa 0,0 l/m 4,5 km/h S-SO 163 0 min 0,000 mm 0,0 UV-I 0 W/m 11,2 C 11,8 C 7,7 km/h 100,00 %
28.09.2021 03:54 11,8 C 96 % 1021,9 hPa 0,2 l/m 2,1 km/h S-SO 162 0 min 0,000 mm 0,0 UV-I 0 W/m 11,2 C 11,8 C 3,8 km/h 100,00 %
28.09.2021 03:53 11,8 C 96 % 1021,9 hPa 0,0 l/m 3,5 km/h S-SO 162 0 min 0,000 mm 0,0 UV-I 0 W/m 11,2 C 11,8 C 7,7 km/h 95,65 %
28.09.2021 03:52 11,8 C 96 % 1021,8 hPa 0,0 l/m 2,8 km/h S-SO 162 0 min 0,000 mm 0,0 UV-I 0 W/m 11,2 C 11,8 C 3,8 km/h 100,00 %
28.09.2021 03:51 11,8 C 96 % 1021,8 hPa 0,0 l/m 4,8 km/h S-SO 162 0 min 0,000 mm 0,0 UV-I 0 W/m 11,2 C 11,8 C 9,6 km/h 95,65 %
28.09.2021 03:50 11,8 C 96 % 1021,8 hPa 0,0 l/m 3,7 km/h S-SO 167 0 min 0,000 mm 0,0 UV-I 0 W/m 11,2 C 11,8 C 7,7 km/h 100,00 %
28.09.2021 03:49 11,8 C 96 % 1021,8 hPa 0,0 l/m 5,5 km/h S-SO 167 0 min 0,000 mm 0,0 UV-I 0 W/m 11,2 C 11,8 C 9,6 km/h 100,00 %
28.09.2021 03:48 11,8 C 96 % 1021,8 hPa 0,0 l/m 2,6 km/h S-SO 167 0 min 0,000 mm 0,0 UV-I 0 W/m 11,2 C 11,8 C 9,6 km/h 100,00 %
28.09.2021 03:47 11,8 C 96 % 1021,8 hPa 0,0 l/m 2,7 km/h S 169 0 min 0,000 mm 0,0 UV-I 0 W/m 11,2 C 11,8 C 3,8 km/h 95,65 %
28.09.2021 03:46 11,8 C 96 % 1021,8 hPa 0,0 l/m 2,3 km/h S 169 0 min 0,000 mm 0,0 UV-I 0 W/m 11,2 C 11,8 C 3,8 km/h 100,00 %
28.09.2021 03:45 11,8 C 96 % 1021,8 hPa 0,0 l/m 4,2 km/h S 170 0 min 0,000 mm 0,0 UV-I 0 W/m 11,2 C 11,8 C 7,7 km/h 100,00 %
28.09.2021 03:44 11,8 C 96 % 1021,8 hPa 0,0 l/m 4,2 km/h S 173 0 min 0,000 mm 0,0 UV-I 0 W/m 11,2 C 11,8 C 9,6 km/h 100,00 %
28.09.2021 03:43 11,8 C 96 % 1021,9 hPa 0,0 l/m 2,3 km/h S 177 0 min 0,000 mm 0,0 UV-I 0 W/m 11,2 C 11,8 C 3,8 km/h 100,00 %
28.09.2021 03:42 11,8 C 96 % 1021,8 hPa 0,0 l/m 1,5 km/h S 177 0 min 0,000 mm 0,0 UV-I 0 W/m 11,2 C 11,8 C 3,8 km/h 100,00 %
28.09.2021 03:41 11,8 C 96 % 1021,9 hPa 0,0 l/m 1,4 km/h S 177 0 min 0,000 mm 0,0 UV-I 0 W/m 11,2 C 11,8 C 3,8 km/h 100,00 %
28.09.2021 03:40 11,8 C 96 % 1021,8 hPa 0,0 l/m 2,0 km/h S 177 0 min 0,000 mm 0,0 UV-I 0 W/m 11,2 C 11,8 C 3,8 km/h 100,00 %
28.09.2021 03:39 11,8 C 96 % 1021,9 hPa 0,0 l/m 1,2 km/h S 177 0 min 0,000 mm 0,0 UV-I 0 W/m 11,2 C 11,8 C 1,9 km/h 100,00 %
28.09.2021 03:38 11,8 C 96 % 1021,9 hPa 0,0 l/m 2,2 km/h S 177 0 min 0,000 mm 0,0 UV-I 0 W/m 11,2 C 11,8 C 3,8 km/h 100,00 %
28.09.2021 03:37 11,8 C 96 % 1021,9 hPa 0,0 l/m 1,9 km/h S 177 0 min 0,000 mm 0,0 UV-I 0 W/m 11,2 C 11,8 C 3,8 km/h 100,00 %
28.09.2021 03:36 11,8 C 96 % 1021,9 hPa 0,0 l/m 2,1 km/h S 177 0 min 0,000 mm 0,0 UV-I 0 W/m 11,2 C 11,8 C 3,8 km/h 100,00 %
28.09.2021 03:35 11,8 C 96 % 1021,9 hPa 0,0 l/m 1,0 km/h S 177 0 min 0,000 mm 0,0 UV-I 0 W/m 11,2 C 11,8 C 3,8 km/h 96,00 %
28.09.2021 03:34 11,8 C 96 % 1021,9 hPa 0,0 l/m 1,4 km/h S 177 0 min 0,000 mm 0,0 UV-I 0 W/m 11,2 C 11,8 C 3,8 km/h 100,00 %
28.09.2021 03:33 11,8 C 96 % 1021,9 hPa 0,0 l/m 1,6 km/h S 177 0 min 0,000 mm 0,0 UV-I 0 W/m 11,2 C 11,8 C 3,8 km/h 100,00 %
28.09.2021 03:32 11,8 C 96 % 1021,9 hPa 0,0 l/m 1,3 km/h S 177 0 min 0,000 mm 0,0 UV-I 0 W/m 11,2 C 11,8 C 3,8 km/h 100,00 %
28.09.2021 03:31 11,8 C 96 % 1021,8 hPa 0,0 l/m 1,3 km/h S 177 0 min 0,000 mm 0,0 UV-I 0 W/m 11,2 C 11,8 C 3,8 km/h 100,00 %
28.09.2021 03:30 11,8 C 96 % 1021,8 hPa 0,0 l/m 1,0 km/h S 177 0 min 0,000 mm 0,0 UV-I 0 W/m 11,2 C 11,8 C 1,9 km/h 100,00 %
28.09.2021 03:29 11,8 C 96 % 1021,8 hPa 0,0 l/m 1,4 km/h S 177 0 min 0,000 mm 0,0 UV-I 0 W/m 11,2 C 11,8 C 3,8 km/h 100,00 %
28.09.2021 03:28 11,8 C 96 % 1021,8 hPa 0,0 l/m 1,8 km/h S 177 0 min 0,000 mm 0,0 UV-I 0 W/m 11,2 C 11,8 C 3,8 km/h 95,65 %
28.09.2021 03:27 11,8 C 96 % 1021,8 hPa 0,0 l/m 2,6 km/h S 177 0 min 0,000 mm 0,0 UV-I 0 W/m 11,2 C 11,8 C 3,8 km/h 100,00 %
28.09.2021 03:26 11,8 C 96 % 1021,8 hPa 0,0 l/m 1,9 km/h S 177 0 min 0,000 mm 0,0 UV-I 0 W/m 11,2 C 11,8 C 3,8 km/h 100,00 %
28.09.2021 03:25 11,8 C 96 % 1021,8 hPa 0,0 l/m 3,5 km/h S 177 0 min 0,000 mm 0,0 UV-I 0 W/m 11,2 C 11,8 C 5,7 km/h 100,00 %
28.09.2021 03:24 11,8 C 96 % 1021,8 hPa 0,0 l/m 3,7 km/h S 177 0 min 0,000 mm 0,0 UV-I 0 W/m 11,2 C 11,8 C 5,7 km/h 90,91 %
28.09.2021 03:23 11,8 C 96 % 1021,8 hPa 0,0 l/m 2,3 km/h S 177 0 min 0,000 mm 0,0 UV-I 0 W/m 11,2 C 11,8 C 3,8 km/h 100,00 %
28.09.2021 03:22 11,8 C 96 % 1021,8 hPa 0,0 l/m 3,5 km/h S 177 0 min 0,000 mm 0,0 UV-I 0 W/m 11,2 C 11,8 C 5,7 km/h 100,00 %
28.09.2021 03:21 11,8 C 96 % 1021,7 hPa 0,0 l/m 3,0 km/h S 177 0 min 0,000 mm 0,0 UV-I 0 W/m 11,2 C 11,8 C 3,8 km/h 100,00 %
28.09.2021 03:20 11,8 C 96 % 1021,8 hPa 0,0 l/m 1,0 km/h S 177 0 min 0,000 mm 0,0 UV-I 0 W/m 11,2 C 11,8 C 3,8 km/h 100,00 %
28.09.2021 03:19 11,9 C 96 % 1021,7 hPa 0,0 l/m 1,2 km/h S 177 0 min 0,000 mm 0,0 UV-I 0 W/m 11,3 C 11,9 C 3,8 km/h 100,00 %
28.09.2021 03:18 11,9 C 96 % 1021,7 hPa 0,0 l/m 2,0 km/h S 177 0 min 0,000 mm 0,0 UV-I 0 W/m 11,3 C 11,9 C 3,8 km/h 100,00 %
28.09.2021 03:17 11,9 C 96 % 1021,7 hPa 0,0 l/m 1,1 km/h S 177 0 min 0,000 mm 0,0 UV-I 0 W/m 11,3 C 11,9 C 1,9 km/h 100,00 %
28.09.2021 03:16 11,9 C 96 % 1021,7 hPa 0,0 l/m 2,9 km/h S 177 0 min 0,000 mm 0,0 UV-I 0 W/m 11,3 C 11,9 C 5,7 km/h 100,00 %
28.09.2021 03:15 11,9 C 96 % 1021,7 hPa 0,0 l/m 3,5 km/h S 177 0 min 0,000 mm 0,0 UV-I 0 W/m 11,3 C 11,9 C 5,7 km/h 100,00 %
28.09.2021 03:14 11,9 C 96 % 1021,7 hPa 0,0 l/m 3,0 km/h S 177 0 min 0,000 mm 0,0 UV-I 0 W/m 11,3 C 11,9 C 5,7 km/h 100,00 %
28.09.2021 03:13 11,9 C 96 % 1021,7 hPa 0,0 l/m 3,3 km/h S 177 0 min 0,000 mm 0,0 UV-I 0 W/m 11,3 C 11,9 C 5,7 km/h 100,00 %
28.09.2021 03:12 11,9 C 96 % 1021,7 hPa 0,0 l/m 2,9 km/h S 177 0 min 0,000 mm 0,0 UV-I 0 W/m 11,3 C 11,9 C 5,7 km/h 100,00 %
28.09.2021 03:11 11,9 C 96 % 1021,7 hPa 0,0 l/m 3,7 km/h S 177 0 min 0,000 mm 0,0 UV-I 0 W/m 11,3 C 11,9 C 5,7 km/h 100,00 %
28.09.2021 03:10 11,9 C 96 % 1021,7 hPa 0,0 l/m 2,9 km/h S 177 0 min 0,000 mm 0,0 UV-I 0 W/m 11,3 C 11,9 C 5,7 km/h 100,00 %
28.09.2021 03:09 11,9 C 96 % 1021,7 hPa 0,0 l/m 2,0 km/h S 177 0 min 0,000 mm 0,0 UV-I 0 W/m 11,3 C 11,9 C 3,8 km/h 100,00 %
28.09.2021 03:08 11,9 C 96 % 1021,7 hPa 0,0 l/m 3,0 km/h S 177 0 min 0,000 mm 0,0 UV-I 0 W/m 11,3 C 11,9 C 5,7 km/h 100,00 %
28.09.2021 03:07 11,9 C 96 % 1021,6 hPa 0,0 l/m 2,6 km/h S 177 0 min 0,000 mm 0,0 UV-I 0 W/m 11,3 C 11,9 C 5,7 km/h 100,00 %
28.09.2021 03:06 12,0 C 96 % 1021,6 hPa 0,0 l/m 2,3 km/h S 177 0 min 0,000 mm 0,0 UV-I 0 W/m 11,4 C 12,0 C 3,8 km/h 100,00 %
28.09.2021 03:05 12,0 C 96 % 1021,6 hPa 0,0 l/m 3,7 km/h S 177 0 min 0,000 mm 0,0 UV-I 0 W/m 11,4 C 12,0 C 5,7 km/h 95,65 %
28.09.2021 03:04 12,0 C 96 % 1021,7 hPa 0,0 l/m 3,7 km/h S 177 0 min 0,000 mm 0,0 UV-I 0 W/m 11,4 C 12,0 C 5,7 km/h 100,00 %
28.09.2021 03:03 12,0 C 96 % 1021,7 hPa 0,0 l/m 2,4 km/h S 177 0 min 0,000 mm 0,0 UV-I 0 W/m 11,4 C 12,0 C 5,7 km/h 100,00 %
28.09.2021 03:02 12,0 C 96 % 1021,7 hPa 0,0 l/m 2,4 km/h S 177 0 min 0,000 mm 0,0 UV-I 0 W/m 11,4 C 12,0 C 5,7 km/h 100,00 %
28.09.2021 03:01 12,0 C 96 % 1021,7 hPa 0,0 l/m 2,9 km/h S 177 0 min 0,000 mm 0,0 UV-I 0 W/m 11,4 C 12,0 C 5,7 km/h 100,00 %
28.09.2021 03:00 12,0 C 96 % 1021,6 hPa 0,0 l/m 3,6 km/h S 177 0 min 0,000 mm 0,0 UV-I 0 W/m 11,4 C 12,0 C 5,7 km/h 95,65 %
28.09.2021 02:59 12,0 C 96 % 1021,7 hPa 0,0 l/m 1,2 km/h S 177 0 min 0,000 mm 0,0 UV-I 0 W/m 11,4 C 12,0 C 1,9 km/h 100,00 %
28.09.2021 02:58 12,0 C 96 % 1021,6 hPa 0,0 l/m 2,2 km/h S 177 0 min 0,000 mm 0,0 UV-I 0 W/m 11,4 C 12,0 C 3,8 km/h 100,00 %
28.09.2021 02:57 12,0 C 96 % 1021,6 hPa 0,0 l/m 1,1 km/h S 177 0 min 0,000 mm 0,0 UV-I 0 W/m 11,4 C 12,0 C 1,9 km/h 100,00 %
28.09.2021 02:56 12,0 C 96 % 1021,6 hPa 0,0 l/m 2,3 km/h S 177 0 min 0,000 mm 0,0 UV-I 0 W/m 11,4 C 12,0 C 3,8 km/h 100,00 %
28.09.2021 02:55 12,0 C 96 % 1021,5 hPa 0,0 l/m 2,4 km/h S 177 0 min 0,000 mm 0,0 UV-I 0 W/m 11,4 C 12,0 C 3,8 km/h 100,00 %
28.09.2021 02:54 12,1 C 96 % 1021,6 hPa 0,0 l/m 0,7 km/h S 177 0 min 0,000 mm 0,0 UV-I 0 W/m 11,5 C 12,1 C 3,8 km/h 100,00 %
28.09.2021 02:53 12,0 C 96 % 1021,6 hPa 0,0 l/m 1,7 km/h S 177 0 min 0,000 mm 0,0 UV-I 0 W/m 11,4 C 12,0 C 3,8 km/h 100,00 %
28.09.2021 02:52 12,0 C 96 % 1021,5 hPa 0,0 l/m 2,9 km/h S 177 0 min 0,000 mm 0,0 UV-I 0 W/m 11,4 C 12,0 C 3,8 km/h 100,00 %
28.09.2021 02:51 12,0 C 96 % 1021,5 hPa 0,0 l/m 2,4 km/h S 177 0 min 0,000 mm 0,0 UV-I 0 W/m 11,4 C 12,0 C 3,8 km/h 100,00 %
28.09.2021 02:50 12,0 C 96 % 1021,6 hPa 0,0 l/m 2,0 km/h S 177 0 min 0,000 mm 0,0 UV-I 0 W/m 11,4 C 12,0 C 3,8 km/h 100,00 %
28.09.2021 02:49 12,0 C 96 % 1021,5 hPa 0,0 l/m 2,1 km/h S 177 0 min 0,000 mm 0,0 UV-I 0 W/m 11,4 C 12,0 C 3,8 km/h 100,00 %
28.09.2021 02:48 12,0 C 96 % 1021,5 hPa 0,0 l/m 2,2 km/h S 177 0 min 0,000 mm 0,0 UV-I 0 W/m 11,4 C 12,0 C 3,8 km/h 100,00 %
28.09.2021 02:47 12,0 C 96 % 1021,5 hPa 0,0 l/m 1,8 km/h S 177 0 min 0,000 mm 0,0 UV-I 0 W/m 11,4 C 12,0 C 3,8 km/h 100,00 %
28.09.2021 02:46 12,0 C 96 % 1021,5 hPa 0,0 l/m 2,3 km/h S 177 0 min 0,000 mm 0,0 UV-I 0 W/m 11,4 C 12,0 C 3,8 km/h 100,00 %
28.09.2021 02:45 12,0 C 96 % 1021,5 hPa 0,0 l/m 1,5 km/h S 177 0 min 0,000 mm 0,0 UV-I 0 W/m 11,4 C 12,0 C 1,9 km/h 100,00 %
28.09.2021 02:44 12,0 C 96 % 1021,5 hPa 0,0 l/m 1,0 km/h S 177 0 min 0,000 mm 0,0 UV-I 0 W/m 11,4 C 12,0 C 1,9 km/h 100,00 %
28.09.2021 02:43 12,0 C 96 % 1021,5 hPa 0,0 l/m 1,8 km/h S 177 0 min 0,000 mm 0,0 UV-I 0 W/m 11,4 C 12,0 C 3,8 km/h 100,00 %
28.09.2021 02:42 12,0 C 96 % 1021,5 hPa 0,0 l/m 1,7 km/h S 177 0 min 0,000 mm 0,0 UV-I 0 W/m 11,4 C 12,0 C 3,8 km/h 100,00 %
28.09.2021 02:41 12,0 C 96 % 1021,5 hPa 0,0 l/m 0,2 km/h S 177 0 min 0,000 mm 0,0 UV-I 0 W/m 11,4 C 12,0 C 1,9 km/h 100,00 %
28.09.2021 02:39 12,1 C 96 % 1021,5 hPa 0,0 l/m 1,2 km/h S 177 0 min 0,000 mm 0,0 UV-I 0 W/m 11,5 C 12,1 C 3,8 km/h 93,33 %
28.09.2021 02:38 12,1 C 96 % 1021,5 hPa 0,0 l/m 1,2 km/h S 177 0 min 0,000 mm 0,0 UV-I 0 W/m 11,5 C 12,1 C 5,7 km/h 92,59 %
28.09.2021 02:37 12,1 C 96 % 1021,5 hPa 0,0 l/m 0,3 km/h S 177 0 min 0,000 mm 0,0 UV-I 0 W/m 11,5 C 12,1 C 1,9 km/h 95,65 %
28.09.2021 02:36 12,1 C 96 % 1021,5 hPa 0,0 l/m 1,8 km/h S 177 0 min 0,000 mm 0,0 UV-I 0 W/m 11,5 C 12,1 C 5,7 km/h 100,00 %
28.09.2021 02:35 12,1 C 96 % 1021,5 hPa 0,0 l/m 0,9 km/h S 177 0 min 0,000 mm 0,0 UV-I 0 W/m 11,5 C 12,1 C 3,8 km/h 100,00 %
28.09.2021 02:34 12,1 C 96 % 1021,5 hPa 0,0 l/m 0,8 km/h S 177 0 min 0,000 mm 0,0 UV-I 0 W/m 11,5 C 12,1 C 1,9 km/h 100,00 %
28.09.2021 02:33 12,1 C 96 % 1021,5 hPa 0,0 l/m 0,2 km/h S 177 0 min 0,000 mm 0,0 UV-I 0 W/m 11,5 C 12,1 C 1,9 km/h 100,00 %
28.09.2021 02:32 12,1 C 96 % 1021,5 hPa 0,0 l/m 0,6 km/h S 177 0 min 0,000 mm 0,0 UV-I 0 W/m 11,5 C 12,1 C 1,9 km/h 100,00 %
28.09.2021 02:31 12,1 C 96 % 1021,5 hPa 0,0 l/m 0,2 km/h S 177 0 min 0,000 mm 0,0 UV-I 0 W/m 11,5 C 12,1 C 1,9 km/h 100,00 %
28.09.2021 02:30 12,1 C 96 % 1021,5 hPa 0,0 l/m 0,1 km/h S 177 0 min 0,000 mm 0,0 UV-I 0 W/m 11,5 C 12,1 C 1,9 km/h 100,00 %
28.09.2021 02:29 12,1 C 96 % 1021,5 hPa 0,0 l/m 1,1 km/h S 177 0 min 0,000 mm 0,0 UV-I 0 W/m 11,5 C 12,1 C 1,9 km/h 100,00 %
28.09.2021 02:28 12,1 C 96 % 1021,5 hPa 0,0 l/m 1,0 km/h S 177 0 min 0,000 mm 0,0 UV-I 0 W/m 11,5 C 12,1 C 1,9 km/h 100,00 %
28.09.2021 02:27 12,1 C 96 % 1021,5 hPa 0,0 l/m 0,5 km/h S 177 0 min 0,000 mm 0,0 UV-I 0 W/m 11,5 C 12,1 C 1,9 km/h 100,00 %
28.09.2021 02:26 12,1 C 96 % 1021,5 hPa 0,0 l/m 0,2 km/h S 177 0 min 0,000 mm 0,0 UV-I 0 W/m 11,5 C 12,1 C 1,9 km/h 100,00 %
28.09.2021 02:25 12,1 C 96 % 1021,5 hPa 0,0 l/m 0,2 km/h S 177 0 min 0,000 mm 0,0 UV-I 0 W/m 11,5 C 12,1 C 1,9 km/h 100,00 %
28.09.2021 02:24 12,1 C 96 % 1021,5 hPa 0,0 l/m 0,6 km/h S 177 0 min 0,000 mm 0,0 UV-I 0 W/m 11,5 C 12,1 C 1,9 km/h 100,00 %
28.09.2021 02:23 12,1 C 96 % 1021,5 hPa 0,0 l/m 0,5 km/h S 177 0 min 0,000 mm 0,0 UV-I 0 W/m 11,5 C 12,1 C 1,9 km/h 100,00 %
28.09.2021 02:22 12,1 C 96 % 1021,5 hPa 0,0 l/m 0,0 km/h S 177 0 min 0,000 mm 0,0 UV-I 0 W/m 11,5 C 12,1 C 0,0 km/h 100,00 %
28.09.2021 02:21 12,2 C 96 % 1021,5 hPa 0,0 l/m 0,0 km/h S 177 0 min 0,000 mm 0,0 UV-I 0 W/m 11,6 C 12,2 C 0,0 km/h 100,00 %
28.09.2021 02:20 12,2 C 96 % 1021,5 hPa 0,0 l/m 0,7 km/h S 177 0 min 0,000 mm 0,0 UV-I 0 W/m 11,6 C 12,2 C 1,9 km/h 91,67 %
28.09.2021 02:19 12,2 C 96 % 1021,5 hPa 0,0 l/m 0,5 km/h S 177 0 min 0,000 mm 0,0 UV-I 0 W/m 11,6 C 12,2 C 1,9 km/h 100,00 %
28.09.2021 02:18 12,2 C 96 % 1021,5 hPa 0,0 l/m 0,2 km/h S 177 0 min 0,000 mm 0,0 UV-I 0 W/m 11,6 C 12,2 C 1,9 km/h 100,00 %
28.09.2021 02:17 12,2 C 96 % 1021,5 hPa 0,0 l/m 1,1 km/h S 177 0 min 0,000 mm 0,0 UV-I 0 W/m 11,6 C 12,2 C 1,9 km/h 100,00 %
28.09.2021 02:16 12,2 C 96 % 1021,5 hPa 0,0 l/m 0,8 km/h S 177 0 min 0,000 mm 0,0 UV-I 0 W/m 11,6 C 12,2 C 1,9 km/h 100,00 %
28.09.2021 02:15 12,2 C 96 % 1021,5 hPa 0,0 l/m 1,4 km/h S 177 0 min 0,000 mm 0,0 UV-I 0 W/m 11,6 C 12,2 C 3,8 km/h 100,00 %
28.09.2021 02:14 12,2 C 96 % 1021,5 hPa 0,0 l/m 1,7 km/h S 177 0 min 0,000 mm 0,0 UV-I 0 W/m 11,6 C 12,2 C 3,8 km/h 100,00 %
28.09.2021 02:13 12,2 C 96 % 1021,4 hPa 0,0 l/m 0,6 km/h S 177 0 min 0,000 mm 0,0 UV-I 0 W/m 11,6 C 12,2 C 1,9 km/h 100,00 %
28.09.2021 02:12 12,2 C 96 % 1021,4 hPa 0,0 l/m 1,6 km/h S 177 0 min 0,000 mm 0,0 UV-I 0 W/m 11,6 C 12,2 C 1,9 km/h 100,00 %
28.09.2021 02:11 12,2 C 96 % 1021,4 hPa 0,0 l/m 1,8 km/h S 177 0 min 0,000 mm 0,0 UV-I 0 W/m 11,6 C 12,2 C 3,8 km/h 96,30 %
28.09.2021 02:10 12,2 C 96 % 1021,4 hPa 0,0 l/m 1,4 km/h S 177 0 min 0,000 mm 0,0 UV-I 0 W/m 11,6 C 12,2 C 3,8 km/h 100,00 %
28.09.2021 02:09 12,2 C 96 % 1021,4 hPa 0,0 l/m 0,8 km/h S 177 0 min 0,000 mm 0,0 UV-I 0 W/m 11,6 C 12,2 C 1,9 km/h 100,00 %
28.09.2021 02:08 12,2 C 96 % 1021,4 hPa 0,0 l/m 1,5 km/h S 177 0 min 0,000 mm 0,0 UV-I 0 W/m 11,6 C 12,2 C 1,9 km/h 100,00 %
28.09.2021 02:07 12,2 C 96 % 1021,4 hPa 0,0 l/m 1,5 km/h S 177 0 min 0,000 mm 0,0 UV-I 0 W/m 11,6 C 12,2 C 3,8 km/h 100,00 %
28.09.2021 02:06 12,2 C 96 % 1021,4 hPa 0,0 l/m 1,2 km/h S 177 0 min 0,000 mm 0,0 UV-I 0 W/m 11,6 C 12,2 C 3,8 km/h 100,00 %
28.09.2021 02:05 12,2 C 96 % 1021,4 hPa 0,0 l/m 0,3 km/h S 177 0 min 0,000 mm 0,0 UV-I 0 W/m 11,6 C 12,2 C 1,9 km/h 100,00 %
28.09.2021 02:04 12,2 C 96 % 1021,4 hPa 0,0 l/m 2,8 km/h S 177 0 min 0,000 mm 0,0 UV-I 0 W/m 11,6 C 12,2 C 5,7 km/h 100,00 %
28.09.2021 02:03 12,2 C 96 % 1021,4 hPa 0,0 l/m 0,8 km/h S 177 0 min 0,000 mm 0,0 UV-I 0 W/m 11,6 C 12,2 C 1,9 km/h 100,00 %
28.09.2021 02:02 12,3 C 96 % 1021,4 hPa 0,0 l/m 1,1 km/h S 177 0 min 0,000 mm 0,0 UV-I 0 W/m 11,7 C 12,3 C 3,8 km/h 100,00 %
28.09.2021 02:01 12,2 C 96 % 1021,4 hPa 0,0 l/m 2,9 km/h S 177 0 min 0,000 mm 0,0 UV-I 0 W/m 11,6 C 12,2 C 5,7 km/h 100,00 %
28.09.2021 02:00 12,3 C 96 % 1021,4 hPa 0,0 l/m 1,4 km/h S 177 0 min 0,000 mm 0,0 UV-I 0 W/m 11,7 C 12,3 C 3,8 km/h 100,00 %
28.09.2021 01:59 12,3 C 96 % 1021,3 hPa 0,0 l/m 2,4 km/h S 177 0 min 0,000 mm 0,0 UV-I 0 W/m 11,7 C 12,3 C 3,8 km/h 100,00 %
28.09.2021 01:58 12,3 C 96 % 1021,3 hPa 0,0 l/m 0,3 km/h S 177 0 min 0,000 mm 0,0 UV-I 0 W/m 11,7 C 12,3 C 1,9 km/h 100,00 %
28.09.2021 01:57 12,3 C 96 % 1021,3 hPa 0,0 l/m 0,3 km/h S 177 0 min 0,000 mm 0,0 UV-I 0 W/m 11,7 C 12,3 C 1,9 km/h 95,65 %
28.09.2021 01:56 12,3 C 96 % 1021,3 hPa 0,0 l/m 0,3 km/h S 177 0 min 0,000 mm 0,0 UV-I 0 W/m 11,7 C 12,3 C 1,9 km/h 100,00 %
28.09.2021 01:55 12,3 C 96 % 1021,3 hPa 0,0 l/m 1,2 km/h S 177 0 min 0,000 mm 0,0 UV-I 0 W/m 11,7 C 12,3 C 3,8 km/h 95,65 %
28.09.2021 01:54 12,3 C 96 % 1021,3 hPa 0,0 l/m 0,6 km/h S 177 0 min 0,000 mm 0,0 UV-I 0 W/m 11,7 C 12,3 C 1,9 km/h 95,83 %
28.09.2021 01:53 12,3 C 96 % 1021,3 hPa 0,0 l/m 0,5 km/h S 177 0 min 0,000 mm 0,0 UV-I 0 W/m 11,7 C 12,3 C 1,9 km/h 100,00 %
28.09.2021 01:52 12,4 C 96 % 1021,3 hPa 0,0 l/m 0,9 km/h S 177 0 min 0,000 mm 0,0 UV-I 0 W/m 11,8 C 12,4 C 3,8 km/h 100,00 %
28.09.2021 01:51 12,4 C 96 % 1021,3 hPa 0,0 l/m 0,6 km/h S 177 0 min 0,000 mm 0,0 UV-I 0 W/m 11,8 C 12,4 C 3,8 km/h 100,00 %
28.09.2021 01:50 12,4 C 96 % 1021,3 hPa 0,0 l/m 3,3 km/h S 177 0 min 0,000 mm 0,0 UV-I 0 W/m 11,8 C 12,4 C 5,7 km/h 100,00 %
28.09.2021 01:49 12,4 C 96 % 1021,3 hPa 0,0 l/m 1,4 km/h S 177 0 min 0,000 mm 0,0 UV-I 0 W/m 11,8 C 12,4 C 3,8 km/h 100,00 %
28.09.2021 01:48 12,4 C 96 % 1021,2 hPa 0,0 l/m 1,8 km/h S 177 0 min 0,000 mm 0,0 UV-I 0 W/m 11,8 C 12,4 C 5,7 km/h 100,00 %
28.09.2021 01:47 12,4 C 96 % 1021,2 hPa 0,0 l/m 2,8 km/h S 177 0 min 0,000 mm 0,0 UV-I 0 W/m 11,8 C 12,4 C 5,7 km/h 100,00 %
28.09.2021 01:46 12,4 C 96 % 1021,3 hPa 0,0 l/m 0,9 km/h S 178 0 min 0,000 mm 0,0 UV-I 0 W/m 11,8 C 12,4 C 3,8 km/h 100,00 %
28.09.2021 01:45 12,4 C 96 % 1021,3 hPa 0,0 l/m 1,7 km/h S 178 0 min 0,000 mm 0,0 UV-I 0 W/m 11,8 C 12,4 C 3,8 km/h 100,00 %
28.09.2021 01:44 12,4 C 96 % 1021,2 hPa 0,0 l/m 1,3 km/h S 178 0 min 0,000 mm 0,0 UV-I 0 W/m 11,8 C 12,4 C 1,9 km/h 100,00 %
28.09.2021 01:43 12,4 C 96 % 1021,2 hPa 0,0 l/m 1,4 km/h S 178 0 min 0,000 mm 0,0 UV-I 0 W/m 11,8 C 12,4 C 1,9 km/h 100,00 %
28.09.2021 01:42 12,4 C 96 % 1021,2 hPa 0,0 l/m 1,7 km/h S 178 0 min 0,000 mm 0,0 UV-I 0 W/m 11,8 C 12,4 C 3,8 km/h 100,00 %
28.09.2021 01:41 12,4 C 96 % 1021,2 hPa 0,0 l/m 2,5 km/h S 178 0 min 0,000 mm 0,0 UV-I 0 W/m 11,8 C 12,4 C 3,8 km/h 96,15 %
28.09.2021 01:40 12,4 C 96 % 1021,2 hPa 0,0 l/m 0,9 km/h S 178 0 min 0,000 mm 0,0 UV-I 0 W/m 11,8 C 12,4 C 1,9 km/h 100,00 %
28.09.2021 01:39 12,4 C 96 % 1021,2 hPa 0,0 l/m 0,5 km/h S 178 0 min 0,000 mm 0,0 UV-I 0 W/m 11,8 C 12,4 C 1,9 km/h 95,83 %
28.09.2021 01:38 12,4 C 96 % 1021,2 hPa 0,0 l/m 0,3 km/h S 178 0 min 0,000 mm 0,0 UV-I 0 W/m 11,8 C 12,4 C 1,9 km/h 100,00 %
28.09.2021 01:37 12,4 C 96 % 1021,2 hPa 0,0 l/m 1,3 km/h S 178 0 min 0,000 mm 0,0 UV-I 0 W/m 11,8 C 12,4 C 1,9 km/h 100,00 %
28.09.2021 01:36 12,4 C 96 % 1021,2 hPa 0,0 l/m 3,4 km/h S 178 0 min 0,000 mm 0,0 UV-I 0 W/m 11,8 C 12,4 C 7,7 km/h 100,00 %
28.09.2021 01:35 12,4 C 96 % 1021,1 hPa 0,0 l/m 2,5 km/h S 178 0 min 0,000 mm 0,0 UV-I 0 W/m 11,8 C 12,4 C 3,8 km/h 100,00 %
28.09.2021 01:34 12,4 C 96 % 1021,1 hPa 0,0 l/m 2,1 km/h S 178 0 min 0,000 mm 0,0 UV-I 0 W/m 11,8 C 12,4 C 5,7 km/h 100,00 %
28.09.2021 01:33 12,5 C 96 % 1021,2 hPa 0,0 l/m 1,1 km/h S 178 0 min 0,000 mm 0,0 UV-I 0 W/m 11,9 C 12,5 C 1,9 km/h 100,00 %
28.09.2021 01:32 12,5 C 96 % 1021,2 hPa 0,0 l/m 1,1 km/h S 178 0 min 0,000 mm 0,0 UV-I 0 W/m 11,9 C 12,5 C 3,8 km/h 100,00 %
28.09.2021 01:31 12,5 C 96 % 1021,1 hPa 0,0 l/m 0,6 km/h S 178 0 min 0,000 mm 0,0 UV-I 0 W/m 11,9 C 12,5 C 1,9 km/h 100,00 %
28.09.2021 01:30 12,6 C 96 % 1021,1 hPa 0,0 l/m 1,4 km/h S 178 0 min 0,000 mm 0,0 UV-I 0 W/m 12,0 C 12,6 C 3,8 km/h 95,65 %
28.09.2021 01:29 12,5 C 96 % 1021,1 hPa 0,0 l/m 1,5 km/h S 178 0 min 0,000 mm 0,0 UV-I 0 W/m 11,9 C 12,5 C 3,8 km/h 100,00 %
28.09.2021 01:28 12,6 C 96 % 1021,1 hPa 0,0 l/m 2,8 km/h S 178 0 min 0,000 mm 0,0 UV-I 0 W/m 12,0 C 12,6 C 3,8 km/h 95,65 %
28.09.2021 01:27 12,6 C 96 % 1021,1 hPa 0,0 l/m 0,1 km/h S 178 0 min 0,000 mm 0,0 UV-I 0 W/m 12,0 C 12,6 C 1,9 km/h 100,00 %
28.09.2021 01:26 12,6 C 96 % 1021,1 hPa 0,0 l/m 2,6 km/h S 178 0 min 0,000 mm 0,0 UV-I 0 W/m 12,0 C 12,6 C 5,7 km/h 100,00 %
28.09.2021 01:25 12,6 C 96 % 1021,0 hPa 0,0 l/m 3,3 km/h S 178 0 min 0,000 mm 0,0 UV-I 0 W/m 12,0 C 12,6 C 7,7 km/h 100,00 %
28.09.2021 01:24 12,6 C 96 % 1021,0 hPa 0,0 l/m 4,3 km/h S 178 0 min 0,000 mm 0,0 UV-I 0 W/m 12,0 C 12,6 C 5,7 km/h 100,00 %
28.09.2021 01:23 12,6 C 96 % 1021,0 hPa 0,0 l/m 3,2 km/h S 177 0 min 0,000 mm 0,0 UV-I 0 W/m 12,0 C 12,6 C 7,7 km/h 99,53 %
28.09.2021 01:22 12,6 C 96 % 1021,0 hPa 0,0 l/m 2,4 km/h S 178 0 min 0,000 mm 0,0 UV-I 0 W/m 12,0 C 12,6 C 3,8 km/h 100,00 %
28.09.2021 01:21 12,6 C 96 % 1021,0 hPa 0,0 l/m 3,7 km/h S 178 0 min 0,000 mm 0,0 UV-I 0 W/m 12,0 C 12,6 C 5,7 km/h 100,00 %
28.09.2021 01:20 12,6 C 96 % 1021,0 hPa 0,0 l/m 4,7 km/h S 177 0 min 0,000 mm 0,0 UV-I 0 W/m 12,0 C 12,6 C 9,6 km/h 99,51 %
28.09.2021 01:19 12,6 C 96 % 1021,0 hPa 0,0 l/m 3,0 km/h S 178 0 min 0,000 mm 0,0 UV-I 0 W/m 12,0 C 12,6 C 3,8 km/h 100,00 %
28.09.2021 01:18 12,6 C 96 % 1021,0 hPa 0,0 l/m 3,9 km/h S 178 0 min 0,000 mm 0,0 UV-I 0 W/m 12,0 C 12,6 C 7,7 km/h 100,00 %
28.09.2021 01:17 12,5 C 96 % 1021,0 hPa 0,0 l/m 4,9 km/h S 179 0 min 0,000 mm 0,0 UV-I 0 W/m 11,9 C 12,5 C 7,7 km/h 95,83 %
28.09.2021 01:16 12,5 C 96 % 1020,9 hPa 0,0 l/m 4,0 km/h S 180 0 min 0,000 mm 0,0 UV-I 0 W/m 11,9 C 12,5 C 7,7 km/h 100,00 %
28.09.2021 01:15 12,5 C 96 % 1020,9 hPa 0,0 l/m 2,2 km/h S 180 0 min 0,000 mm 0,0 UV-I 0 W/m 11,9 C 12,5 C 3,8 km/h 100,00 %
28.09.2021 01:14 12,5 C 96 % 1020,9 hPa 0,0 l/m 0,8 km/h S 180 0 min 0,000 mm 0,0 UV-I 0 W/m 11,9 C 12,5 C 1,9 km/h 100,00 %
28.09.2021 01:13 12,5 C 96 % 1021,0 hPa 0,0 l/m 1,1 km/h S 180 0 min 0,000 mm 0,0 UV-I 0 W/m 11,9 C 12,5 C 1,9 km/h 100,00 %
28.09.2021 01:12 12,6 C 96 % 1020,9 hPa 0,0 l/m 0,9 km/h S 180 0 min 0,000 mm 0,0 UV-I 0 W/m 12,0 C 12,6 C 3,8 km/h 97,56 %
28.09.2021 01:11 12,6 C 96 % 1020,9 hPa 0,0 l/m 2,8 km/h S 179 0 min 0,000 mm 0,0 UV-I 0 W/m 12,0 C 12,6 C 5,7 km/h 99,57 %
28.09.2021 01:10 12,6 C 96 % 1020,9 hPa 0,0 l/m 1,9 km/h S 180 0 min 0,000 mm 0,0 UV-I 0 W/m 12,0 C 12,6 C 3,8 km/h 100,00 %
28.09.2021 01:09 12,6 C 96 % 1020,9 hPa 0,0 l/m 5,3 km/h S 180 0 min 0,000 mm 0,0 UV-I 0 W/m 12,0 C 12,6 C 7,7 km/h 100,00 %
28.09.2021 01:08 12,6 C 96 % 1020,9 hPa 0,0 l/m 2,9 km/h S-SO 167 0 min 0,000 mm 0,0 UV-I 0 W/m 12,0 C 12,6 C 7,7 km/h 100,00 %
28.09.2021 01:07 12,6 C 96 % 1020,9 hPa 0,0 l/m 4,2 km/h S-SO 168 0 min 0,000 mm 0,0 UV-I 0 W/m 12,0 C 12,6 C 7,7 km/h 100,00 %
28.09.2021 01:06 12,6 C 96 % 1020,9 hPa 0,0 l/m 2,2 km/h S-SO 167 0 min 0,000 mm 0,0 UV-I 0 W/m 12,0 C 12,6 C 5,7 km/h 100,00 %
28.09.2021 01:05 12,7 C 96 % 1020,9 hPa 0,0 l/m 0,5 km/h S-SO 167 0 min 0,000 mm 0,0 UV-I 0 W/m 12,1 C 12,7 C 1,9 km/h 100,00 %
28.09.2021 01:04 12,7 C 96 % 1020,9 hPa 0,0 l/m 2,4 km/h S-SO 167 0 min 0,000 mm 0,0 UV-I 0 W/m 12,1 C 12,7 C 5,7 km/h 100,00 %
28.09.2021 01:03 12,7 C 96 % 1020,8 hPa 0,0 l/m 0,5 km/h S-SO 167 0 min 0,000 mm 0,0 UV-I 0 W/m 12,1 C 12,7 C 1,9 km/h 100,00 %
28.09.2021 01:02 12,7 C 96 % 1020,9 hPa 0,0 l/m 1,5 km/h S-SO 167 0 min 0,000 mm 0,0 UV-I 0 W/m 12,1 C 12,7 C 5,7 km/h 100,00 %
28.09.2021 01:01 12,7 C 96 % 1020,9 hPa 0,0 l/m 4,4 km/h S-SO 167 0 min 0,000 mm 0,0 UV-I 0 W/m 12,1 C 12,7 C 7,7 km/h 100,00 %
28.09.2021 01:00 12,7 C 96 % 1020,8 hPa 0,0 l/m 3,2 km/h S-SO 167 0 min 0,000 mm 0,0 UV-I 0 W/m 12,1 C 12,7 C 5,7 km/h 99,49 %
28.09.2021 00:59 12,8 C 96 % 1020,8 hPa 0,0 l/m 5,4 km/h S-SO 167 0 min 0,000 mm 0,0 UV-I 0 W/m 12,2 C 12,8 C 7,7 km/h 100,00 %
28.09.2021 00:58 12,8 C 96 % 1020,9 hPa 0,0 l/m 2,8 km/h S-SO 167 0 min 0,000 mm 0,0 UV-I 0 W/m 12,2 C 12,8 C 5,7 km/h 100,00 %
28.09.2021 00:57 12,8 C 96 % 1020,8 hPa 0,0 l/m 4,8 km/h S-SO 167 0 min 0,000 mm 0,0 UV-I 0 W/m 12,2 C 12,8 C 5,7 km/h 100,00 %
28.09.2021 00:56 12,8 C 96 % 1020,9 hPa 0,0 l/m 4,7 km/h S-SO 166 0 min 0,000 mm 0,0 UV-I 0 W/m 12,2 C 12,8 C 7,7 km/h 95,65 %
28.09.2021 00:55 12,8 C 96 % 1020,8 hPa 0,0 l/m 5,1 km/h S-SO 166 0 min 0,000 mm 0,0 UV-I 0 W/m 12,2 C 12,8 C 7,7 km/h 100,00 %
28.09.2021 00:54 12,8 C 96 % 1020,8 hPa 0,0 l/m 1,8 km/h S-SO 166 0 min 0,000 mm 0,0 UV-I 0 W/m 12,2 C 12,8 C 7,7 km/h 100,00 %
28.09.2021 00:53 12,8 C 96 % 1020,8 hPa 0,0 l/m 3,3 km/h S-SO 165 0 min 0,000 mm 0,0 UV-I 0 W/m 12,2 C 12,8 C 9,6 km/h 100,00 %
28.09.2021 00:52 12,8 C 96 % 1020,8 hPa 0,0 l/m 3,0 km/h S-SO 165 0 min 0,000 mm 0,0 UV-I 0 W/m 12,2 C 12,8 C 3,8 km/h 96,55 %
28.09.2021 00:51 12,9 C 96 % 1020,8 hPa 0,0 l/m 3,2 km/h S-SO 165 0 min 0,000 mm 0,0 UV-I 0 W/m 12,3 C 12,9 C 7,7 km/h 100,00 %
28.09.2021 00:50 12,9 C 96 % 1020,8 hPa 0,0 l/m 1,0 km/h S-SO 165 0 min 0,000 mm 0,0 UV-I 0 W/m 12,3 C 12,9 C 3,8 km/h 100,00 %
28.09.2021 00:49 12,9 C 96 % 1020,9 hPa 0,0 l/m 3,1 km/h S-SO 165 0 min 0,000 mm 0,0 UV-I 0 W/m 12,3 C 12,9 C 7,7 km/h 100,00 %
28.09.2021 00:48 12,9 C 96 % 1020,9 hPa 0,0 l/m 3,5 km/h S-SO 165 0 min 0,000 mm 0,0 UV-I 0 W/m 12,3 C 12,9 C 7,7 km/h 100,00 %
28.09.2021 00:47 12,9 C 96 % 1020,9 hPa 0,0 l/m 4,1 km/h S 176 0 min 0,000 mm 0,0 UV-I 0 W/m 12,3 C 12,9 C 11,5 km/h 100,00 %
28.09.2021 00:46 12,9 C 96 % 1020,8 hPa 0,0 l/m 3,7 km/h S 174 0 min 0,000 mm 0,0 UV-I 0 W/m 12,3 C 12,9 C 5,7 km/h 100,00 %
28.09.2021 00:45 12,9 C 96 % 1020,9 hPa 0,0 l/m 4,5 km/h S 174 0 min 0,000 mm 0,0 UV-I 0 W/m 12,3 C 12,9 C 9,6 km/h 91,67 %
28.09.2021 00:44 12,9 C 96 % 1020,8 hPa 0,0 l/m 3,7 km/h S 177 0 min 0,000 mm 0,0 UV-I 0 W/m 12,3 C 12,9 C 5,7 km/h 100,00 %
28.09.2021 00:43 13,0 C 96 % 1020,8 hPa 0,0 l/m 3,7 km/h S 177 0 min 0,000 mm 0,0 UV-I 0 W/m 12,4 C 13,0 C 5,7 km/h 100,00 %
28.09.2021 00:42 13,0 C 96 % 1020,8 hPa 0,0 l/m 4,1 km/h S 178 0 min 0,000 mm 0,0 UV-I 0 W/m 12,4 C 13,0 C 7,7 km/h 100,00 %
28.09.2021 00:41 13,0 C 96 % 1020,7 hPa 0,0 l/m 4,3 km/h S 178 0 min 0,000 mm 0,0 UV-I 0 W/m 12,4 C 13,0 C 7,7 km/h 100,00 %
28.09.2021 00:40 13,0 C 96 % 1020,7 hPa 0,0 l/m 2,3 km/h S 179 0 min 0,000 mm 0,0 UV-I 0 W/m 12,4 C 13,0 C 5,7 km/h 100,00 %
28.09.2021 00:39 13,1 C 96 % 1020,7 hPa 0,0 l/m 2,8 km/h S 179 0 min 0,000 mm 0,0 UV-I 0 W/m 12,5 C 13,1 C 5,7 km/h 99,66 %
28.09.2021 00:38 13,1 C 96 % 1020,7 hPa 0,0 l/m 2,7 km/h S 179 0 min 0,000 mm 0,0 UV-I 0 W/m 12,5 C 13,1 C 5,7 km/h 97,37 %
28.09.2021 00:37 13,1 C 96 % 1020,7 hPa 0,0 l/m 3,3 km/h S 179 0 min 0,000 mm 0,0 UV-I 0 W/m 12,5 C 13,1 C 5,7 km/h 100,00 %
28.09.2021 00:36 13,1 C 96 % 1020,7 hPa 0,0 l/m 3,2 km/h S 179 0 min 0,000 mm 0,0 UV-I 0 W/m 12,5 C 13,1 C 5,7 km/h 100,00 %
28.09.2021 00:35 13,1 C 96 % 1020,7 hPa 0,0 l/m 3,8 km/h S 181 0 min 0,000 mm 0,0 UV-I 0 W/m 12,5 C 13,1 C 5,7 km/h 100,00 %
28.09.2021 00:34 13,1 C 96 % 1020,7 hPa 0,0 l/m 4,8 km/h S 181 0 min 0,000 mm 0,0 UV-I 0 W/m 12,5 C 13,1 C 7,7 km/h 100,00 %
28.09.2021 00:33 13,1 C 96 % 1020,7 hPa 0,0 l/m 2,5 km/h S 181 0 min 0,000 mm 0,0 UV-I 0 W/m 12,5 C 13,1 C 3,8 km/h 100,00 %
28.09.2021 00:32 13,1 C 96 % 1020,7 hPa 0,0 l/m 3,0 km/h S 181 0 min 0,000 mm 0,0 UV-I 0 W/m 12,5 C 13,1 C 5,7 km/h 100,00 %
28.09.2021 00:31 13,1 C 96 % 1020,7 hPa 0,0 l/m 4,0 km/h S 181 0 min 0,000 mm 0,0 UV-I 0 W/m 12,5 C 13,1 C 5,7 km/h 100,00 %
28.09.2021 00:30 13,1 C 96 % 1020,7 hPa 0,0 l/m 3,6 km/h S 183 0 min 0,000 mm 0,0 UV-I 0 W/m 12,5 C 13,1 C 5,7 km/h 100,00 %
28.09.2021 00:29 13,1 C 96 % 1020,7 hPa 0,0 l/m 4,9 km/h S 186 0 min 0,000 mm 0,0 UV-I 0 W/m 12,5 C 13,1 C 9,6 km/h 100,00 %
28.09.2021 00:28 13,1 C 96 % 1020,7 hPa 0,0 l/m 4,9 km/h S 172 0 min 0,000 mm 0,0 UV-I 0 W/m 12,5 C 13,1 C 9,6 km/h 95,83 %
28.09.2021 00:27 13,1 C 96 % 1020,7 hPa 0,0 l/m 2,7 km/h S 188 0 min 0,000 mm 0,0 UV-I 0 W/m 12,5 C 13,1 C 5,7 km/h 100,00 %
28.09.2021 00:26 13,1 C 96 % 1020,7 hPa 0,0 l/m 2,2 km/h S 188 0 min 0,000 mm 0,0 UV-I 0 W/m 12,5 C 13,1 C 3,8 km/h 100,00 %
28.09.2021 00:25 13,1 C 96 % 1020,7 hPa 0,0 l/m 3,7 km/h S 188 0 min 0,000 mm 0,0 UV-I 0 W/m 12,5 C 13,1 C 5,7 km/h 100,00 %
28.09.2021 00:24 13,2 C 96 % 1020,7 hPa 0,0 l/m 3,2 km/h S 190 0 min 0,000 mm 0,0 UV-I 0 W/m 12,6 C 13,2 C 5,7 km/h 100,00 %
28.09.2021 00:23 13,2 C 96 % 1020,7 hPa 0,0 l/m 2,3 km/h S 190 0 min 0,000 mm 0,0 UV-I 0 W/m 12,6 C 13,2 C 3,8 km/h 100,00 %
28.09.2021 00:22 13,2 C 96 % 1020,6 hPa 0,0 l/m 4,2 km/h S 190 0 min 0,000 mm 0,0 UV-I 0 W/m 12,6 C 13,2 C 5,7 km/h 100,00 %
28.09.2021 00:21 13,2 C 96 % 1020,6 hPa 0,0 l/m 2,4 km/h S 190 0 min 0,000 mm 0,0 UV-I 0 W/m 12,6 C 13,2 C 5,7 km/h 100,00 %
28.09.2021 00:20 13,2 C 96 % 1020,6 hPa 0,0 l/m 1,9 km/h S 190 0 min 0,000 mm 0,0 UV-I 0 W/m 12,6 C 13,2 C 3,8 km/h 100,00 %
28.09.2021 00:19 13,2 C 96 % 1020,6 hPa 0,0 l/m 2,2 km/h S 190 0 min 0,000 mm 0,0 UV-I 0 W/m 12,6 C 13,2 C 3,8 km/h 100,00 %
28.09.2021 00:18 13,2 C 96 % 1020,5 hPa 0,0 l/m 2,5 km/h S 190 0 min 0,000 mm 0,0 UV-I 0 W/m 12,6 C 13,2 C 5,7 km/h 100,00 %
28.09.2021 00:17 13,2 C 96 % 1020,6 hPa 0,0 l/m 3,2 km/h S 190 0 min 0,000 mm 0,0 UV-I 0 W/m 12,6 C 13,2 C 5,7 km/h 100,00 %
28.09.2021 00:16 13,2 C 96 % 1020,6 hPa 0,0 l/m 1,1 km/h S 190 0 min 0,000 mm 0,0 UV-I 0 W/m 12,6 C 13,2 C 3,8 km/h 100,00 %
28.09.2021 00:15 13,3 C 96 % 1020,6 hPa 0,0 l/m 1,7 km/h S 190 0 min 0,000 mm 0,0 UV-I 0 W/m 12,7 C 13,3 C 1,9 km/h 100,00 %
28.09.2021 00:14 13,3 C 96 % 1020,6 hPa 0,0 l/m 1,4 km/h S 190 0 min 0,000 mm 0,0 UV-I 0 W/m 12,7 C 13,3 C 1,9 km/h 100,00 %
28.09.2021 00:13 13,3 C 96 % 1020,6 hPa 0,0 l/m 1,3 km/h S 190 0 min 0,000 mm 0,0 UV-I 0 W/m 12,7 C 13,3 C 3,8 km/h 100,00 %
28.09.2021 00:12 13,3 C 96 % 1020,6 hPa 0,0 l/m 0,7 km/h S 190 0 min 0,000 mm 0,0 UV-I 0 W/m 12,7 C 13,3 C 1,9 km/h 100,00 %
28.09.2021 00:11 13,3 C 96 % 1020,6 hPa 0,0 l/m 1,5 km/h S 190 0 min 0,000 mm 0,0 UV-I 0 W/m 12,7 C 13,3 C 3,8 km/h 100,00 %
28.09.2021 00:10 13,3 C 96 % 1020,6 hPa 0,0 l/m 1,1 km/h S 190 0 min 0,000 mm 0,0 UV-I 0 W/m 12,7 C 13,3 C 1,9 km/h 100,00 %
28.09.2021 00:09 13,3 C 96 % 1020,6 hPa 0,0 l/m 1,8 km/h S 190 0 min 0,000 mm 0,0 UV-I 0 W/m 12,7 C 13,3 C 3,8 km/h 100,00 %
28.09.2021 00:08 13,3 C 96 % 1020,6 hPa 0,0 l/m 2,2 km/h S 190 0 min 0,000 mm 0,0 UV-I 0 W/m 12,7 C 13,3 C 3,8 km/h 100,00 %
28.09.2021 00:07 13,3 C 96 % 1020,6 hPa 0,0 l/m 1,5 km/h S 190 0 min 0,000 mm 0,0 UV-I 0 W/m 12,7 C 13,3 C 3,8 km/h 100,00 %
28.09.2021 00:06 13,3 C 96 % 1020,6 hPa 0,0 l/m 1,5 km/h S 190 0 min 0,000 mm 0,0 UV-I 0 W/m 12,7 C 13,3 C 3,8 km/h 100,00 %
28.09.2021 00:05 13,3 C 96 % 1020,5 hPa 0,0 l/m 2,1 km/h S 190 0 min 0,000 mm 0,0 UV-I 0 W/m 12,7 C 13,3 C 3,8 km/h 100,00 %
28.09.2021 00:04 13,3 C 96 % 1020,5 hPa 0,0 l/m 1,8 km/h S 190 0 min 0,000 mm 0,0 UV-I 0 W/m 12,7 C 13,3 C 3,8 km/h 100,00 %
28.09.2021 00:03 13,3 C 96 % 1020,5 hPa 0,0 l/m 2,0 km/h S 190 0 min 0,000 mm 0,0 UV-I 0 W/m 12,7 C 13,3 C 3,8 km/h 100,00 %
28.09.2021 00:02 13,3 C 96 % 1020,5 hPa 0,0 l/m 1,6 km/h S 190 0 min 0,000 mm 0,0 UV-I 0 W/m 12,7 C 13,3 C 3,8 km/h 100,00 %
28.09.2021 00:01 13,4 C 96 % 1020,5 hPa 0,0 l/m 1,7 km/h S 190 0 min 0,000 mm 0,0 UV-I 0 W/m 12,8 C 13,4 C 3,8 km/h 92,31 %
28.09.2021 00:00 13,3 C 96 % 1020,4 hPa 0,0 l/m 1,2 km/h S 190 0 min 0,000 mm 0,0 UV-I 0 W/m 12,7 C 13,3 C 3,8 km/h 100,00 %
27.09.2021 23:59 13,3 C 96 % 1020,4 hPa 0,0 l/m 2,0 km/h S 190 0 min 0,000 mm 0,0 UV-I 0 W/m 12,7 C 13,3 C 3,8 km/h 100,00 %
27.09.2021 23:58 13,3 C 96 % 1020,4 hPa 0,0 l/m 2,5 km/h S 190 0 min 0,000 mm 0,0 UV-I 0 W/m 12,7 C 13,3 C 5,7 km/h 100,00 %
27.09.2021 23:57 13,3 C 96 % 1020,4 hPa 0,0 l/m 3,2 km/h S 190 0 min 0,000 mm 0,0 UV-I 0 W/m 12,7 C 13,3 C 5,7 km/h 95,65 %
27.09.2021 23:56 13,3 C 96 % 1020,4 hPa 0,0 l/m 2,5 km/h S 190 0 min 0,000 mm 0,0 UV-I 0 W/m 12,7 C 13,3 C 3,8 km/h 100,00 %
27.09.2021 23:55 13,3 C 96 % 1020,4 hPa 0,0 l/m 2,9 km/h S 190 0 min 0,000 mm 0,0 UV-I 0 W/m 12,7 C 13,3 C 5,7 km/h 100,00 %
27.09.2021 23:54 13,3 C 96 % 1020,4 hPa 0,0 l/m 2,3 km/h S 190 0 min 0,000 mm 0,0 UV-I 0 W/m 12,7 C 13,3 C 3,8 km/h 100,00 %
27.09.2021 23:53 13,3 C 96 % 1020,3 hPa 0,0 l/m 2,2 km/h S 190 0 min 0,000 mm 0,0 UV-I 0 W/m 12,7 C 13,3 C 3,8 km/h 100,00 %
27.09.2021 23:52 13,3 C 96 % 1020,3 hPa 0,0 l/m 1,6 km/h S 190 0 min 0,000 mm 0,0 UV-I 0 W/m 12,7 C 13,3 C 3,8 km/h 100,00 %
27.09.2021 23:51 13,3 C 96 % 1020,4 hPa 0,0 l/m 2,0 km/h S 190 0 min 0,000 mm 0,0 UV-I 0 W/m 12,7 C 13,3 C 3,8 km/h 100,00 %
27.09.2021 23:50 13,3 C 96 % 1020,4 hPa 0,0 l/m 2,2 km/h S 190 0 min 0,000 mm 0,0 UV-I 0 W/m 12,7 C 13,3 C 3,8 km/h 100,00 %
27.09.2021 23:49 13,3 C 96 % 1020,4 hPa 0,0 l/m 1,0 km/h S 190 0 min 0,000 mm 0,0 UV-I 0 W/m 12,7 C 13,3 C 1,9 km/h 99,07 %
27.09.2021 23:48 13,3 C 96 % 1020,3 hPa 0,0 l/m 1,7 km/h S 190 0 min 0,000 mm 0,0 UV-I 0 W/m 12,7 C 13,3 C 3,8 km/h 100,00 %
27.09.2021 23:47 13,3 C 96 % 1020,3 hPa 0,0 l/m 1,7 km/h S 190 0 min 0,000 mm 0,0 UV-I 0 W/m 12,7 C 13,3 C 3,8 km/h 100,00 %
27.09.2021 23:46 13,3 C 96 % 1020,3 hPa 0,0 l/m 2,4 km/h S 190 0 min 0,000 mm 0,0 UV-I 0 W/m 12,7 C 13,3 C 3,8 km/h 99,07 %
27.09.2021 23:45 13,3 C 96 % 1020,4 hPa 0,0 l/m 2,9 km/h S 190 0 min 0,000 mm 0,0 UV-I 0 W/m 12,7 C 13,3 C 3,8 km/h 95,83 %
27.09.2021 23:44 13,3 C 96 % 1020,4 hPa 0,0 l/m 1,8 km/h S 190 0 min 0,000 mm 0,0 UV-I 0 W/m 12,7 C 13,3 C 3,8 km/h 100,00 %
27.09.2021 23:43 13,3 C 96 % 1020,4 hPa 0,0 l/m 2,0 km/h S 190 0 min 0,000 mm 0,0 UV-I 0 W/m 12,7 C 13,3 C 3,8 km/h 100,00 %
27.09.2021 23:42 13,3 C 96 % 1020,4 hPa 0,0 l/m 1,6 km/h S 190 0 min 0,000 mm 0,0 UV-I 0 W/m 12,7 C 13,3 C 3,8 km/h 100,00 %
27.09.2021 23:41 13,3 C 96 % 1020,3 hPa 0,0 l/m 0,6 km/h S 190 0 min 0,000 mm 0,0 UV-I 0 W/m 12,7 C 13,3 C 1,9 km/h 100,00 %
27.09.2021 23:40 13,3 C 96 % 1020,3 hPa 0,0 l/m 0,7 km/h S 190 0 min 0,000 mm 0,0 UV-I 0 W/m 12,7 C 13,3 C 1,9 km/h 100,00 %
27.09.2021 23:39 13,3 C 96 % 1020,3 hPa 0,0 l/m 0,1 km/h S 190 0 min 0,000 mm 0,0 UV-I 0 W/m 12,7 C 13,3 C 1,9 km/h 100,00 %
27.09.2021 23:38 13,4 C 96 % 1020,3 hPa 0,0 l/m 0,6 km/h S 190 0 min 0,000 mm 0,0 UV-I 0 W/m 12,8 C 13,4 C 1,9 km/h 100,00 %
27.09.2021 23:37 13,4 C 96 % 1020,3 hPa 0,0 l/m 0,6 km/h S 190 0 min 0,000 mm 0,0 UV-I 0 W/m 12,8 C 13,4 C 1,9 km/h 100,00 %
27.09.2021 23:36 13,4 C 96 % 1020,3 hPa 0,0 l/m 0,9 km/h S 190 0 min 0,000 mm 0,0 UV-I 0 W/m 12,8 C 13,4 C 1,9 km/h 100,00 %
27.09.2021 23:35 13,4 C 96 % 1020,3 hPa 0,0 l/m 1,4 km/h S 190 0 min 0,000 mm 0,0 UV-I 0 W/m 12,8 C 13,4 C 3,8 km/h 100,00 %
27.09.2021 23:34 13,4 C 96 % 1020,3 hPa 0,0 l/m 1,1 km/h S 190 0 min 0,000 mm 0,0 UV-I 0 W/m 12,8 C 13,4 C 3,8 km/h 100,00 %
27.09.2021 23:33 13,4 C 96 % 1020,3 hPa 0,0 l/m 1,2 km/h S 190 0 min 0,000 mm 0,0 UV-I 0 W/m 12,8 C 13,4 C 3,8 km/h 96,00 %
27.09.2021 23:32 13,4 C 96 % 1020,3 hPa 0,0 l/m 1,1 km/h S 190 0 min 0,000 mm 0,0 UV-I 0 W/m 12,8 C 13,4 C 3,8 km/h 100,00 %
27.09.2021 23:31 13,4 C 96 % 1020,2 hPa 0,0 l/m 1,8 km/h S 190 0 min 0,000 mm 0,0 UV-I 0 W/m 12,8 C 13,4 C 3,8 km/h 100,00 %
27.09.2021 23:30 13,4 C 96 % 1020,2 hPa 0,0 l/m 1,3 km/h S 190 0 min 0,000 mm 0,0 UV-I 0 W/m 12,8 C 13,4 C 3,8 km/h 100,00 %
27.09.2021 23:29 13,4 C 96 % 1020,2 hPa 0,0 l/m 1,3 km/h S 190 0 min 0,000 mm 0,0 UV-I 0 W/m 12,8 C 13,4 C 1,9 km/h 100,00 %
27.09.2021 23:28 13,4 C 96 % 1020,1 hPa 0,0 l/m 0,9 km/h S 190 0 min 0,000 mm 0,0 UV-I 0 W/m 12,8 C 13,4 C 1,9 km/h 100,00 %
27.09.2021 23:27 13,4 C 96 % 1020,2 hPa 0,0 l/m 2,0 km/h S 190 0 min 0,000 mm 0,0 UV-I 0 W/m 12,8 C 13,4 C 3,8 km/h 100,00 %
27.09.2021 23:26 13,4 C 96 % 1020,1 hPa 0,0 l/m 0,8 km/h S 190 0 min 0,000 mm 0,0 UV-I 0 W/m 12,8 C 13,4 C 1,9 km/h 100,00 %
27.09.2021 23:25 13,4 C 96 % 1020,1 hPa 0,0 l/m 1,3 km/h S 190 0 min 0,000 mm 0,0 UV-I 0 W/m 12,8 C 13,4 C 1,9 km/h 100,00 %
27.09.2021 23:24 13,4 C 96 % 1020,1 hPa 0,0 l/m 1,0 km/h S 190 0 min 0,000 mm 0,0 UV-I 0 W/m 12,8 C 13,4 C 3,8 km/h 100,00 %
27.09.2021 23:23 13,4 C 96 % 1020,1 hPa 0,0 l/m 0,0 km/h S 190 0 min 0,000 mm 0,0 UV-I 0 W/m 12,8 C 13,4 C 0,0 km/h 100,00 %
27.09.2021 23:22 13,4 C 96 % 1020,1 hPa 0,0 l/m 0,3 km/h S 190 0 min 0,000 mm 0,0 UV-I 0 W/m 12,8 C 13,4 C 1,9 km/h 100,00 %
27.09.2021 23:21 13,4 C 96 % 1020,1 hPa 0,0 l/m 0,1 km/h S 190 0 min 0,000 mm 0,0 UV-I 0 W/m 12,8 C 13,4 C 1,9 km/h 100,00 %
27.09.2021 23:20 13,4 C 96 % 1020,1 hPa 0,0 l/m 0,8 km/h S 190 0 min 0,000 mm 0,0 UV-I 0 W/m 12,8 C 13,4 C 1,9 km/h 100,00 %
27.09.2021 23:19 13,4 C 96 % 1020,0 hPa 0,0 l/m 0,0 km/h S 190 0 min 0,000 mm 0,0 UV-I 0 W/m 12,8 C 13,4 C 0,0 km/h 100,00 %
27.09.2021 23:18 13,5 C 96 % 1020,0 hPa 0,0 l/m 0,2 km/h S 190 0 min 0,000 mm 0,0 UV-I 0 W/m 12,9 C 13,5 C 1,9 km/h 100,00 %
27.09.2021 23:17 13,4 C 96 % 1020,0 hPa 0,0 l/m 0,8 km/h S 190 0 min 0,000 mm 0,0 UV-I 0 W/m 12,8 C 13,4 C 1,9 km/h 96,15 %
27.09.2021 23:16 13,4 C 96 % 1020,0 hPa 0,0 l/m 0,3 km/h S 190 0 min 0,000 mm 0,0 UV-I 0 W/m 12,8 C 13,4 C 1,9 km/h 100,00 %
27.09.2021 23:15 13,4 C 96 % 1020,0 hPa 0,0 l/m 0,2 km/h S 190 0 min 0,000 mm 0,0 UV-I 0 W/m 12,8 C 13,4 C 1,9 km/h 100,00 %
27.09.2021 23:14 13,5 C 96 % 1020,0 hPa 0,0 l/m 1,1 km/h S 190 0 min 0,000 mm 0,0 UV-I 0 W/m 12,9 C 13,5 C 1,9 km/h 100,00 %
27.09.2021 23:13 13,4 C 96 % 1019,9 hPa 0,0 l/m 1,5 km/h S 190 0 min 0,000 mm 0,0 UV-I 0 W/m 12,8 C 13,4 C 3,8 km/h 100,00 %
27.09.2021 23:12 13,4 C 96 % 1019,9 hPa 0,0 l/m 1,3 km/h S 190 0 min 0,000 mm 0,0 UV-I 0 W/m 12,8 C 13,4 C 1,9 km/h 100,00 %
27.09.2021 23:11 13,4 C 96 % 1019,9 hPa 0,0 l/m 1,0 km/h S 190 0 min 0,000 mm 0,0 UV-I 0 W/m 12,8 C 13,4 C 1,9 km/h 100,00 %
27.09.2021 23:10 13,4 C 96 % 1019,9 hPa 0,0 l/m 2,3 km/h S 190 0 min 0,000 mm 0,0 UV-I 0 W/m 12,8 C 13,4 C 3,8 km/h 100,00 %
27.09.2021 23:09 13,4 C 96 % 1019,9 hPa 0,0 l/m 1,0 km/h S 190 0 min 0,000 mm 0,0 UV-I 0 W/m 12,8 C 13,4 C 1,9 km/h 100,00 %
27.09.2021 23:08 13,5 C 96 % 1019,9 hPa 0,0 l/m 1,2 km/h S 190 0 min 0,000 mm 0,0 UV-I 0 W/m 12,9 C 13,5 C 3,8 km/h 95,83 %
27.09.2021 23:07 13,5 C 96 % 1019,9 hPa 0,0 l/m 0,3 km/h S 190 0 min 0,000 mm 0,0 UV-I 0 W/m 12,9 C 13,5 C 1,9 km/h 100,00 %
27.09.2021 23:06 13,5 C 96 % 1019,9 hPa 0,0 l/m 1,3 km/h S 190 0 min 0,000 mm 0,0 UV-I 0 W/m 12,9 C 13,5 C 1,9 km/h 100,00 %
27.09.2021 23:05 13,4 C 96 % 1019,8 hPa 0,0 l/m 1,4 km/h S 190 0 min 0,000 mm 0,0 UV-I 0 W/m 12,8 C 13,4 C 1,9 km/h 100,00 %
27.09.2021 23:04 13,4 C 96 % 1019,8 hPa 0,0 l/m 2,3 km/h S 190 0 min 0,000 mm 0,0 UV-I 0 W/m 12,8 C 13,4 C 3,8 km/h 91,67 %
27.09.2021 23:03 13,4 C 96 % 1019,8 hPa 0,0 l/m 1,4 km/h S 190 0 min 0,000 mm 0,0 UV-I 0 W/m 12,8 C 13,4 C 3,8 km/h 100,00 %
27.09.2021 23:02 13,4 C 96 % 1019,8 hPa 0,0 l/m 0,9 km/h S 190 0 min 0,000 mm 0,0 UV-I 0 W/m 12,8 C 13,4 C 3,8 km/h 100,00 %
27.09.2021 23:01 13,4 C 96 % 1019,8 hPa 0,0 l/m 3,3 km/h S 190 0 min 0,000 mm 0,0 UV-I 0 W/m 12,8 C 13,4 C 5,7 km/h 100,00 %
27.09.2021 23:00 13,4 C 96 % 1019,8 hPa 0,0 l/m 2,4 km/h S 190 0 min 0,000 mm 0,0 UV-I 0 W/m 12,8 C 13,4 C 3,8 km/h 96,15 %
27.09.2021 22:59 13,4 C 96 % 1019,7 hPa 0,0 l/m 0,3 km/h S 190 0 min 0,000 mm 0,0 UV-I 0 W/m 12,8 C 13,4 C 1,9 km/h 100,00 %
27.09.2021 22:58 13,4 C 96 % 1019,7 hPa 0,0 l/m 0,8 km/h S 190 0 min 0,000 mm 0,0 UV-I 0 W/m 12,8 C 13,4 C 1,9 km/h 100,00 %
27.09.2021 22:57 13,4 C 96 % 1019,7 hPa 0,0 l/m 0,6 km/h S 190 0 min 0,000 mm 0,0 UV-I 0 W/m 12,8 C 13,4 C 3,8 km/h 100,00 %
27.09.2021 22:56 13,4 C 96 % 1019,7 hPa 0,0 l/m 0,2 km/h S 190 0 min 0,000 mm 0,0 UV-I 0 W/m 12,8 C 13,4 C 1,9 km/h 100,00 %
27.09.2021 22:55 13,4 C 95 % 1019,7 hPa 0,0 l/m 0,1 km/h S 190 0 min 0,000 mm 0,0 UV-I 0 W/m 12,6 C 13,4 C 1,9 km/h 100,00 %
27.09.2021 22:54 13,4 C 95 % 1019,7 hPa 0,0 l/m 0,1 km/h S 190 0 min 0,000 mm 0,0 UV-I 0 W/m 12,6 C 13,4 C 1,9 km/h 100,00 %
27.09.2021 22:53 13,4 C 95 % 1019,7 hPa 0,0 l/m 0,2 km/h S 190 0 min 0,000 mm 0,0 UV-I 0 W/m 12,6 C 13,4 C 1,9 km/h 100,00 %
27.09.2021 22:52 13,4 C 95 % 1019,6 hPa 0,0 l/m 0,2 km/h S 190 0 min 0,000 mm 0,0 UV-I 0 W/m 12,6 C 13,4 C 1,9 km/h 100,00 %
27.09.2021 22:51 13,4 C 95 % 1019,6 hPa 0,0 l/m 0,9 km/h S 190 0 min 0,000 mm 0,0 UV-I 0 W/m 12,6 C 13,4 C 3,8 km/h 100,00 %
27.09.2021 22:50 13,4 C 95 % 1019,6 hPa 0,0 l/m 0,2 km/h S 190 0 min 0,000 mm 0,0 UV-I 0 W/m 12,6 C 13,4 C 1,9 km/h 100,00 %
27.09.2021 22:49 13,4 C 95 % 1019,6 hPa 0,0 l/m 0,2 km/h S 190 0 min 0,000 mm 0,0 UV-I 0 W/m 12,6 C 13,4 C 1,9 km/h 100,00 %
27.09.2021 22:48 13,4 C 95 % 1019,6 hPa 0,0 l/m 0,2 km/h S 190 0 min 0,000 mm 0,0 UV-I 0 W/m 12,6 C 13,4 C 1,9 km/h 100,00 %
27.09.2021 22:47 13,5 C 95 % 1019,6 hPa 0,0 l/m 0,8 km/h S 190 0 min 0,000 mm 0,0 UV-I 0 W/m 12,7 C 13,5 C 1,9 km/h 100,00 %
27.09.2021 22:46 13,5 C 95 % 1019,5 hPa 0,0 l/m 0,0 km/h S 190 0 min 0,000 mm 0,0 UV-I 0 W/m 12,7 C 13,5 C 0,0 km/h 96,88 %
27.09.2021 22:45 13,5 C 95 % 1019,5 hPa 0,0 l/m 0,2 km/h S 190 0 min 0,000 mm 0,0 UV-I 0 W/m 12,7 C 13,5 C 1,9 km/h 100,00 %
27.09.2021 22:44 13,5 C 95 % 1019,5 hPa 0,0 l/m 0,6 km/h S 190 0 min 0,000 mm 0,0 UV-I 0 W/m 12,7 C 13,5 C 1,9 km/h 100,00 %
27.09.2021 22:43 13,6 C 95 % 1019,5 hPa 0,0 l/m 0,0 km/h S 190 0 min 0,000 mm 0,0 UV-I 0 W/m 12,8 C 13,6 C 0,0 km/h 100,00 %
27.09.2021 22:42 13,6 C 95 % 1019,5 hPa 0,0 l/m 0,1 km/h S 190 0 min 0,000 mm 0,0 UV-I 0 W/m 12,8 C 13,6 C 1,9 km/h 100,00 %
27.09.2021 22:41 13,6 C 95 % 1019,5 hPa 0,0 l/m 0,8 km/h S 190 0 min 0,000 mm 0,0 UV-I 0 W/m 12,8 C 13,6 C 1,9 km/h 100,00 %
27.09.2021 22:40 13,6 C 95 % 1019,5 hPa 0,0 l/m 0,7 km/h S 190 0 min 0,000 mm 0,0 UV-I 0 W/m 12,8 C 13,6 C 1,9 km/h 100,00 %
27.09.2021 22:39 13,6 C 95 % 1019,4 hPa 0,0 l/m 0,4 km/h S 190 0 min 0,000 mm 0,0 UV-I 0 W/m 12,8 C 13,6 C 1,9 km/h 100,00 %
27.09.2021 22:38 13,7 C 95 % 1019,4 hPa 0,0 l/m 0,4 km/h S 190 0 min 0,000 mm 0,0 UV-I 0 W/m 12,9 C 13,7 C 1,9 km/h 100,00 %
27.09.2021 22:37 13,6 C 95 % 1019,4 hPa 0,0 l/m 1,2 km/h S 190 0 min 0,000 mm 0,0 UV-I 0 W/m 12,8 C 13,6 C 1,9 km/h 95,65 %
27.09.2021 22:36 13,6 C 95 % 1019,4 hPa 0,0 l/m 0,3 km/h S 190 0 min 0,000 mm 0,0 UV-I 0 W/m 12,8 C 13,6 C 1,9 km/h 100,00 %
27.09.2021 22:35 13,6 C 95 % 1019,4 hPa 0,0 l/m 0,8 km/h S 190 0 min 0,000 mm 0,0 UV-I 0 W/m 12,8 C 13,6 C 1,9 km/h 100,00 %
27.09.2021 22:34 13,7 C 95 % 1019,3 hPa 0,0 l/m 1,8 km/h S 190 0 min 0,000 mm 0,0 UV-I 0 W/m 12,9 C 13,7 C 3,8 km/h 100,00 %
27.09.2021 22:33 13,7 C 95 % 1019,3 hPa 0,0 l/m 0,2 km/h S 190 0 min 0,000 mm 0,0 UV-I 0 W/m 12,9 C 13,7 C 1,9 km/h 100,00 %
27.09.2021 22:32 13,7 C 95 % 1019,3 hPa 0,0 l/m 0,2 km/h S 190 0 min 0,000 mm 0,0 UV-I 0 W/m 12,9 C 13,7 C 1,9 km/h 100,00 %
27.09.2021 22:31 13,7 C 95 % 1019,2 hPa 0,0 l/m 0,1 km/h S 190 0 min 0,000 mm 0,0 UV-I 0 W/m 12,9 C 13,7 C 1,9 km/h 100,00 %
27.09.2021 22:30 13,7 C 95 % 1019,3 hPa 0,0 l/m 0,1 km/h S 190 0 min 0,000 mm 0,0 UV-I 0 W/m 12,9 C 13,7 C 1,9 km/h 100,00 %
27.09.2021 22:29 13,7 C 95 % 1019,2 hPa 0,0 l/m 0,0 km/h S 190 0 min 0,000 mm 0,0 UV-I 0 W/m 12,9 C 13,7 C 0,0 km/h 100,00 %
27.09.2021 22:28 13,7 C 95 % 1019,2 hPa 0,0 l/m 0,2 km/h S 190 0 min 0,000 mm 0,0 UV-I 0 W/m 12,9 C 13,7 C 1,9 km/h 100,00 %
27.09.2021 22:27 13,8 C 95 % 1019,2 hPa 0,0 l/m 0,0 km/h S 190 0 min 0,000 mm 0,0 UV-I 0 W/m 13,0 C 13,8 C 0,0 km/h 100,00 %
27.09.2021 22:26 13,8 C 95 % 1019,2 hPa 0,0 l/m 0,7 km/h S 190 0 min 0,000 mm 0,0 UV-I 0 W/m 13,0 C 13,8 C 3,8 km/h 100,00 %
27.09.2021 22:25 13,8 C 95 % 1019,2 hPa 0,0 l/m 1,1 km/h S 190 0 min 0,000 mm 0,0 UV-I 0 W/m 13,0 C 13,8 C 3,8 km/h 100,00 %
27.09.2021 22:24 13,8 C 95 % 1019,2 hPa 0,0 l/m 1,3 km/h S 190 0 min 0,000 mm 0,0 UV-I 0 W/m 13,0 C 13,8 C 3,8 km/h 100,00 %
27.09.2021 22:23 13,8 C 95 % 1019,1 hPa 0,0 l/m 1,1 km/h S 190 0 min 0,000 mm 0,0 UV-I 0 W/m 13,0 C 13,8 C 3,8 km/h 95,83 %
27.09.2021 22:22 13,9 C 95 % 1019,2 hPa 0,0 l/m 0,8 km/h S 190 0 min 0,000 mm 0,0 UV-I 0 W/m 13,1 C 13,9 C 1,9 km/h 100,00 %
27.09.2021 22:21 13,9 C 95 % 1019,1 hPa 0,0 l/m 1,1 km/h S 190 0 min 0,000 mm 0,0 UV-I 0 W/m 13,1 C 13,9 C 1,9 km/h 100,00 %
27.09.2021 22:20 13,9 C 95 % 1019,2 hPa 0,0 l/m 0,8 km/h S 190 0 min 0,000 mm 0,0 UV-I 0 W/m 13,1 C 13,9 C 1,9 km/h 100,00 %
27.09.2021 22:19 13,9 C 95 % 1019,1 hPa 0,0 l/m 0,2 km/h S 190 0 min 0,000 mm 0,0 UV-I 0 W/m 13,1 C 13,9 C 1,9 km/h 100,00 %
27.09.2021 22:18 13,9 C 95 % 1019,1 hPa 0,0 l/m 0,5 km/h S 190 0 min 0,000 mm 0,0 UV-I 0 W/m 13,1 C 13,9 C 1,9 km/h 100,00 %
27.09.2021 22:17 13,9 C 95 % 1019,1 hPa 0,0 l/m 0,4 km/h S 190 0 min 0,000 mm 0,0 UV-I 0 W/m 13,1 C 13,9 C 1,9 km/h 95,83 %
27.09.2021 22:16 13,9 C 95 % 1019,1 hPa 0,0 l/m 0,3 km/h S 190 0 min 0,000 mm 0,0 UV-I 0 W/m 13,1 C 13,9 C 1,9 km/h 100,00 %
27.09.2021 22:15 14,0 C 95 % 1019,1 hPa 0,0 l/m 0,2 km/h S 190 0 min 0,000 mm 0,0 UV-I 0 W/m 13,2 C 14,0 C 1,9 km/h 100,00 %
27.09.2021 22:14 14,0 C 95 % 1019,1 hPa 0,0 l/m 2,1 km/h S 190 0 min 0,000 mm 0,0 UV-I 0 W/m 13,2 C 14,0 C 3,8 km/h 100,00 %
27.09.2021 22:13 14,0 C 95 % 1019,0 hPa 0,0 l/m 1,4 km/h S 190 0 min 0,000 mm 0,0 UV-I 0 W/m 13,2 C 14,0 C 3,8 km/h 100,00 %
27.09.2021 22:12 14,0 C 95 % 1019,0 hPa 0,0 l/m 1,7 km/h S 190 0 min 0,000 mm 0,0 UV-I 0 W/m 13,2 C 14,0 C 3,8 km/h 100,00 %
27.09.2021 22:11 14,0 C 95 % 1019,0 hPa 0,0 l/m 2,5 km/h S 190 0 min 0,000 mm 0,0 UV-I 0 W/m 13,2 C 14,0 C 3,8 km/h 100,00 %
27.09.2021 22:10 13,9 C 95 % 1019,0 hPa 0,0 l/m 1,8 km/h S 190 0 min 0,000 mm 0,0 UV-I 0 W/m 13,1 C 13,9 C 3,8 km/h 100,00 %
27.09.2021 22:09 13,9 C 95 % 1019,0 hPa 0,0 l/m 1,6 km/h S 190 0 min 0,000 mm 0,0 UV-I 0 W/m 13,1 C 13,9 C 3,8 km/h 100,00 %
27.09.2021 22:08 13,9 C 95 % 1019,0 hPa 0,0 l/m 3,3 km/h S 190 0 min 0,000 mm 0,0 UV-I 0 W/m 13,1 C 13,9 C 5,7 km/h 100,00 %
27.09.2021 22:07 13,9 C 95 % 1019,0 hPa 0,0 l/m 2,4 km/h S-SW 206 0 min 0,000 mm 0,0 UV-I 0 W/m 13,1 C 13,9 C 5,7 km/h 100,00 %
27.09.2021 22:06 13,9 C 95 % 1018,9 hPa 0,0 l/m 1,0 km/h S-SW 206 0 min 0,000 mm 0,0 UV-I 0 W/m 13,1 C 13,9 C 1,9 km/h 100,00 %
27.09.2021 22:05 13,9 C 95 % 1019,0 hPa 0,0 l/m 1,2 km/h S-SW 206 0 min 0,000 mm 0,0 UV-I 0 W/m 13,1 C 13,9 C 1,9 km/h 100,00 %
27.09.2021 22:04 13,9 C 95 % 1018,9 hPa 0,0 l/m 0,6 km/h S-SW 206 0 min 0,000 mm 0,0 UV-I 0 W/m 13,1 C 13,9 C 3,8 km/h 100,00 %
27.09.2021 22:03 13,9 C 95 % 1018,9 hPa 0,0 l/m 0,1 km/h S-SW 206 0 min 0,000 mm 0,0 UV-I 0 W/m 13,1 C 13,9 C 1,9 km/h 91,30 %
27.09.2021 22:02 13,9 C 95 % 1018,9 hPa 0,0 l/m 1,0 km/h S-SW 206 0 min 0,000 mm 0,0 UV-I 0 W/m 13,1 C 13,9 C 1,9 km/h 100,00 %
27.09.2021 22:01 13,9 C 95 % 1018,9 hPa 0,0 l/m 0,1 km/h S-SW 206 0 min 0,000 mm 0,0 UV-I 0 W/m 13,1 C 13,9 C 1,9 km/h 90,91 %
27.09.2021 22:00 13,9 C 95 % 1018,8 hPa 0,0 l/m 0,5 km/h S-SW 206 0 min 0,000 mm 0,0 UV-I 0 W/m 13,1 C 13,9 C 1,9 km/h 100,00 %
27.09.2021 21:59 13,9 C 95 % 1018,8 hPa 0,0 l/m 1,5 km/h S-SW 206 0 min 0,000 mm 0,0 UV-I 0 W/m 13,1 C 13,9 C 3,8 km/h 100,00 %
27.09.2021 21:58 13,9 C 95 % 1018,8 hPa 0,0 l/m 1,0 km/h S-SW 206 0 min 0,000 mm 0,0 UV-I 0 W/m 13,1 C 13,9 C 3,8 km/h 100,00 %
27.09.2021 21:57 14,0 C 95 % 1018,7 hPa 0,0 l/m 0,4 km/h S-SW 206 0 min 0,000 mm 0,0 UV-I 0 W/m 13,2 C 14,0 C 1,9 km/h 100,00 %
27.09.2021 21:56 14,1 C 95 % 1018,7 hPa 0,0 l/m 0,7 km/h S-SW 206 0 min 0,000 mm 0,0 UV-I 0 W/m 13,3 C 14,1 C 1,9 km/h 100,00 %
27.09.2021 21:55 14,1 C 95 % 1018,7 hPa 0,0 l/m 0,2 km/h S-SW 206 0 min 0,000 mm 0,0 UV-I 0 W/m 13,3 C 14,1 C 1,9 km/h 100,00 %
27.09.2021 21:54 14,1 C 95 % 1018,7 hPa 0,0 l/m 0,9 km/h S-SW 206 0 min 0,000 mm 0,0 UV-I 0 W/m 13,3 C 14,1 C 1,9 km/h 100,00 %
27.09.2021 21:53 14,1 C 95 % 1018,8 hPa 0,0 l/m 0,6 km/h S-SW 206 0 min 0,000 mm 0,0 UV-I 0 W/m 13,3 C 14,1 C 3,8 km/h 99,02 %
27.09.2021 21:52 14,1 C 95 % 1018,6 hPa 0,0 l/m 0,8 km/h S-SW 206 0 min 0,000 mm 0,0 UV-I 0 W/m 13,3 C 14,1 C 1,9 km/h 95,83 %
27.09.2021 21:51 14,1 C 95 % 1018,6 hPa 0,0 l/m 2,2 km/h S-SW 206 0 min 0,000 mm 0,0 UV-I 0 W/m 13,3 C 14,1 C 5,7 km/h 100,00 %
27.09.2021 21:50 14,1 C 95 % 1018,7 hPa 0,0 l/m 0,4 km/h S-SW 206 0 min 0,000 mm 0,0 UV-I 0 W/m 13,3 C 14,1 C 1,9 km/h 100,00 %
27.09.2021 21:49 14,1 C 95 % 1018,6 hPa 0,0 l/m 0,1 km/h S-SW 206 0 min 0,000 mm 0,0 UV-I 0 W/m 13,3 C 14,1 C 1,9 km/h 100,00 %
27.09.2021 21:48 14,1 C 95 % 1018,6 hPa 0,0 l/m 0,6 km/h S-SW 206 0 min 0,000 mm 0,0 UV-I 0 W/m 13,3 C 14,1 C 1,9 km/h 100,00 %
27.09.2021 21:47 14,2 C 95 % 1018,6 hPa 0,0 l/m 0,3 km/h S-SW 206 0 min 0,000 mm 0,0 UV-I 0 W/m 13,4 C 14,2 C 1,9 km/h 100,00 %
27.09.2021 21:46 14,2 C 95 % 1018,6 hPa 0,0 l/m 1,5 km/h S-SW 206 0 min 0,000 mm 0,0 UV-I 0 W/m 13,4 C 14,2 C 3,8 km/h 100,00 %
27.09.2021 21:45 14,2 C 95 % 1018,5 hPa 0,0 l/m 1,1 km/h S-SW 206 0 min 0,000 mm 0,0 UV-I 0 W/m 13,4 C 14,2 C 3,8 km/h 100,00 %
27.09.2021 21:44 14,2 C 95 % 1018,6 hPa 0,0 l/m 3,0 km/h S-SW 206 0 min 0,000 mm 0,0 UV-I 0 W/m 13,4 C 14,2 C 3,8 km/h 100,00 %
27.09.2021 21:43 14,2 C 95 % 1018,5 hPa 0,0 l/m 0,8 km/h S-SW 206 0 min 0,000 mm 0,0 UV-I 0 W/m 13,4 C 14,2 C 3,8 km/h 100,00 %
27.09.2021 21:42 14,2 C 95 % 1018,5 hPa 0,0 l/m 0,7 km/h S-SW 206 0 min 0,000 mm 0,0 UV-I 0 W/m 13,4 C 14,2 C 1,9 km/h 95,65 %
27.09.2021 21:41 14,2 C 95 % 1018,5 hPa 0,0 l/m 0,4 km/h S-SW 206 0 min 0,000 mm 0,0 UV-I 0 W/m 13,4 C 14,2 C 1,9 km/h 100,00 %
27.09.2021 21:40 14,2 C 95 % 1018,5 hPa 0,0 l/m 2,1 km/h S-SW 206 0 min 0,000 mm 0,0 UV-I 0 W/m 13,4 C 14,2 C 3,8 km/h 95,65 %
27.09.2021 21:39 14,2 C 95 % 1018,5 hPa 0,0 l/m 1,4 km/h S-SW 206 0 min 0,000 mm 0,0 UV-I 0 W/m 13,4 C 14,2 C 3,8 km/h 100,00 %
27.09.2021 21:38 14,2 C 95 % 1018,5 hPa 0,0 l/m 1,3 km/h S-SW 206 0 min 0,000 mm 0,0 UV-I 0 W/m 13,4 C 14,2 C 1,9 km/h 100,00 %
27.09.2021 21:37 14,3 C 95 % 1018,4 hPa 0,0 l/m 1,8 km/h S-SW 206 0 min 0,000 mm 0,0 UV-I 0 W/m 13,5 C 14,3 C 3,8 km/h 100,00 %
27.09.2021 21:36 14,3 C 95 % 1018,4 hPa 0,0 l/m 0,6 km/h S-SW 206 0 min 0,000 mm 0,0 UV-I 0 W/m 13,5 C 14,3 C 3,8 km/h 100,00 %
27.09.2021 21:35 14,3 C 95 % 1018,4 hPa 0,0 l/m 1,7 km/h S-SW 206 0 min 0,000 mm 0,0 UV-I 0 W/m 13,5 C 14,3 C 5,7 km/h 100,00 %
27.09.2021 21:34 14,3 C 94 % 1018,4 hPa 0,0 l/m 0,3 km/h S-SW 206 0 min 0,000 mm 0,0 UV-I 0 W/m 13,3 C 14,3 C 1,9 km/h 100,00 %
27.09.2021 21:33 14,3 C 94 % 1018,4 hPa 0,0 l/m 2,3 km/h S-SW 206 0 min 0,000 mm 0,0 UV-I 0 W/m 13,3 C 14,3 C 3,8 km/h 100,00 %
27.09.2021 21:32 14,3 C 94 % 1018,4 hPa 0,0 l/m 2,2 km/h S-SW 206 0 min 0,000 mm 0,0 UV-I 0 W/m 13,3 C 14,3 C 3,8 km/h 100,00 %
27.09.2021 21:31 14,3 C 94 % 1018,3 hPa 0,0 l/m 1,7 km/h S-SW 206 0 min 0,000 mm 0,0 UV-I 0 W/m 13,3 C 14,3 C 5,7 km/h 100,00 %
27.09.2021 21:30 14,3 C 94 % 1018,3 hPa 0,0 l/m 0,6 km/h S-SW 206 0 min 0,000 mm 0,0 UV-I 0 W/m 13,3 C 14,3 C 1,9 km/h 100,00 %
27.09.2021 21:29 14,3 C 94 % 1018,3 hPa 0,0 l/m 1,2 km/h S-SW 206 0 min 0,000 mm 0,0 UV-I 0 W/m 13,3 C 14,3 C 3,8 km/h 100,00 %
27.09.2021 21:28 14,4 C 94 % 1018,2 hPa 0,0 l/m 0,6 km/h S-SW 206 0 min 0,000 mm 0,0 UV-I 0 W/m 13,4 C 14,4 C 1,9 km/h 100,00 %
27.09.2021 21:27 14,4 C 94 % 1018,3 hPa 0,0 l/m 1,5 km/h S-SW 206 0 min 0,000 mm 0,0 UV-I 0 W/m 13,4 C 14,4 C 3,8 km/h 96,15 %
27.09.2021 21:26 14,4 C 94 % 1018,3 hPa 0,0 l/m 0,9 km/h S-SW 206 0 min 0,000 mm 0,0 UV-I 0 W/m 13,4 C 14,4 C 1,9 km/h 100,00 %
27.09.2021 21:25 14,4 C 94 % 1018,2 hPa 0,0 l/m 2,2 km/h S-SW 206 0 min 0,000 mm 0,0 UV-I 0 W/m 13,4 C 14,4 C 3,8 km/h 100,00 %
27.09.2021 21:24 14,4 C 94 % 1018,2 hPa 0,0 l/m 3,6 km/h S-SW 206 0 min 0,000 mm 0,0 UV-I 0 W/m 13,4 C 14,4 C 5,7 km/h 100,00 %
27.09.2021 21:23 14,4 C 94 % 1018,2 hPa 0,0 l/m 3,1 km/h S-SW 209 0 min 0,000 mm 0,0 UV-I 0 W/m 13,4 C 14,4 C 7,7 km/h 95,65 %
27.09.2021 21:22 14,4 C 94 % 1018,1 hPa 0,0 l/m 1,0 km/h S-SW 209 0 min 0,000 mm 0,0 UV-I 0 W/m 13,4 C 14,4 C 1,9 km/h 100,00 %
27.09.2021 21:21 14,5 C 94 % 1018,1 hPa 0,0 l/m 2,2 km/h S-SW 209 0 min 0,000 mm 0,0 UV-I 0 W/m 13,5 C 14,5 C 5,7 km/h 100,00 %
27.09.2021 21:20 14,5 C 94 % 1018,1 hPa 0,0 l/m 1,6 km/h S-SW 209 0 min 0,000 mm 0,0 UV-I 0 W/m 13,5 C 14,5 C 3,8 km/h 100,00 %
27.09.2021 21:19 14,5 C 94 % 1018,1 hPa 0,0 l/m 2,9 km/h S-SW 209 0 min 0,000 mm 0,0 UV-I 0 W/m 13,5 C 14,5 C 7,7 km/h 100,00 %
27.09.2021 21:18 14,5 C 94 % 1018,1 hPa 0,0 l/m 4,1 km/h S-SW 210 0 min 0,000 mm 0,0 UV-I 0 W/m 13,5 C 14,5 C 7,7 km/h 100,00 %
27.09.2021 21:17 14,5 C 94 % 1018,0 hPa 0,0 l/m 3,5 km/h S 190 0 min 0,000 mm 0,0 UV-I 0 W/m 13,5 C 14,5 C 7,7 km/h 95,65 %
27.09.2021 21:16 14,5 C 94 % 1018,0 hPa 0,0 l/m 2,4 km/h S 190 0 min 0,000 mm 0,0 UV-I 0 W/m 13,5 C 14,5 C 5,7 km/h 100,00 %
27.09.2021 21:15 14,5 C 94 % 1018,0 hPa 0,0 l/m 3,7 km/h S 181 0 min 0,000 mm 0,0 UV-I 0 W/m 13,5 C 14,5 C 5,7 km/h 100,00 %
27.09.2021 21:14 14,5 C 94 % 1018,0 hPa 0,0 l/m 3,1 km/h S 181 0 min 0,000 mm 0,0 UV-I 0 W/m 13,5 C 14,5 C 5,7 km/h 95,83 %
27.09.2021 21:13 14,5 C 94 % 1017,9 hPa 0,0 l/m 3,8 km/h S 181 0 min 0,000 mm 0,0 UV-I 0 W/m 13,5 C 14,5 C 7,7 km/h 100,00 %
27.09.2021 21:12 14,5 C 94 % 1017,9 hPa 0,0 l/m 3,1 km/h S 181 0 min 0,000 mm 0,0 UV-I 0 W/m 13,5 C 14,5 C 5,7 km/h 100,00 %
27.09.2021 21:11 14,5 C 94 % 1017,9 hPa 0,0 l/m 3,9 km/h S 181 0 min 0,000 mm 0,0 UV-I 0 W/m 13,5 C 14,5 C 5,7 km/h 100,00 %
27.09.2021 21:10 14,5 C 94 % 1017,9 hPa 0,0 l/m 1,4 km/h S 181 0 min 0,000 mm 0,0 UV-I 0 W/m 13,5 C 14,5 C 5,7 km/h 100,00 %
27.09.2021 21:09 14,5 C 94 % 1017,8 hPa 0,0 l/m 2,2 km/h S 180 0 min 0,000 mm 0,0 UV-I 0 W/m 13,5 C 14,5 C 5,7 km/h 100,00 %
27.09.2021 21:08 14,6 C 94 % 1017,8 hPa 0,0 l/m 0,8 km/h S 182 0 min 0,000 mm 0,0 UV-I 0 W/m 13,6 C 14,6 C 3,8 km/h 100,00 %
27.09.2021 21:07 14,6 C 94 % 1017,8 hPa 0,0 l/m 0,2 km/h S 182 0 min 0,000 mm 0,0 UV-I 0 W/m 13,6 C 14,6 C 1,9 km/h 100,00 %
27.09.2021 21:06 14,6 C 94 % 1017,8 hPa 0,0 l/m 2,8 km/h S 182 0 min 0,000 mm 0,0 UV-I 0 W/m 13,6 C 14,6 C 5,7 km/h 100,00 %
27.09.2021 21:05 14,6 C 94 % 1017,9 hPa 0,0 l/m 0,8 km/h S 182 0 min 0,000 mm 0,0 UV-I 0 W/m 13,6 C 14,6 C 3,8 km/h 100,00 %
27.09.2021 21:04 14,6 C 94 % 1017,8 hPa 0,0 l/m 1,5 km/h S 182 0 min 0,000 mm 0,0 UV-I 0 W/m 13,6 C 14,6 C 5,7 km/h 100,00 %
27.09.2021 21:03 14,6 C 94 % 1017,8 hPa 0,0 l/m 1,3 km/h S 182 0 min 0,000 mm 0,0 UV-I 0 W/m 13,6 C 14,6 C 3,8 km/h 100,00 %
27.09.2021 21:02 14,6 C 94 % 1017,8 hPa 0,0 l/m 0,9 km/h S 182 0 min 0,000 mm 0,0 UV-I 0 W/m 13,6 C 14,6 C 1,9 km/h 100,00 %
27.09.2021 21:01 14,6 C 94 % 1017,7 hPa 0,0 l/m 2,2 km/h S 182 0 min 0,000 mm 0,0 UV-I 0 W/m 13,6 C 14,6 C 3,8 km/h 100,00 %
27.09.2021 21:00 14,6 C 94 % 1017,7 hPa 0,0 l/m 0,9 km/h S 182 0 min 0,000 mm 0,0 UV-I 0 W/m 13,6 C 14,6 C 3,8 km/h 100,00 %
27.09.2021 20:59 14,6 C 94 % 1017,7 hPa 0,0 l/m 0,4 km/h S 182 0 min 0,000 mm 0,0 UV-I 0 W/m 13,6 C 14,6 C 1,9 km/h 100,00 %
27.09.2021 20:58 14,7 C 94 % 1017,6 hPa 0,0 l/m 1,5 km/h S 182 0 min 0,000 mm 0,0 UV-I 0 W/m 13,7 C 14,7 C 3,8 km/h 100,00 %
27.09.2021 20:57 14,7 C 94 % 1017,7 hPa 0,0 l/m 0,7 km/h S 182 0 min 0,000 mm 0,0 UV-I 0 W/m 13,7 C 14,7 C 1,9 km/h 100,00 %
27.09.2021 20:56 14,7 C 94 % 1017,6 hPa 0,0 l/m 1,1 km/h S 182 0 min 0,000 mm 0,0 UV-I 0 W/m 13,7 C 14,7 C 3,8 km/h 100,00 %
27.09.2021 20:55 14,7 C 94 % 1017,5 hPa 0,0 l/m 0,8 km/h S 182 0 min 0,000 mm 0,0 UV-I 0 W/m 13,7 C 14,7 C 1,9 km/h 100,00 %
27.09.2021 20:54 14,7 C 93 % 1017,5 hPa 0,0 l/m 1,0 km/h S 182 0 min 0,000 mm 0,0 UV-I 0 W/m 13,6 C 14,7 C 1,9 km/h 95,65 %
27.09.2021 20:53 14,7 C 93 % 1017,5 hPa 0,0 l/m 1,1 km/h S 182 0 min 0,000 mm 0,0 UV-I 0 W/m 13,6 C 14,7 C 3,8 km/h 100,00 %
27.09.2021 20:52 14,7 C 93 % 1017,5 hPa 0,0 l/m 1,3 km/h S 182 0 min 0,000 mm 0,0 UV-I 0 W/m 13,6 C 14,7 C 3,8 km/h 100,00 %
27.09.2021 20:51 14,7 C 93 % 1017,5 hPa 0,0 l/m 1,9 km/h S 182 0 min 0,000 mm 0,0 UV-I 0 W/m 13,6 C 14,7 C 3,8 km/h 100,00 %
27.09.2021 20:50 14,8 C 93 % 1017,4 hPa 0,0 l/m 0,6 km/h S 182 0 min 0,000 mm 0,0 UV-I 0 W/m 13,7 C 14,8 C 1,9 km/h 100,00 %
27.09.2021 20:49 14,8 C 94 % 1017,4 hPa 0,0 l/m 1,4 km/h S 182 0 min 0,000 mm 0,0 UV-I 0 W/m 13,8 C 14,8 C 3,8 km/h 100,00 %
27.09.2021 20:48 14,8 C 94 % 1017,4 hPa 0,0 l/m 1,6 km/h S 182 0 min 0,000 mm 0,0 UV-I 0 W/m 13,8 C 14,8 C 3,8 km/h 100,00 %
27.09.2021 20:47 14,8 C 94 % 1017,4 hPa 0,0 l/m 0,5 km/h S 182 0 min 0,000 mm 0,0 UV-I 0 W/m 13,8 C 14,8 C 1,9 km/h 100,00 %
27.09.2021 20:46 14,8 C 94 % 1017,4 hPa 0,0 l/m 1,4 km/h S 182 0 min 0,000 mm 0,0 UV-I 0 W/m 13,8 C 14,8 C 3,8 km/h 100,00 %
27.09.2021 20:45 14,8 C 93 % 1017,3 hPa 0,0 l/m 1,0 km/h S 182 0 min 0,000 mm 0,0 UV-I 0 W/m 13,7 C 14,8 C 3,8 km/h 100,00 %
27.09.2021 20:44 14,8 C 93 % 1017,4 hPa 0,0 l/m 0,1 km/h S 182 0 min 0,000 mm 0,0 UV-I 0 W/m 13,7 C 14,8 C 1,9 km/h 100,00 %
27.09.2021 20:43 14,8 C 93 % 1017,3 hPa 0,0 l/m 0,3 km/h S 182 0 min 0,000 mm 0,0 UV-I 0 W/m 13,7 C 14,8 C 1,9 km/h 95,65 %
27.09.2021 20:42 14,9 C 93 % 1017,3 hPa 0,0 l/m 0,4 km/h S 182 0 min 0,000 mm 0,0 UV-I 0 W/m 13,8 C 14,9 C 1,9 km/h 100,00 %
27.09.2021 20:41 14,9 C 93 % 1017,3 hPa 0,0 l/m 0,6 km/h S 182 0 min 0,000 mm 0,0 UV-I 0 W/m 13,8 C 14,9 C 1,9 km/h 100,00 %
27.09.2021 20:40 14,9 C 93 % 1017,3 hPa 0,0 l/m 0,1 km/h S 182 0 min 0,000 mm 0,0 UV-I 0 W/m 13,8 C 14,9 C 1,9 km/h 100,00 %
27.09.2021 20:39 14,9 C 93 % 1017,3 hPa 0,0 l/m 0,5 km/h S 182 0 min 0,000 mm 0,0 UV-I 0 W/m 13,8 C 14,9 C 1,9 km/h 100,00 %
27.09.2021 20:38 14,9 C 93 % 1017,3 hPa 0,0 l/m 1,3 km/h S 182 0 min 0,000 mm 0,0 UV-I 0 W/m 13,8 C 14,9 C 3,8 km/h 100,00 %
27.09.2021 20:37 14,9 C 93 % 1017,2 hPa 0,0 l/m 1,1 km/h S 182 0 min 0,000 mm 0,0 UV-I 0 W/m 13,8 C 14,9 C 3,8 km/h 100,00 %
27.09.2021 20:36 15,0 C 93 % 1017,2 hPa 0,0 l/m 1,4 km/h S 182 0 min 0,000 mm 0,0 UV-I 0 W/m 13,9 C 15,0 C 3,8 km/h 100,00 %
27.09.2021 20:35 15,0 C 93 % 1017,2 hPa 0,0 l/m 1,6 km/h S 182 0 min 0,000 mm 0,0 UV-I 0 W/m 13,9 C 15,0 C 3,8 km/h 100,00 %
27.09.2021 20:34 15,0 C 93 % 1017,2 hPa 0,0 l/m 2,3 km/h S 182 0 min 0,000 mm 0,0 UV-I 0 W/m 13,9 C 15,0 C 5,7 km/h 100,00 %
27.09.2021 20:33 15,0 C 93 % 1017,1 hPa 0,0 l/m 2,6 km/h S 182 0 min 0,000 mm 0,0 UV-I 0 W/m 13,9 C 15,0 C 7,7 km/h 100,00 %
27.09.2021 20:32 15,1 C 93 % 1017,1 hPa 0,0 l/m 1,2 km/h S 182 0 min 0,000 mm 0,0 UV-I 0 W/m 14,0 C 15,1 C 5,7 km/h 95,83 %
27.09.2021 20:31 15,1 C 93 % 1017,2 hPa 0,0 l/m 1,4 km/h S 182 0 min 0,000 mm 0,0 UV-I 0 W/m 14,0 C 15,1 C 1,9 km/h 100,00 %
27.09.2021 20:30 15,1 C 93 % 1017,2 hPa 0,0 l/m 2,2 km/h S 182 0 min 0,000 mm 0,0 UV-I 0 W/m 14,0 C 15,1 C 5,7 km/h 100,00 %
27.09.2021 20:29 15,1 C 93 % 1017,2 hPa 0,0 l/m 2,6 km/h S 182 0 min 0,000 mm 0,0 UV-I 0 W/m 14,0 C 15,1 C 5,7 km/h 100,00 %
27.09.2021 20:28 15,1 C 93 % 1017,2 hPa 0,0 l/m 1,9 km/h S 182 0 min 0,000 mm 0,0 UV-I 0 W/m 14,0 C 15,1 C 3,8 km/h 96,15 %
27.09.2021 20:27 15,1 C 93 % 1017,1 hPa 0,0 l/m 3,1 km/h S 182 0 min 0,000 mm 0,0 UV-I 0 W/m 14,0 C 15,1 C 7,7 km/h 100,00 %
27.09.2021 20:26 15,2 C 93 % 1017,1 hPa 0,0 l/m 1,1 km/h S 182 0 min 0,000 mm 0,0 UV-I 0 W/m 14,1 C 15,2 C 1,9 km/h 95,65 %
27.09.2021 20:25 15,2 C 93 % 1017,1 hPa 0,0 l/m 1,0 km/h S 182 0 min 0,000 mm 0,0 UV-I 0 W/m 14,1 C 15,2 C 3,8 km/h 100,00 %
27.09.2021 20:24 15,2 C 93 % 1017,0 hPa 0,0 l/m 2,2 km/h S 182 0 min 0,000 mm 0,0 UV-I 0 W/m 14,1 C 15,2 C 5,7 km/h 100,00 %
27.09.2021 20:23 15,2 C 93 % 1017,1 hPa 0,0 l/m 2,2 km/h S 182 0 min 0,000 mm 0,0 UV-I 0 W/m 14,1 C 15,2 C 5,7 km/h 100,00 %
27.09.2021 20:22 15,2 C 93 % 1017,1 hPa 0,0 l/m 2,0 km/h S 182 0 min 0,000 mm 0,0 UV-I 0 W/m 14,1 C 15,2 C 3,8 km/h 100,00 %
27.09.2021 20:21 15,2 C 93 % 1017,0 hPa 0,0 l/m 1,9 km/h S 182 0 min 0,000 mm 0,0 UV-I 0 W/m 14,1 C 15,2 C 3,8 km/h 100,00 %
27.09.2021 20:20 15,2 C 93 % 1017,0 hPa 0,0 l/m 3,0 km/h S 182 0 min 0,000 mm 0,0 UV-I 0 W/m 14,1 C 15,2 C 7,7 km/h 100,00 %
27.09.2021 20:19 15,2 C 93 % 1016,9 hPa 0,0 l/m 2,7 km/h S 182 0 min 0,000 mm 0,0 UV-I 0 W/m 14,1 C 15,2 C 3,8 km/h 100,00 %
27.09.2021 20:18 15,2 C 93 % 1016,8 hPa 0,0 l/m 3,0 km/h S 181 0 min 0,000 mm 0,0 UV-I 0 W/m 14,1 C 15,2 C 3,8 km/h 100,00 %
27.09.2021 20:17 15,2 C 93 % 1016,8 hPa 0,2 l/m 1,1 km/h S 181 0 min 0,000 mm 0,0 UV-I 0 W/m 14,1 C 15,2 C 3,8 km/h 100,00 %
27.09.2021 20:16 15,2 C 93 % 1016,8 hPa 0,0 l/m 1,9 km/h S 181 0 min 0,000 mm 0,0 UV-I 0 W/m 14,1 C 15,2 C 3,8 km/h 100,00 %
27.09.2021 20:15 15,3 C 93 % 1016,7 hPa 0,0 l/m 2,1 km/h S 181 0 min 0,000 mm 0,0 UV-I 0 W/m 14,2 C 15,3 C 7,7 km/h 100,00 %
27.09.2021 20:14 15,3 C 93 % 1016,8 hPa 0,0 l/m 2,2 km/h S 180 0 min 0,000 mm 0,0 UV-I 0 W/m 14,2 C 15,3 C 3,8 km/h 100,00 %
27.09.2021 20:13 15,3 C 93 % 1016,8 hPa 0,0 l/m 3,5 km/h S 180 0 min 0,000 mm 0,0 UV-I 0 W/m 14,2 C 15,3 C 5,7 km/h 100,00 %
27.09.2021 20:12 15,3 C 93 % 1016,9 hPa 0,0 l/m 0,2 km/h S 180 0 min 0,000 mm 0,0 UV-I 0 W/m 14,2 C 15,3 C 1,9 km/h 100,00 %
27.09.2021 20:11 15,3 C 93 % 1016,9 hPa 0,0 l/m 3,4 km/h S 180 0 min 0,000 mm 0,0 UV-I 0 W/m 14,2 C 15,3 C 7,7 km/h 100,00 %
27.09.2021 20:10 15,3 C 93 % 1016,8 hPa 0,0 l/m 2,8 km/h S 181 0 min 0,000 mm 0,0 UV-I 0 W/m 14,2 C 15,3 C 5,7 km/h 100,00 %
27.09.2021 20:09 15,3 C 93 % 1016,8 hPa 0,0 l/m 1,9 km/h S 181 0 min 0,000 mm 0,0 UV-I 0 W/m 14,2 C 15,3 C 5,7 km/h 95,65 %
27.09.2021 20:08 15,3 C 93 % 1016,8 hPa 0,0 l/m 2,2 km/h S 181 0 min 0,000 mm 0,0 UV-I 0 W/m 14,2 C 15,3 C 3,8 km/h 100,00 %
27.09.2021 20:07 15,3 C 93 % 1016,8 hPa 0,0 l/m 1,0 km/h S 181 0 min 0,000 mm 0,0 UV-I 0 W/m 14,2 C 15,3 C 1,9 km/h 100,00 %
27.09.2021 20:06 15,3 C 93 % 1016,7 hPa 0,0 l/m 1,7 km/h S 181 0 min 0,000 mm 0,0 UV-I 0 W/m 14,2 C 15,3 C 3,8 km/h 100,00 %
27.09.2021 20:05 15,3 C 93 % 1016,8 hPa 0,0 l/m 1,4 km/h S 181 0 min 0,000 mm 0,0 UV-I 0 W/m 14,2 C 15,3 C 3,8 km/h 100,00 %
27.09.2021 20:04 15,3 C 93 % 1016,7 hPa 0,0 l/m 2,0 km/h S 181 0 min 0,000 mm 0,0 UV-I 0 W/m 14,2 C 15,3 C 3,8 km/h 100,00 %
27.09.2021 20:03 15,3 C 93 % 1016,8 hPa 0,0 l/m 0,2 km/h S 181 0 min 0,000 mm 0,0 UV-I 0 W/m 14,2 C 15,3 C 1,9 km/h 100,00 %
27.09.2021 20:02 15,3 C 93 % 1016,7 hPa 0,0 l/m 0,4 km/h S 181 0 min 0,000 mm 0,0 UV-I 0 W/m 14,2 C 15,3 C 1,9 km/h 100,00 %
27.09.2021 20:01 15,3 C 93 % 1016,7 hPa 0,0 l/m 2,8 km/h S 181 0 min 0,000 mm 0,0 UV-I 0 W/m 14,2 C 15,3 C 5,7 km/h 100,00 %
27.09.2021 20:00 15,3 C 93 % 1016,7 hPa 0,0 l/m 2,7 km/h S 181 0 min 0,000 mm 0,0 UV-I 0 W/m 14,2 C 15,3 C 5,7 km/h 100,00 %
27.09.2021 19:59 15,3 C 93 % 1016,7 hPa 0,0 l/m 0,6 km/h S 181 0 min 0,000 mm 0,0 UV-I 0 W/m 14,2 C 15,3 C 1,9 km/h 100,00 %
27.09.2021 19:58 15,3 C 93 % 1016,6 hPa 0,0 l/m 2,2 km/h S 181 0 min 0,000 mm 0,0 UV-I 0 W/m 14,2 C 15,3 C 3,8 km/h 100,00 %
27.09.2021 19:57 15,3 C 92 % 1016,5 hPa 0,0 l/m 2,0 km/h S 181 0 min 0,000 mm 0,0 UV-I 0 W/m 14,0 C 15,3 C 3,8 km/h 100,00 %
27.09.2021 19:56 15,3 C 92 % 1016,5 hPa 0,0 l/m 3,2 km/h S 181 0 min 0,000 mm 0,0 UV-I 0 W/m 14,0 C 15,3 C 5,7 km/h 100,00 %
27.09.2021 19:55 15,3 C 93 % 1016,5 hPa 0,0 l/m 1,2 km/h S-SW 202 0 min 0,000 mm 0,0 UV-I 0 W/m 14,2 C 15,3 C 1,9 km/h 100,00 %
27.09.2021 19:54 15,3 C 93 % 1016,5 hPa 0,0 l/m 1,1 km/h S-SW 202 0 min 0,000 mm 0,0 UV-I 0 W/m 14,2 C 15,3 C 3,8 km/h 100,00 %
27.09.2021 19:53 15,3 C 93 % 1016,6 hPa 0,0 l/m 1,4 km/h S-SW 202 0 min 0,000 mm 0,0 UV-I 0 W/m 14,2 C 15,3 C 3,8 km/h 96,55 %
27.09.2021 19:52 15,3 C 93 % 1016,6 hPa 0,0 l/m 5,6 km/h S-SW 202 0 min 0,000 mm 0,0 UV-I 0 W/m 14,2 C 15,3 C 9,6 km/h 100,00 %
27.09.2021 19:51 15,4 C 93 % 1016,6 hPa 0,0 l/m 6,1 km/h S-SW 205 0 min 0,000 mm 0,0 UV-I 0 W/m 14,3 C 15,4 C 11,5 km/h 100,00 %
27.09.2021 19:50 15,4 C 93 % 1016,6 hPa 0,0 l/m 2,3 km/h SW 215 0 min 0,000 mm 0,0 UV-I 0 W/m 14,3 C 15,4 C 7,7 km/h 100,00 %
27.09.2021 19:49 15,4 C 93 % 1016,6 hPa 0,0 l/m 3,7 km/h SW 215 0 min 0,000 mm 0,0 UV-I 0 W/m 14,3 C 15,4 C 9,6 km/h 100,00 %
27.09.2021 19:48 15,4 C 93 % 1016,5 hPa 0,0 l/m 3,6 km/h SW 215 0 min 0,000 mm 0,0 UV-I 0 W/m 14,3 C 15,4 C 7,7 km/h 100,00 %
27.09.2021 19:47 15,4 C 93 % 1016,5 hPa 0,0 l/m 1,7 km/h SW 216 0 min 0,000 mm 0,0 UV-I 0 W/m 14,3 C 15,4 C 3,8 km/h 100,00 %
27.09.2021 19:46 15,4 C 93 % 1016,4 hPa 0,0 l/m 6,5 km/h SW 216 0 min 0,000 mm 0,0 UV-I 0 W/m 14,3 C 15,4 C 9,6 km/h 100,00 %
27.09.2021 19:45 15,5 C 93 % 1016,4 hPa 0,0 l/m 4,7 km/h SW 232 0 min 0,000 mm 0,0 UV-I 0 W/m 14,4 C 15,5 C 7,7 km/h 100,00 %
27.09.2021 19:44 15,5 C 93 % 1016,4 hPa 0,0 l/m 4,2 km/h W-SW 244 0 min 0,000 mm 0,0 UV-I 0 W/m 14,4 C 15,5 C 7,7 km/h 100,00 %
27.09.2021 19:43 15,5 C 93 % 1016,4 hPa 0,0 l/m 5,3 km/h S-SW 213 0 min 0,000 mm 0,0 UV-I 0 W/m 14,4 C 15,5 C 11,5 km/h 100,00 %
27.09.2021 19:42 15,6 C 93 % 1016,5 hPa 0,0 l/m 4,6 km/h SW 220 0 min 0,000 mm 0,0 UV-I 0 W/m 14,5 C 15,6 C 9,6 km/h 100,00 %
27.09.2021 19:41 15,6 C 93 % 1016,5 hPa 0,0 l/m 5,9 km/h SW 217 0 min 0,000 mm 0,0 UV-I 0 W/m 14,5 C 15,6 C 13,4 km/h 100,00 %
27.09.2021 19:40 15,6 C 93 % 1016,5 hPa 0,0 l/m 4,5 km/h SW 234 0 min 0,000 mm 0,0 UV-I 0 W/m 14,5 C 15,6 C 9,6 km/h 100,00 %
27.09.2021 19:39 15,6 C 93 % 1016,4 hPa 0,0 l/m 3,2 km/h SW 219 0 min 0,000 mm 0,0 UV-I 0 W/m 14,5 C 15,6 C 5,7 km/h 100,00 %
27.09.2021 19:38 15,7 C 93 % 1016,5 hPa 0,0 l/m 4,8 km/h SW 219 0 min 0,000 mm 0,0 UV-I 0 W/m 14,6 C 15,7 C 7,7 km/h 100,00 %
27.09.2021 19:37 15,7 C 93 % 1016,4 hPa 0,0 l/m 5,5 km/h SW 220 0 min 0,000 mm 0,0 UV-I 0 W/m 14,6 C 15,7 C 7,7 km/h 100,00 %
27.09.2021 19:36 15,7 C 93 % 1016,3 hPa 0,0 l/m 4,1 km/h SW 231 0 min 0,000 mm 0,0 UV-I 0 W/m 14,6 C 15,7 C 7,7 km/h 100,00 %
27.09.2021 19:35 15,7 C 93 % 1016,3 hPa 0,0 l/m 4,4 km/h SW 232 0 min 0,000 mm 0,0 UV-I 0 W/m 14,6 C 15,7 C 5,7 km/h 95,83 %
27.09.2021 19:34 15,7 C 93 % 1016,2 hPa 0,0 l/m 7,1 km/h SW 232 0 min 0,000 mm 0,0 UV-I 0 W/m 14,6 C 15,3 C 11,5 km/h 100,00 %
27.09.2021 19:33 15,7 C 93 % 1016,2 hPa 0,0 l/m 8,7 km/h SW 223 0 min 0,000 mm 0,0 UV-I 0 W/m 14,6 C 14,5 C 15,3 km/h 100,00 %
27.09.2021 19:32 15,7 C 93 % 1016,2 hPa 0,0 l/m 8,5 km/h SW 234 0 min 0,000 mm 0,0 UV-I 0 W/m 14,6 C 14,6 C 17,2 km/h 100,00 %
27.09.2021 19:31 15,7 C 93 % 1016,2 hPa 0,0 l/m 7,6 km/h SW 229 0 min 0,000 mm 0,0 UV-I 0 W/m 14,6 C 15,0 C 13,4 km/h 100,00 %
27.09.2021 19:30 15,8 C 93 % 1016,1 hPa 0,0 l/m 5,9 km/h W-SW 246 0 min 0,000 mm 0,0 UV-I 0 W/m 14,7 C 15,8 C 15,3 km/h 100,00 %
27.09.2021 19:29 15,7 C 93 % 1016,1 hPa 0,0 l/m 2,1 km/h W-SW 244 0 min 0,000 mm 0,0 UV-I 0 W/m 14,6 C 15,7 C 5,7 km/h 95,65 %
27.09.2021 19:28 15,8 C 93 % 1016,1 hPa 0,0 l/m 5,8 km/h W-SW 244 0 min 0,000 mm 0,0 UV-I 0 W/m 14,7 C 15,8 C 15,3 km/h 100,00 %
27.09.2021 19:27 15,8 C 93 % 1016,0 hPa 0,0 l/m 9,4 km/h W-SW 256 0 min 0,000 mm 0,0 UV-I 0 W/m 14,7 C 14,3 C 19,1 km/h 100,00 %
27.09.2021 19:26 15,8 C 93 % 1016,1 hPa 0,0 l/m 12,7 km/h SW 215 0 min 0,000 mm 0,0 UV-I 0 W/m 14,7 C 12,9 C 21,0 km/h 100,00 %
27.09.2021 19:25 15,8 C 93 % 1016,1 hPa 0,0 l/m 6,6 km/h S-SW 210 0 min 0,000 mm 0,0 UV-I 0 W/m 14,7 C 15,7 C 11,5 km/h 100,00 %
27.09.2021 19:24 15,8 C 93 % 1016,0 hPa 0,0 l/m 7,8 km/h SW 236 0 min 0,000 mm 0,0 UV-I 0 W/m 14,7 C 15,0 C 11,5 km/h 100,00 %
27.09.2021 19:23 15,8 C 93 % 1016,1 hPa 0,0 l/m 8,7 km/h SW 228 0 min 0,000 mm 0,0 UV-I 0 W/m 14,7 C 14,6 C 11,5 km/h 100,00 %
27.09.2021 19:22 15,8 C 93 % 1015,9 hPa 0,0 l/m 8,3 km/h SW 225 0 min 0,000 mm 0,0 UV-I 0 W/m 14,7 C 14,8 C 13,4 km/h 100,00 %
27.09.2021 19:21 15,8 C 93 % 1015,9 hPa 0,0 l/m 8,6 km/h SW 227 0 min 0,000 mm 0,0 UV-I 0 W/m 14,7 C 14,6 C 13,4 km/h 95,65 %
27.09.2021 19:20 15,8 C 93 % 1015,9 hPa 0,0 l/m 8,6 km/h SW 234 0 min 0,000 mm 0,0 UV-I 0 W/m 14,7 C 14,6 C 17,2 km/h 100,00 %
27.09.2021 19:19 15,8 C 93 % 1015,9 hPa 0,0 l/m 5,4 km/h SW 232 0 min 0,000 mm 0,0 UV-I 2 W/m 14,7 C 15,8 C 7,7 km/h 100,00 %
27.09.2021 19:18 15,8 C 93 % 1015,9 hPa 0,0 l/m 3,5 km/h SW 231 0 min 0,000 mm 0,0 UV-I 5 W/m 14,7 C 15,8 C 5,7 km/h 100,00 %
27.09.2021 19:17 15,8 C 93 % 1015,9 hPa 0,0 l/m 7,0 km/h SW 230 0 min 0,000 mm 0,0 UV-I 5 W/m 14,7 C 15,5 C 11,5 km/h 100,00 %
27.09.2021 19:16 15,8 C 93 % 1015,9 hPa 0,0 l/m 6,0 km/h S-SW 212 0 min 0,000 mm 0,0 UV-I 5 W/m 14,7 C 15,8 C 13,4 km/h 100,00 %
27.09.2021 19:15 15,8 C 93 % 1015,8 hPa 0,0 l/m 3,4 km/h S-SW 211 0 min 0,000 mm 0,0 UV-I 6 W/m 14,7 C 15,8 C 7,7 km/h 100,00 %
27.09.2021 19:14 15,8 C 93 % 1015,8 hPa 0,0 l/m 2,8 km/h S-SW 212 0 min 0,000 mm 0,0 UV-I 7 W/m 14,7 C 15,8 C 5,7 km/h 100,00 %
27.09.2021 19:13 15,8 C 93 % 1015,8 hPa 0,0 l/m 4,4 km/h S-SW 211 0 min 0,000 mm 0,0 UV-I 8 W/m 14,7 C 15,8 C 9,6 km/h 100,00 %
27.09.2021 19:12 15,8 C 93 % 1015,8 hPa 0,0 l/m 4,5 km/h S-SW 205 0 min 0,000 mm 0,0 UV-I 9 W/m 14,7 C 15,8 C 7,7 km/h 96,15 %
27.09.2021 19:11 15,8 C 93 % 1015,8 hPa 0,0 l/m 6,7 km/h SW 217 0 min 0,000 mm 0,0 UV-I 9 W/m 14,7 C 15,6 C 9,6 km/h 100,00 %
27.09.2021 19:10 15,8 C 93 % 1015,7 hPa 0,0 l/m 6,8 km/h SW 215 0 min 0,000 mm 0,0 UV-I 9 W/m 14,7 C 15,6 C 11,5 km/h 100,00 %
27.09.2021 19:09 15,8 C 93 % 1015,7 hPa 0,0 l/m 4,9 km/h SW 221 0 min 0,000 mm 0,0 UV-I 9 W/m 14,7 C 15,8 C 7,7 km/h 100,00 %
27.09.2021 19:08 15,8 C 93 % 1015,7 hPa 0,0 l/m 5,3 km/h SW 222 0 min 0,000 mm 0,0 UV-I 8 W/m 14,7 C 15,8 C 9,6 km/h 100,00 %
27.09.2021 19:07 15,8 C 93 % 1015,6 hPa 0,0 l/m 5,0 km/h SW 215 0 min 0,000 mm 0,0 UV-I 7 W/m 14,7 C 15,8 C 9,6 km/h 100,00 %
27.09.2021 19:06 15,8 C 93 % 1015,6 hPa 0,0 l/m 3,8 km/h S-SW 213 0 min 0,000 mm 0,0 UV-I 5 W/m 14,7 C 15,8 C 7,7 km/h 100,00 %
27.09.2021 19:05 15,8 C 93 % 1015,6 hPa 0,0 l/m 3,7 km/h S-SW 212 0 min 0,000 mm 0,0 UV-I 5 W/m 14,7 C 15,8 C 7,7 km/h 100,00 %
27.09.2021 19:04 15,8 C 93 % 1015,6 hPa 0,0 l/m 5,5 km/h SW 215 0 min 0,000 mm 0,0 UV-I 6 W/m 14,7 C 15,8 C 11,5 km/h 100,00 %
27.09.2021 19:03 15,8 C 93 % 1015,5 hPa 0,0 l/m 6,0 km/h SW 216 0 min 0,000 mm 0,0 UV-I 8 W/m 14,7 C 15,8 C 11,5 km/h 95,83 %
27.09.2021 19:02 15,8 C 93 % 1015,5 hPa 0,0 l/m 5,5 km/h S-SW 213 0 min 0,000 mm 0,0 UV-I 10 W/m 14,7 C 15,8 C 9,6 km/h 100,00 %
27.09.2021 19:01 15,8 C 93 % 1015,5 hPa 0,0 l/m 3,9 km/h S-SW 209 0 min 0,000 mm 0,0 UV-I 11 W/m 14,7 C 15,8 C 9,6 km/h 100,00 %
27.09.2021 19:00 15,8 C 93 % 1015,5 hPa 0,2 l/m 5,3 km/h S-SW 211 0 min 0,000 mm 0,0 UV-I 11 W/m 14,7 C 15,8 C 9,6 km/h 100,00 %
27.09.2021 18:59 15,9 C 93 % 1015,4 hPa 0,0 l/m 6,2 km/h SW 221 0 min 0,000 mm 0,0 UV-I 11 W/m 14,8 C 15,9 C 9,6 km/h 100,00 %
27.09.2021 18:58 15,9 C 93 % 1015,4 hPa 0,0 l/m 8,5 km/h SW 215 0 min 0,000 mm 0,0 UV-I 11 W/m 14,8 C 14,8 C 19,1 km/h 100,00 %
27.09.2021 18:57 16,0 C 93 % 1015,4 hPa 0,0 l/m 8,8 km/h SW 219 0 min 0,000 mm 0,0 UV-I 10 W/m 14,9 C 14,8 C 13,4 km/h 96,67 %
27.09.2021 18:56 16,1 C 93 % 1015,4 hPa 0,0 l/m 11,0 km/h S-SW 213 0 min 0,000 mm 0,0 UV-I 8 W/m 15,0 C 13,9 C 17,2 km/h 100,00 %
27.09.2021 18:55 16,2 C 94 % 1015,4 hPa 0,0 l/m 11,3 km/h S-SW 209 0 min 0,000 mm 0,0 UV-I 7 W/m 15,2 C 13,9 C 19,1 km/h 100,00 %
27.09.2021 18:54 16,2 C 94 % 1015,3 hPa 0,0 l/m 8,1 km/h SW 228 0 min 0,000 mm 0,0 UV-I 7 W/m 15,2 C 15,3 C 11,5 km/h 100,00 %
27.09.2021 18:53 16,3 C 94 % 1015,3 hPa 0,0 l/m 8,1 km/h SW 219 0 min 0,000 mm 0,0 UV-I 7 W/m 15,3 C 15,4 C 11,5 km/h 100,00 %
27.09.2021 18:52 16,3 C 94 % 1015,3 hPa 0,0 l/m 9,4 km/h S-SW 203 0 min 0,000 mm 0,0 UV-I 8 W/m 15,3 C 14,8 C 17,2 km/h 100,00 %
27.09.2021 18:51 16,4 C 94 % 1015,3 hPa 0,0 l/m 12,4 km/h S 184 0 min 0,000 mm 0,0 UV-I 9 W/m 15,4 C 13,7 C 17,2 km/h 100,00 %
27.09.2021 18:50 16,4 C 94 % 1015,3 hPa 0,0 l/m 4,2 km/h SW 218 0 min 0,000 mm 0,0 UV-I 10 W/m 15,4 C 16,4 C 13,4 km/h 100,00 %
27.09.2021 18:49 16,5 C 94 % 1015,3 hPa 0,0 l/m 6,6 km/h SW 219 0 min 0,000 mm 0,0 UV-I 12 W/m 15,5 C 16,4 C 11,5 km/h 100,00 %
27.09.2021 18:48 16,5 C 94 % 1015,3 hPa 0,2 l/m 6,5 km/h S-SW 211 0 min 0,000 mm 0,0 UV-I 12 W/m 15,5 C 16,5 C 9,6 km/h 100,00 %
27.09.2021 18:47 16,5 C 94 % 1015,2 hPa 0,0 l/m 4,1 km/h S 186 0 min 0,000 mm 0,0 UV-I 12 W/m 15,5 C 16,5 C 7,7 km/h 100,00 %
27.09.2021 18:46 16,6 C 94 % 1015,2 hPa 0,0 l/m 7,9 km/h S-SW 205 0 min 0,000 mm 0,0 UV-I 12 W/m 15,6 C 15,8 C 13,4 km/h 95,83 %
27.09.2021 18:45 16,6 C 94 % 1015,1 hPa 0,0 l/m 5,1 km/h S-SW 196 0 min 0,000 mm 0,0 UV-I 11 W/m 15,6 C 16,6 C 9,6 km/h 100,00 %
27.09.2021 18:44 16,7 C 94 % 1015,1 hPa 0,0 l/m 8,1 km/h S-SO 163 0 min 0,000 mm 0,0 UV-I 11 W/m 15,7 C 15,8 C 13,4 km/h 100,00 %
27.09.2021 18:43 16,7 C 94 % 1015,1 hPa 0,0 l/m 6,7 km/h S-SW 196 0 min 0,000 mm 0,0 UV-I 10 W/m 15,7 C 16,6 C 15,3 km/h 100,00 %
27.09.2021 18:42 16,8 C 94 % 1015,1 hPa 0,2 l/m 12,7 km/h S-SW 211 0 min 0,000 mm 0,0 UV-I 9 W/m 15,8 C 14,1 C 19,1 km/h 100,00 %
27.09.2021 18:41 16,8 C 94 % 1015,1 hPa 0,2 l/m 5,4 km/h S-SO 165 0 min 0,000 mm 0,0 UV-I 7 W/m 15,8 C 16,8 C 7,7 km/h 100,00 %
27.09.2021 18:40 16,8 C 94 % 1015,0 hPa 0,0 l/m 3,9 km/h S 169 0 min 0,000 mm 0,0 UV-I 7 W/m 15,8 C 16,8 C 9,6 km/h 100,00 %
27.09.2021 18:39 16,8 C 94 % 1015,0 hPa 0,2 l/m 3,3 km/h S-SW 192 0 min 0,000 mm 0,0 UV-I 8 W/m 15,8 C 16,8 C 9,6 km/h 96,30 %
27.09.2021 18:38 16,8 C 94 % 1015,0 hPa 0,0 l/m 3,0 km/h S 180 0 min 0,000 mm 0,0 UV-I 9 W/m 15,8 C 16,8 C 5,7 km/h 100,00 %
27.09.2021 18:37 16,8 C 94 % 1014,9 hPa 0,0 l/m 8,5 km/h S 180 0 min 0,000 mm 0,0 UV-I 9 W/m 15,8 C 15,8 C 13,4 km/h 100,00 %
27.09.2021 18:36 16,8 C 94 % 1014,9 hPa 0,0 l/m 10,4 km/h S-SO 163 0 min 0,000 mm 0,0 UV-I 9 W/m 15,8 C 14,9 C 15,3 km/h 100,00 %
27.09.2021 18:35 16,8 C 94 % 1014,8 hPa 0,0 l/m 5,4 km/h S-SW 192 0 min 0,000 mm 0,0 UV-I 8 W/m 15,8 C 16,8 C 9,6 km/h 100,00 %
27.09.2021 18:34 16,9 C 94 % 1014,8 hPa 0,0 l/m 8,4 km/h S-SO 160 0 min 0,000 mm 0,0 UV-I 7 W/m 15,9 C 15,9 C 11,5 km/h 100,00 %
27.09.2021 18:33 16,9 C 94 % 1014,6 hPa 0,2 l/m 8,1 km/h S 172 0 min 0,000 mm 0,0 UV-I 7 W/m 15,9 C 16,0 C 13,4 km/h 100,00 %
27.09.2021 18:32 16,9 C 94 % 1014,7 hPa 0,0 l/m 1,6 km/h S 173 0 min 0,000 mm 0,0 UV-I 7 W/m 15,9 C 16,9 C 3,8 km/h 95,83 %
27.09.2021 18:31 16,9 C 94 % 1014,6 hPa 0,0 l/m 1,6 km/h S 173 0 min 0,000 mm 0,0 UV-I 7 W/m 15,9 C 16,9 C 5,7 km/h 100,00 %
27.09.2021 18:30 16,9 C 94 % 1014,6 hPa 0,0 l/m 6,3 km/h S 173 0 min 0,000 mm 0,0 UV-I 9 W/m 15,9 C 16,9 C 11,5 km/h 100,00 %
27.09.2021 18:29 17,0 C 94 % 1014,5 hPa 0,0 l/m 4,6 km/h S 173 0 min 0,000 mm 0,0 UV-I 11 W/m 16,0 C 17,0 C 9,6 km/h 100,00 %
27.09.2021 18:28 17,0 C 94 % 1014,6 hPa 0,0 l/m 6,6 km/h SW 217 0 min 0,000 mm 0,0 UV-I 12 W/m 16,0 C 16,9 C 11,5 km/h 96,15 %
27.09.2021 18:27 17,0 C 94 % 1014,5 hPa 0,0 l/m 4,0 km/h S 175 0 min 0,000 mm 0,0 UV-I 12 W/m 16,0 C 17,0 C 9,6 km/h 100,00 %
27.09.2021 18:26 17,1 C 94 % 1014,5 hPa 0,0 l/m 10,8 km/h S 170 0 min 0,000 mm 0,0 UV-I 12 W/m 16,1 C 15,1 C 17,2 km/h 100,00 %
27.09.2021 18:25 17,1 C 94 % 1014,5 hPa 0,0 l/m 6,9 km/h S 173 0 min 0,000 mm 0,0 UV-I 11 W/m 16,1 C 16,9 C 13,4 km/h 100,00 %
27.09.2021 18:24 17,1 C 94 % 1014,5 hPa 0,0 l/m 6,0 km/h SW 227 0 min 0,000 mm 0,0 UV-I 11 W/m 16,1 C 17,1 C 13,4 km/h 100,00 %
27.09.2021 18:23 17,1 C 94 % 1014,5 hPa 0,0 l/m 7,3 km/h S-SW 209 0 min 0,000 mm 0,0 UV-I 11 W/m 16,1 C 16,6 C 13,4 km/h 100,00 %
27.09.2021 18:22 17,2 C 93 % 1014,6 hPa 0,0 l/m 7,6 km/h S-SW 209 0 min 0,000 mm 0,0 UV-I 12 W/m 16,1 C 16,6 C 9,6 km/h 90,91 %
27.09.2021 18:21 17,2 C 93 % 1014,6 hPa 0,0 l/m 6,2 km/h SO 138 0 min 0,000 mm 0,0 UV-I 12 W/m 16,1 C 17,2 C 15,3 km/h 96,30 %
27.09.2021 18:20 17,2 C 93 % 1014,6 hPa 0,0 l/m 5,3 km/h S-SW 207 0 min 0,000 mm 0,0 UV-I 12 W/m 16,1 C 17,2 C 9,6 km/h 100,00 %
27.09.2021 18:19 17,3 C 93 % 1014,7 hPa 0,0 l/m 6,9 km/h S 191 0 min 0,000 mm 0,0 UV-I 11 W/m 16,2 C 17,1 C 11,5 km/h 95,83 %
27.09.2021 18:18 17,3 C 93 % 1014,6 hPa 0,0 l/m 10,0 km/h S-SW 210 0 min 0,000 mm 0,0 UV-I 11 W/m 16,2 C 15,7 C 17,2 km/h 100,00 %
27.09.2021 18:17 17,4 C 93 % 1014,6 hPa 0,2 l/m 8,3 km/h S-SW 207 0 min 0,000 mm 0,0 UV-I 11 W/m 16,3 C 16,5 C 13,4 km/h 100,00 %
27.09.2021 18:16 17,5 C 93 % 1014,7 hPa 0,0 l/m 8,9 km/h S 172 0 min 0,000 mm 0,0 UV-I 12 W/m 16,4 C 16,3 C 13,4 km/h 100,00 %
27.09.2021 18:15 17,6 C 93 % 1014,7 hPa 0,2 l/m 11,8 km/h S-SW 195 0 min 0,000 mm 0,0 UV-I 12 W/m 16,5 C 15,3 C 21,0 km/h 100,00 %
27.09.2021 18:14 17,7 C 93 % 1014,6 hPa 0,4 l/m 6,8 km/h S 186 0 min 0,000 mm 0,0 UV-I 12 W/m 16,6 C 17,5 C 17,2 km/h 100,00 %
27.09.2021 18:13 17,7 C 93 % 1014,7 hPa 0,6 l/m 4,7 km/h S-SW 192 0 min 0,000 mm 0,0 UV-I 11 W/m 16,6 C 17,7 C 11,5 km/h 100,00 %
27.09.2021 18:12 17,7 C 93 % 1014,7 hPa 0,6 l/m 4,7 km/h SW 214 0 min 0,000 mm 0,0 UV-I 9 W/m 16,6 C 17,7 C 13,4 km/h 96,30 %
27.09.2021 18:11 17,7 C 93 % 1014,8 hPa 0,6 l/m 11,9 km/h SW 227 0 min 0,000 mm 0,0 UV-I 9 W/m 16,6 C 15,4 C 17,2 km/h 96,15 %
27.09.2021 18:10 17,8 C 93 % 1014,8 hPa 0,4 l/m 14,4 km/h S-SW 209 0 min 0,000 mm 0,0 UV-I 7 W/m 16,7 C 14,8 C 21,0 km/h 100,00 %
27.09.2021 18:09 17,8 C 93 % 1014,7 hPa 0,4 l/m 5,9 km/h SW 214 0 min 0,000 mm 0,0 UV-I 7 W/m 16,7 C 17,8 C 9,6 km/h 94,12 %
27.09.2021 18:08 17,8 C 93 % 1014,7 hPa 0,2 l/m 11,7 km/h SW 217 0 min 0,000 mm 0,0 UV-I 7 W/m 16,7 C 15,6 C 17,2 km/h 100,00 %
27.09.2021 18:07 17,8 C 93 % 1014,4 hPa 0,2 l/m 11,2 km/h S-SW 198 0 min 0,000 mm 0,0 UV-I 11 W/m 16,7 C 15,8 C 19,1 km/h 100,00 %
27.09.2021 18:06 17,8 C 93 % 1014,3 hPa 0,0 l/m 11,9 km/h S 190 0 min 0,000 mm 0,0 UV-I 11 W/m 16,7 C 15,5 C 17,2 km/h 100,00 %
27.09.2021 18:05 17,8 C 93 % 1014,3 hPa 0,2 l/m 14,3 km/h S 178 0 min 0,000 mm 0,0 UV-I 16 W/m 16,7 C 14,8 C 24,9 km/h 91,30 %
27.09.2021 18:04 17,9 C 93 % 1014,2 hPa 0,2 l/m 11,9 km/h S 181 0 min 0,000 mm 0,0 UV-I 16 W/m 16,8 C 15,6 C 21,0 km/h 100,00 %
27.09.2021 18:03 17,9 C 93 % 1014,2 hPa 0,0 l/m 3,7 km/h S-SW 202 0 min 0,000 mm 0,0 UV-I 16 W/m 16,8 C 17,9 C 7,7 km/h 95,65 %
27.09.2021 18:02 17,9 C 93 % 1014,1 hPa 0,0 l/m 4,6 km/h S 179 0 min 0,000 mm 0,0 UV-I 16 W/m 16,8 C 17,9 C 7,7 km/h 96,30 %
27.09.2021 18:01 17,9 C 93 % 1014,1 hPa 0,2 l/m 8,1 km/h S-SO 162 0 min 0,025 mm 0,0 UV-I 16 W/m 16,8 C 17,1 C 13,4 km/h 100,00 %
27.09.2021 18:00 17,9 C 93 % 1014,0 hPa 0,0 l/m 9,3 km/h S 186 0 min 0,000 mm 0,0 UV-I 12 W/m 16,8 C 16,6 C 13,4 km/h 95,83 %
27.09.2021 17:59 17,9 C 93 % 1014,0 hPa 0,0 l/m 6,1 km/h S 179 0 min 0,000 mm 0,0 UV-I 15 W/m 16,8 C 17,9 C 11,5 km/h 100,00 %
27.09.2021 17:58 17,9 C 93 % 1014,0 hPa 0,0 l/m 8,2 km/h S 178 0 min 0,000 mm 0,0 UV-I 21 W/m 16,8 C 17,1 C 17,2 km/h 96,15 %
27.09.2021 17:57 18,0 C 92 % 1014,0 hPa 0,0 l/m 7,5 km/h S 182 0 min 0,000 mm 0,0 UV-I 28 W/m 16,7 C 17,5 C 15,3 km/h 100,00 %
27.09.2021 17:56 18,0 C 93 % 1014,0 hPa 0,2 l/m 4,6 km/h S 170 0 min 0,000 mm 0,0 UV-I 40 W/m 16,8 C 18,0 C 15,3 km/h 96,30 %
27.09.2021 17:55 18,0 C 93 % 1013,9 hPa 0,0 l/m 7,1 km/h SO 142 0 min 0,000 mm 0,0 UV-I 52 W/m 16,8 C 17,7 C 13,4 km/h 100,00 %
27.09.2021 17:54 18,0 C 93 % 1013,9 hPa 0,0 l/m 7,5 km/h SO 129 0 min 0,000 mm 0,0 UV-I 53 W/m 16,8 C 17,5 C 13,4 km/h 95,65 %
27.09.2021 17:53 18,1 C 93 % 1013,9 hPa 0,0 l/m 6,9 km/h S 174 0 min 0,000 mm 0,0 UV-I 47 W/m 16,9 C 17,9 C 15,3 km/h 97,73 %
27.09.2021 17:52 18,0 C 93 % 1013,8 hPa 0,0 l/m 8,0 km/h S-SO 155 0 min 0,000 mm 0,0 UV-I 40 W/m 16,8 C 17,3 C 13,4 km/h 100,00 %
27.09.2021 17:51 18,1 C 93 % 1013,8 hPa 0,0 l/m 8,0 km/h S 178 0 min 0,000 mm 0,0 UV-I 34 W/m 16,9 C 17,4 C 17,2 km/h 83,33 %
27.09.2021 17:50 18,1 C 92 % 1013,8 hPa 0,0 l/m 6,1 km/h SO 135 0 min 0,000 mm 0,0 UV-I 31 W/m 16,8 C 18,1 C 17,2 km/h 100,00 %
27.09.2021 17:49 18,1 C 92 % 1013,7 hPa 0,0 l/m 2,8 km/h S 191 0 min 0,000 mm 0,0 UV-I 26 W/m 16,8 C 18,1 C 7,7 km/h 95,83 %
27.09.2021 17:48 18,1 C 92 % 1013,7 hPa 0,0 l/m 0,9 km/h S-SO 167 0 min 0,000 mm 0,0 UV-I 26 W/m 16,8 C 18,1 C 1,9 km/h 100,00 %
27.09.2021 17:47 18,0 C 92 % 1013,7 hPa 0,0 l/m 3,0 km/h S-SO 167 0 min 0,000 mm 0,0 UV-I 28 W/m 16,7 C 18,0 C 7,7 km/h 95,83 %
27.09.2021 17:46 18,0 C 92 % 1013,6 hPa 0,0 l/m 4,0 km/h S 169 0 min 0,000 mm 0,0 UV-I 28 W/m 16,7 C 18,0 C 9,6 km/h 95,65 %
27.09.2021 17:45 18,0 C 92 % 1013,6 hPa 0,0 l/m 1,7 km/h S-SO 153 0 min 0,000 mm 0,0 UV-I 27 W/m 16,7 C 18,0 C 5,7 km/h 100,00 %
27.09.2021 17:44 18,0 C 92 % 1013,6 hPa 0,2 l/m 2,2 km/h S-SO 154 0 min 0,000 mm 0,0 UV-I 27 W/m 16,7 C 18,0 C 5,7 km/h 100,00 %
27.09.2021 17:43 18,0 C 92 % 1013,6 hPa 0,0 l/m 6,3 km/h S-SO 154 0 min 0,000 mm 0,0 UV-I 28 W/m 16,7 C 18,0 C 13,4 km/h 95,83 %
27.09.2021 17:42 18,0 C 92 % 1013,6 hPa 0,0 l/m 4,0 km/h S-SO 161 0 min 0,000 mm 0,0 UV-I 30 W/m 16,7 C 18,0 C 9,6 km/h 95,65 %
27.09.2021 17:41 18,0 C 92 % 1013,6 hPa 0,0 l/m 5,6 km/h S-SO 162 0 min 0,000 mm 0,0 UV-I 30 W/m 16,7 C 18,0 C 9,6 km/h 100,00 %
27.09.2021 17:40 18,0 C 92 % 1013,6 hPa 0,0 l/m 1,5 km/h O-SO 121 0 min 0,000 mm 0,0 UV-I 30 W/m 16,7 C 18,0 C 5,7 km/h 96,15 %
27.09.2021 17:39 18,0 C 92 % 1013,6 hPa 0,0 l/m 4,0 km/h O-SO 121 0 min 0,000 mm 0,0 UV-I 29 W/m 16,7 C 18,0 C 7,7 km/h 96,30 %
27.09.2021 17:38 18,0 C 92 % 1013,6 hPa 0,0 l/m 4,3 km/h O-SO 123 0 min 0,000 mm 0,0 UV-I 26 W/m 16,7 C 18,0 C 9,6 km/h 100,00 %
27.09.2021 17:37 18,0 C 92 % 1013,6 hPa 0,0 l/m 8,1 km/h S-SO 164 0 min 0,000 mm 0,0 UV-I 22 W/m 16,7 C 17,2 C 13,4 km/h 100,00 %
27.09.2021 17:36 18,1 C 92 % 1013,7 hPa 0,0 l/m 3,7 km/h S-SO 167 0 min 0,000 mm 0,0 UV-I 20 W/m 16,8 C 18,1 C 7,7 km/h 95,83 %
27.09.2021 17:35 18,0 C 92 % 1013,6 hPa 0,0 l/m 1,5 km/h O-SO 111 0 min 0,000 mm 0,0 UV-I 25 W/m 16,7 C 18,0 C 3,8 km/h 96,15 %
27.09.2021 17:34 18,0 C 91 % 1013,6 hPa 0,0 l/m 5,1 km/h O-SO 111 0 min 0,000 mm 0,0 UV-I 30 W/m 16,5 C 18,0 C 7,7 km/h 100,00 %
27.09.2021 17:33 18,0 C 91 % 1013,7 hPa 0,0 l/m 7,2 km/h S-SO 152 0 min 0,000 mm 0,0 UV-I 32 W/m 16,5 C 17,6 C 15,3 km/h 97,73 %
27.09.2021 17:32 18,0 C 91 % 1013,7 hPa 0,0 l/m 4,1 km/h S-SO 155 0 min 0,000 mm 0,0 UV-I 32 W/m 16,5 C 18,0 C 7,7 km/h 98,98 %
27.09.2021 17:31 18,0 C 91 % 1013,7 hPa 0,2 l/m 1,8 km/h S-SO 148 0 min 0,000 mm 0,0 UV-I 33 W/m 16,5 C 18,0 C 3,8 km/h 95,65 %
27.09.2021 17:30 18,0 C 91 % 1013,7 hPa 0,0 l/m 2,3 km/h S-SO 148 0 min 0,000 mm 0,0 UV-I 34 W/m 16,5 C 18,0 C 5,7 km/h 100,00 %
27.09.2021 17:29 18,0 C 91 % 1013,7 hPa 0,0 l/m 3,8 km/h S-SO 147 0 min 0,000 mm 0,0 UV-I 32 W/m 16,5 C 18,0 C 9,6 km/h 96,55 %
27.09.2021 17:28 18,0 C 91 % 1013,7 hPa 0,0 l/m 5,2 km/h S 176 0 min 0,000 mm 0,0 UV-I 26 W/m 16,5 C 18,0 C 11,5 km/h 96,30 %
27.09.2021 17:27 18,0 C 91 % 1013,7 hPa 0,0 l/m 6,1 km/h S-SO 152 0 min 0,000 mm 0,0 UV-I 26 W/m 16,5 C 18,0 C 13,4 km/h 100,00 %
27.09.2021 17:26 18,0 C 91 % 1013,7 hPa 0,0 l/m 7,5 km/h SO 140 0 min 0,000 mm 0,0 UV-I 26 W/m 16,5 C 17,5 C 13,4 km/h 96,30 %
27.09.2021 17:25 18,0 C 91 % 1013,6 hPa 0,0 l/m 7,2 km/h S-SO 163 0 min 0,000 mm 0,0 UV-I 29 W/m 16,5 C 17,6 C 11,5 km/h 100,00 %
27.09.2021 17:24 18,0 C 91 % 1013,6 hPa 0,0 l/m 7,5 km/h SO 136 0 min 0,000 mm 0,0 UV-I 33 W/m 16,5 C 17,5 C 17,2 km/h 91,67 %
27.09.2021 17:23 18,1 C 90 % 1013,6 hPa 0,0 l/m 4,2 km/h S-SO 148 0 min 0,000 mm 0,0 UV-I 34 W/m 16,4 C 18,1 C 7,7 km/h 100,00 %
27.09.2021 17:22 18,1 C 90 % 1013,6 hPa 0,0 l/m 5,8 km/h S 182 0 min 0,000 mm 0,0 UV-I 32 W/m 16,4 C 18,1 C 7,7 km/h 96,30 %
27.09.2021 17:21 18,0 C 90 % 1013,7 hPa 0,0 l/m 5,5 km/h S-SO 164 0 min 0,000 mm 0,0 UV-I 32 W/m 16,3 C 18,0 C 7,7 km/h 92,31 %
27.09.2021 17:20 18,1 C 90 % 1013,7 hPa 0,0 l/m 4,0 km/h S-SO 157 0 min 0,000 mm 0,0 UV-I 32 W/m 16,4 C 18,1 C 5,7 km/h 100,00 %
27.09.2021 17:19 18,1 C 90 % 1013,6 hPa 0,0 l/m 7,5 km/h S-SO 155 0 min 0,000 mm 0,0 UV-I 32 W/m 16,4 C 17,6 C 13,4 km/h 100,00 %
27.09.2021 17:18 18,1 C 90 % 1013,6 hPa 0,0 l/m 11,7 km/h SO 140 0 min 0,000 mm 0,0 UV-I 33 W/m 16,4 C 15,9 C 17,2 km/h 95,65 %
27.09.2021 17:17 18,1 C 90 % 1013,6 hPa 0,0 l/m 5,3 km/h S-SO 156 0 min 0,000 mm 0,0 UV-I 32 W/m 16,4 C 18,1 C 11,5 km/h 95,83 %
27.09.2021 17:16 18,1 C 90 % 1013,6 hPa 0,0 l/m 4,6 km/h S-SO 159 0 min 0,000 mm 0,0 UV-I 32 W/m 16,4 C 18,1 C 15,3 km/h 95,65 %
27.09.2021 17:15 18,1 C 90 % 1013,6 hPa 0,0 l/m 5,3 km/h S 175 0 min 0,000 mm 0,0 UV-I 33 W/m 16,4 C 18,1 C 9,6 km/h 95,83 %
27.09.2021 17:14 18,1 C 90 % 1013,6 hPa 0,0 l/m 3,9 km/h SO 143 0 min 0,000 mm 0,0 UV-I 35 W/m 16,4 C 18,1 C 7,7 km/h 100,00 %
27.09.2021 17:13 18,1 C 89 % 1013,7 hPa 0,0 l/m 3,4 km/h S-SO 160 0 min 0,000 mm 0,0 UV-I 38 W/m 16,3 C 18,1 C 7,7 km/h 96,30 %
27.09.2021 17:12 18,1 C 89 % 1013,6 hPa 0,0 l/m 6,3 km/h SO 142 0 min 0,000 mm 0,0 UV-I 38 W/m 16,3 C 18,1 C 13,4 km/h 95,83 %
27.09.2021 17:11 18,1 C 89 % 1013,6 hPa 0,0 l/m 4,2 km/h SO 144 0 min 0,000 mm 0,0 UV-I 41 W/m 16,3 C 18,1 C 7,7 km/h 100,00 %
27.09.2021 17:10 18,2 C 89 % 1013,6 hPa 0,0 l/m 7,3 km/h S-SO 147 0 min 0,000 mm 0,0 UV-I 47 W/m 16,4 C 17,8 C 13,4 km/h 100,00 %
27.09.2021 17:09 18,2 C 89 % 1013,7 hPa 0,0 l/m 9,0 km/h S-SO 152 0 min 0,000 mm 0,0 UV-I 52 W/m 16,4 C 17,0 C 11,5 km/h 96,30 %
27.09.2021 17:08 18,2 C 89 % 1013,7 hPa 0,0 l/m 7,9 km/h S 180 0 min 0,000 mm 0,0 UV-I 54 W/m 16,4 C 17,5 C 17,2 km/h 96,15 %
27.09.2021 17:07 18,2 C 88 % 1013,6 hPa 0,0 l/m 9,5 km/h S-SO 156 0 min 0,000 mm 0,0 UV-I 50 W/m 16,2 C 16,8 C 15,3 km/h 100,00 %
27.09.2021 17:06 18,2 C 88 % 1013,7 hPa 0,0 l/m 5,5 km/h S-SO 160 0 min 0,000 mm 0,0 UV-I 47 W/m 16,2 C 18,2 C 15,3 km/h 95,65 %
27.09.2021 17:05 18,2 C 88 % 1013,6 hPa 0,0 l/m 4,3 km/h S 171 0 min 0,000 mm 0,0 UV-I 47 W/m 16,2 C 18,2 C 9,6 km/h 100,00 %
27.09.2021 17:04 18,2 C 88 % 1013,7 hPa 0,0 l/m 6,2 km/h S-SW 208 0 min 0,000 mm 0,0 UV-I 50 W/m 16,2 C 18,2 C 11,5 km/h 92,31 %
27.09.2021 17:03 18,2 C 88 % 1013,7 hPa 0,0 l/m 8,7 km/h S-SW 207 0 min 0,000 mm 0,0 UV-I 53 W/m 16,2 C 17,2 C 19,1 km/h 100,00 %
27.09.2021 17:02 18,3 C 87 % 1013,7 hPa 0,0 l/m 14,2 km/h S 170 0 min 0,001 mm 0,0 UV-I 58 W/m 16,1 C 15,4 C 26,8 km/h 96,15 %
27.09.2021 17:01 18,3 C 87 % 1013,8 hPa 0,0 l/m 14,0 km/h S 174 0 min 0,076 mm 0,0 UV-I 57 W/m 16,1 C 15,5 C 21,0 km/h 93,33 %
27.09.2021 17:00 18,4 C 87 % 1013,8 hPa 0,0 l/m 17,7 km/h S 184 0 min 0,000 mm 0,0 UV-I 56 W/m 16,2 C 14,6 C 26,8 km/h 95,83 %
27.09.2021 16:59 18,4 C 86 % 1013,7 hPa 0,0 l/m 10,6 km/h S 175 0 min 0,000 mm 0,0 UV-I 60 W/m 16,0 C 16,7 C 17,2 km/h 95,83 %
27.09.2021 16:58 18,4 C 86 % 1013,8 hPa 0,0 l/m 9,6 km/h S-SO 165 0 min 0,000 mm 0,0 UV-I 61 W/m 16,0 C 17,0 C 15,3 km/h 100,00 %
27.09.2021 16:57 18,5 C 86 % 1013,9 hPa 0,0 l/m 17,8 km/h S 175 0 min 0,000 mm 0,0 UV-I 55 W/m 16,1 C 14,7 C 28,7 km/h 96,15 %
27.09.2021 16:56 18,6 C 86 % 1013,9 hPa 0,2 l/m 16,4 km/h S 172 0 min 0,000 mm 0,0 UV-I 55 W/m 16,2 C 15,2 C 24,9 km/h 100,00 %
27.09.2021 16:55 18,7 C 85 % 1013,9 hPa 0,0 l/m 20,6 km/h S-SO 159 0 min 0,000 mm 0,0 UV-I 60 W/m 16,1 C 14,4 C 38,3 km/h 96,15 %
27.09.2021 16:54 18,8 C 84 % 1013,8 hPa 0,0 l/m 16,0 km/h S-SO 159 0 min 0,000 mm 0,0 UV-I 65 W/m 16,0 C 15,5 C 26,8 km/h 100,00 %
27.09.2021 16:53 18,9 C 83 % 1013,8 hPa 0,0 l/m 19,0 km/h S 180 0 min 0,000 mm 0,0 UV-I 67 W/m 15,9 C 15,0 C 42,1 km/h 96,55 %
27.09.2021 16:52 19,0 C 83 % 1013,7 hPa 0,0 l/m 13,1 km/h S 190 0 min 0,000 mm 0,0 UV-I 66 W/m 16,0 C 16,6 C 21,0 km/h 100,00 %
27.09.2021 16:51 19,1 C 83 % 1013,7 hPa 0,0 l/m 15,3 km/h S-SO 157 0 min 0,000 mm 0,0 UV-I 67 W/m 16,1 C 16,1 C 21,0 km/h 96,15 %
27.09.2021 16:50 19,2 C 82 % 1013,7 hPa 0,0 l/m 12,9 km/h S-SW 195 0 min 0,000 mm 0,0 UV-I 77 W/m 16,0 C 16,8 C 23,0 km/h 96,67 %
27.09.2021 16:49 19,3 C 82 % 1013,7 hPa 0,0 l/m 14,0 km/h S 180 0 min 0,000 mm 0,0 UV-I 68 W/m 16,1 C 16,7 C 24,9 km/h 100,00 %
27.09.2021 16:48 19,4 C 81 % 1013,7 hPa 0,0 l/m 17,2 km/h S 174 0 min 0,000 mm 0,0 UV-I 50 W/m 16,1 C 16,0 C 30,6 km/h 91,67 %
27.09.2021 16:47 19,4 C 81 % 1013,7 hPa 0,0 l/m 11,9 km/h S-SO 158 0 min 0,000 mm 0,0 UV-I 46 W/m 16,1 C 17,4 C 19,1 km/h 91,30 %
27.09.2021 16:46 19,4 C 81 % 1013,5 hPa 0,0 l/m 12,3 km/h S 177 0 min 0,000 mm 0,0 UV-I 53 W/m 16,1 C 17,3 C 23,0 km/h 95,83 %
27.09.2021 16:45 19,5 C 81 % 1013,5 hPa 0,0 l/m 8,8 km/h S-SO 160 0 min 0,000 mm 0,0 UV-I 64 W/m 16,1 C 18,5 C 15,3 km/h 100,00 %
27.09.2021 16:44 19,5 C 80 % 1013,5 hPa 0,0 l/m 13,8 km/h S-SO 168 0 min 0,000 mm 0,0 UV-I 65 W/m 16,0 C 17,0 C 24,9 km/h 95,83 %
27.09.2021 16:43 19,6 C 80 % 1013,5 hPa 0,0 l/m 16,2 km/h S-SO 164 0 min 0,000 mm 0,0 UV-I 66 W/m 16,1 C 16,5 C 28,7 km/h 100,00 %
27.09.2021 16:42 19,7 C 79 % 1013,5 hPa 0,0 l/m 14,3 km/h S-SO 166 0 min 0,000 mm 0,0 UV-I 63 W/m 16,0 C 17,1 C 23,0 km/h 96,15 %
27.09.2021 16:41 19,8 C 79 % 1013,4 hPa 0,0 l/m 16,3 km/h SW 217 0 min 0,000 mm 0,0 UV-I 56 W/m 16,0 C 16,7 C 23,0 km/h 96,67 %
27.09.2021 16:40 19,8 C 78 % 1013,5 hPa 0,0 l/m 14,6 km/h S 179 0 min 0,000 mm 0,0 UV-I 48 W/m 15,8 C 17,1 C 23,0 km/h 100,00 %
27.09.2021 16:39 19,9 C 78 % 1013,5 hPa 0,0 l/m 16,9 km/h S-SW 194 0 min 0,000 mm 0,0 UV-I 42 W/m 15,9 C 16,7 C 21,0 km/h 93,33 %
27.09.2021 16:38 20,0 C 78 % 1013,5 hPa 0,0 l/m 15,9 km/h S-SO 165 0 min 0,000 mm 0,0 UV-I 40 W/m 16,0 C 17,0 C 19,1 km/h 100,00 %
27.09.2021 16:37 20,1 C 77 % 1013,4 hPa 0,0 l/m 9,6 km/h S 184 0 min 0,000 mm 0,0 UV-I 43 W/m 15,9 C 18,9 C 15,3 km/h 96,15 %
27.09.2021 16:36 20,1 C 77 % 1013,4 hPa 0,0 l/m 8,6 km/h S 181 0 min 0,000 mm 0,0 UV-I 49 W/m 15,9 C 19,2 C 13,4 km/h 100,00 %
27.09.2021 16:35 20,2 C 76 % 1013,4 hPa 0,0 l/m 9,1 km/h S 178 0 min 0,000 mm 0,0 UV-I 58 W/m 15,8 C 19,2 C 19,1 km/h 96,30 %
27.09.2021 16:34 20,3 C 76 % 1013,3 hPa 0,0 l/m 17,1 km/h S 179 0 min 0,000 mm 0,0 UV-I 63 W/m 15,9 C 17,2 C 24,9 km/h 96,15 %
27.09.2021 16:33 20,4 C 76 % 1013,3 hPa 0,0 l/m 18,0 km/h SO 133 0 min 0,000 mm 0,0 UV-I 58 W/m 16,0 C 17,1 C 28,7 km/h 100,00 %
27.09.2021 16:32 20,4 C 75 % 1013,3 hPa 0,0 l/m 12,6 km/h S 185 0 min 0,000 mm 0,0 UV-I 50 W/m 15,8 C 18,3 C 21,0 km/h 92,86 %
27.09.2021 16:31 20,5 C 75 % 1013,3 hPa 0,0 l/m 15,5 km/h S 171 0 min 0,000 mm 0,0 UV-I 47 W/m 15,9 C 17,7 C 28,7 km/h 100,00 %
27.09.2021 16:30 20,6 C 75 % 1013,3 hPa 0,0 l/m 14,7 km/h SO 144 0 min 0,000 mm 0,0 UV-I 49 W/m 16,0 C 18,0 C 23,0 km/h 95,65 %
27.09.2021 16:29 20,6 C 75 % 1013,2 hPa 0,0 l/m 11,6 km/h S-SO 167 0 min 0,000 mm 0,0 UV-I 59 W/m 16,0 C 18,8 C 23,0 km/h 100,00 %
27.09.2021 16:28 20,6 C 75 % 1013,2 hPa 0,0 l/m 9,9 km/h S-SO 168 0 min 0,000 mm 0,0 UV-I 76 W/m 16,0 C 19,3 C 15,3 km/h 96,15 %
27.09.2021 16:27 20,7 C 76 % 1013,2 hPa 0,0 l/m 10,4 km/h S-SO 148 0 min 0,000 mm 0,1 UV-I 97 W/m 16,3 C 19,3 C 19,1 km/h 91,67 %
27.09.2021 16:26 20,7 C 76 % 1013,2 hPa 0,0 l/m 7,7 km/h S-SO 166 0 min 0,000 mm 0,5 UV-I 118 W/m 16,3 C 20,2 C 21,0 km/h 100,00 %
27.09.2021 16:25 20,7 C 76 % 1013,3 hPa 0,0 l/m 5,3 km/h S 186 0 min 0,000 mm 0,6 UV-I 139 W/m 16,3 C 20,7 C 11,5 km/h 96,67 %
27.09.2021 16:24 20,7 C 75 % 1013,2 hPa 0,0 l/m 7,8 km/h S 178 0 min 0,000 mm 0,6 UV-I 151 W/m 16,1 C 20,2 C 21,0 km/h 100,00 %
27.09.2021 16:23 20,7 C 75 % 1013,1 hPa 0,0 l/m 8,8 km/h SW 234 0 min 0,000 mm 0,6 UV-I 151 W/m 16,1 C 19,8 C 15,3 km/h 83,33 %
27.09.2021 16:22 20,7 C 75 % 1013,2 hPa 0,0 l/m 11,9 km/h S-SO 162 0 min 0,000 mm 0,6 UV-I 141 W/m 16,1 C 18,9 C 13,4 km/h 97,73 %
27.09.2021 16:21 20,7 C 75 % 1013,2 hPa 0,0 l/m 9,3 km/h S 185 0 min 0,000 mm 0,6 UV-I 129 W/m 16,1 C 19,6 C 13,4 km/h 100,00 %
27.09.2021 16:20 20,7 C 75 % 1013,2 hPa 0,0 l/m 6,3 km/h S 180 0 min 0,000 mm 0,5 UV-I 124 W/m 16,1 C 20,7 C 11,5 km/h 96,15 %
27.09.2021 16:19 20,7 C 75 % 1013,2 hPa 0,0 l/m 7,4 km/h S 176 0 min 0,000 mm 0,5 UV-I 119 W/m 16,1 C 20,3 C 13,4 km/h 100,00 %
27.09.2021 16:18 20,7 C 75 % 1013,2 hPa 0,0 l/m 12,6 km/h S 182 0 min 0,000 mm 0,6 UV-I 121 W/m 16,1 C 18,7 C 23,0 km/h 96,67 %
27.09.2021 16:17 20,7 C 75 % 1013,2 hPa 0,0 l/m 9,4 km/h S 175 0 min 0,000 mm 0,6 UV-I 129 W/m 16,1 C 19,6 C 17,2 km/h 100,00 %
27.09.2021 16:16 20,7 C 76 % 1013,2 hPa 0,0 l/m 9,8 km/h S-SO 163 0 min 0,000 mm 0,6 UV-I 137 W/m 16,3 C 19,5 C 13,4 km/h 96,30 %
27.09.2021 16:15 20,7 C 75 % 1013,2 hPa 0,0 l/m 6,7 km/h S-SW 194 0 min 0,000 mm 0,6 UV-I 150 W/m 16,1 C 20,6 C 15,3 km/h 100,00 %
27.09.2021 16:14 20,7 C 75 % 1013,2 hPa 0,0 l/m 7,8 km/h S-SO 162 0 min 0,000 mm 0,7 UV-I 159 W/m 16,1 C 20,2 C 13,4 km/h 93,33 %
27.09.2021 16:13 20,7 C 75 % 1013,2 hPa 0,0 l/m 9,2 km/h SO 142 0 min 0,000 mm 0,6 UV-I 160 W/m 16,1 C 19,7 C 15,3 km/h 100,00 %
27.09.2021 16:12 20,7 C 74 % 1013,1 hPa 0,0 l/m 7,1 km/h S 181 0 min 0,000 mm 0,6 UV-I 154 W/m 15,9 C 20,4 C 13,4 km/h 91,67 %
27.09.2021 16:11 20,7 C 74 % 1013,2 hPa 0,0 l/m 9,2 km/h S 173 0 min 0,000 mm 0,6 UV-I 146 W/m 15,9 C 19,7 C 13,4 km/h 100,00 %
27.09.2021 16:10 20,8 C 74 % 1013,1 hPa 0,0 l/m 11,3 km/h S 171 0 min 0,000 mm 0,6 UV-I 135 W/m 16,0 C 19,1 C 19,1 km/h 96,67 %
27.09.2021 16:09 20,8 C 74 % 1013,2 hPa 0,0 l/m 14,2 km/h S-SW 206 0 min 0,000 mm 0,6 UV-I 127 W/m 16,0 C 18,4 C 26,8 km/h 100,00 %
27.09.2021 16:08 20,9 C 74 % 1013,1 hPa 0,0 l/m 10,6 km/h S-SO 166 0 min 0,000 mm 0,6 UV-I 119 W/m 16,1 C 19,5 C 19,1 km/h 96,30 %
27.09.2021 16:07 20,9 C 74 % 1013,1 hPa 0,0 l/m 5,2 km/h S-SO 151 0 min 0,000 mm 0,6 UV-I 116 W/m 16,1 C 20,9 C 9,6 km/h 95,65 %
27.09.2021 16:06 21,0 C 73 % 1013,1 hPa 0,0 l/m 8,7 km/h S-SW 194 0 min 0,000 mm 0,6 UV-I 118 W/m 16,0 C 20,2 C 13,4 km/h 100,00 %
27.09.2021 16:05 21,1 C 73 % 1013,1 hPa 0,0 l/m 11,3 km/h S 179 0 min 0,000 mm 0,6 UV-I 121 W/m 16,1 C 19,5 C 21,0 km/h 95,65 %
27.09.2021 16:04 21,1 C 72 % 1013,1 hPa 0,0 l/m 10,7 km/h SO 132 0 min 0,000 mm 0,6 UV-I 123 W/m 15,8 C 19,7 C 21,0 km/h 100,00 %
27.09.2021 16:03 21,2 C 72 % 1013,0 hPa 0,0 l/m 8,8 km/h S-SO 167 0 min 0,000 mm 0,6 UV-I 123 W/m 15,9 C 20,3 C 15,3 km/h 86,67 %
27.09.2021 16:02 21,2 C 72 % 1013,0 hPa 0,0 l/m 11,6 km/h S 181 0 min 0,000 mm 0,6 UV-I 123 W/m 15,9 C 19,5 C 17,2 km/h 100,00 %
27.09.2021 16:01 21,3 C 72 % 1013,0 hPa 0,0 l/m 11,8 km/h SO 134 0 min 0,152 mm 0,6 UV-I 121 W/m 16,0 C 19,6 C 17,2 km/h 96,15 %
27.09.2021 16:00 21,3 C 72 % 1013,1 hPa 0,0 l/m 13,4 km/h S-SO 157 0 min 0,000 mm 0,6 UV-I 119 W/m 16,0 C 19,2 C 21,0 km/h 100,00 %
27.09.2021 15:59 21,3 C 71 % 1013,1 hPa 0,0 l/m 4,3 km/h S 172 0 min 0,000 mm 0,6 UV-I 118 W/m 15,8 C 21,3 C 9,6 km/h 97,14 %
27.09.2021 15:58 21,3 C 71 % 1013,0 hPa 0,0 l/m 8,4 km/h SO 138 0 min 0,000 mm 0,6 UV-I 114 W/m 15,8 C 20,6 C 13,4 km/h 93,33 %
27.09.2021 15:57 21,3 C 71 % 1013,1 hPa 0,0 l/m 8,2 km/h S-SO 163 0 min 0,000 mm 0,6 UV-I 107 W/m 15,8 C 20,6 C 15,3 km/h 100,00 %
27.09.2021 15:56 21,4 C 71 % 1013,1 hPa 0,0 l/m 9,1 km/h S 184 0 min 0,000 mm 0,6 UV-I 108 W/m 15,9 C 20,5 C 17,2 km/h 95,65 %
27.09.2021 15:55 21,4 C 71 % 1013,1 hPa 0,0 l/m 16,0 km/h S-SO 161 0 min 0,000 mm 0,6 UV-I 112 W/m 15,9 C 18,7 C 26,8 km/h 100,00 %
27.09.2021 15:54 21,4 C 71 % 1013,1 hPa 0,0 l/m 13,4 km/h S-SO 155 0 min 0,000 mm 0,7 UV-I 118 W/m 15,9 C 19,3 C 24,9 km/h 92,86 %
27.09.2021 15:53 21,4 C 70 % 1013,1 hPa 0,0 l/m 10,4 km/h S-SO 153 0 min 0,000 mm 0,7 UV-I 128 W/m 15,7 C 20,1 C 17,2 km/h 100,00 %
27.09.2021 15:52 21,4 C 70 % 1013,0 hPa 0,0 l/m 16,6 km/h S-SO 160 0 min 0,000 mm 0,7 UV-I 137 W/m 15,7 C 18,6 C 24,9 km/h 96,15 %
27.09.2021 15:51 21,5 C 70 % 1013,0 hPa 0,0 l/m 13,1 km/h S 175 0 min 0,000 mm 0,8 UV-I 143 W/m 15,8 C 19,5 C 23,0 km/h 96,67 %
27.09.2021 15:50 21,5 C 70 % 1013,1 hPa 0,0 l/m 8,1 km/h SO 130 0 min 0,000 mm 0,8 UV-I 149 W/m 15,8 C 20,9 C 13,4 km/h 100,00 %
27.09.2021 15:49 21,5 C 70 % 1013,0 hPa 0,0 l/m 7,7 km/h S 174 0 min 0,000 mm 0,9 UV-I 160 W/m 15,8 C 21,0 C 11,5 km/h 96,30 %
27.09.2021 15:48 21,5 C 70 % 1013,0 hPa 0,0 l/m 11,0 km/h S-SO 148 0 min 0,000 mm 0,9 UV-I 170 W/m 15,8 C 20,0 C 17,2 km/h 96,55 %
27.09.2021 15:47 21,5 C 70 % 1013,0 hPa 0,0 l/m 15,2 km/h S 172 0 min 0,000 mm 0,9 UV-I 174 W/m 15,8 C 19,0 C 24,9 km/h 96,30 %
27.09.2021 15:46 21,5 C 70 % 1013,0 hPa 0,0 l/m 13,1 km/h S-SO 157 0 min 0,000 mm 0,9 UV-I 174 W/m 15,8 C 19,5 C 19,1 km/h 100,00 %
27.09.2021 15:45 21,5 C 70 % 1012,9 hPa 0,0 l/m 9,5 km/h S-SW 194 0 min 0,000 mm 0,9 UV-I 175 W/m 15,8 C 20,4 C 17,2 km/h 96,00 %
27.09.2021 15:44 21,6 C 70 % 1012,9 hPa 0,0 l/m 10,6 km/h S-SO 167 0 min 0,000 mm 1,0 UV-I 178 W/m 15,9 C 20,2 C 19,1 km/h 100,00 %
27.09.2021 15:43 21,6 C 70 % 1012,9 hPa 0,0 l/m 14,8 km/h S-SO 148 0 min 0,000 mm 1,0 UV-I 181 W/m 15,9 C 19,2 C 23,0 km/h 95,83 %
27.09.2021 15:42 21,6 C 70 % 1012,9 hPa 0,0 l/m 16,6 km/h S 173 0 min 0,000 mm 1,0 UV-I 185 W/m 15,9 C 18,9 C 26,8 km/h 95,65 %
27.09.2021 15:41 21,6 C 70 % 1012,9 hPa 0,0 l/m 13,8 km/h S 173 0 min 0,000 mm 1,0 UV-I 189 W/m 15,9 C 19,4 C 32,5 km/h 100,00 %
27.09.2021 15:40 21,6 C 70 % 1013,0 hPa 0,0 l/m 4,3 km/h S 180 0 min 0,000 mm 1,0 UV-I 193 W/m 15,9 C 21,6 C 7,7 km/h 98,21 %
27.09.2021 15:39 21,6 C 70 % 1012,9 hPa 0,0 l/m 13,7 km/h S-SO 153 0 min 0,000 mm 1,1 UV-I 199 W/m 15,9 C 19,5 C 26,8 km/h 99,26 %
27.09.2021 15:38 21,7 C 70 % 1012,9 hPa 0,0 l/m 15,3 km/h S-SO 165 0 min 0,000 mm 1,1 UV-I 208 W/m 16,0 C 19,2 C 21,0 km/h 93,33 %
27.09.2021 15:37 21,7 C 71 % 1012,9 hPa 0,0 l/m 9,6 km/h O 97 0 min 0,000 mm 1,2 UV-I 220 W/m 16,2 C 20,6 C 15,3 km/h 100,00 %
27.09.2021 15:36 21,7 C 71 % 1012,9 hPa 0,0 l/m 13,1 km/h S-SO 151 0 min 0,000 mm 1,2 UV-I 229 W/m 16,2 C 19,7 C 21,0 km/h 92,59 %
27.09.2021 15:35 21,7 C 71 % 1012,9 hPa 0,0 l/m 12,0 km/h S 186 0 min 0,000 mm 1,2 UV-I 237 W/m 16,2 C 20,0 C 23,0 km/h 100,00 %
27.09.2021 15:34 21,7 C 70 % 1012,9 hPa 0,0 l/m 10,2 km/h S-SO 150 0 min 0,000 mm 1,2 UV-I 237 W/m 16,0 C 20,5 C 17,2 km/h 96,30 %
27.09.2021 15:33 21,7 C 70 % 1012,9 hPa 0,0 l/m 8,5 km/h S-SO 163 0 min 0,000 mm 1,2 UV-I 233 W/m 16,0 C 21,0 C 13,4 km/h 100,00 %
27.09.2021 15:32 21,7 C 71 % 1012,9 hPa 0,0 l/m 4,5 km/h S 180 0 min 0,000 mm 1,1 UV-I 227 W/m 16,2 C 21,7 C 7,7 km/h 100,00 %
27.09.2021 15:31 21,6 C 70 % 1012,9 hPa 0,0 l/m 7,3 km/h S-SO 158 0 min 0,000 mm 1,1 UV-I 217 W/m 15,9 C 21,3 C 13,4 km/h 95,65 %
27.09.2021 15:30 21,6 C 70 % 1012,9 hPa 0,0 l/m 10,7 km/h SO 139 0 min 0,000 mm 1,1 UV-I 211 W/m 15,9 C 20,2 C 15,3 km/h 100,00 %
27.09.2021 15:29 21,6 C 70 % 1012,8 hPa 0,0 l/m 10,6 km/h S 178 0 min 0,000 mm 1,1 UV-I 209 W/m 15,9 C 20,2 C 17,2 km/h 91,30 %
27.09.2021 15:28 21,6 C 70 % 1012,8 hPa 0,0 l/m 12,0 km/h S 173 0 min 0,000 mm 1,1 UV-I 212 W/m 15,9 C 19,9 C 23,0 km/h 100,00 %
27.09.2021 15:27 21,6 C 70 % 1012,9 hPa 0,0 l/m 10,2 km/h S-SW 194 0 min 0,000 mm 1,2 UV-I 216 W/m 15,9 C 20,4 C 19,1 km/h 95,83 %
27.09.2021 15:26 21,6 C 70 % 1012,9 hPa 0,0 l/m 11,4 km/h S-SO 164 0 min 0,000 mm 1,2 UV-I 224 W/m 15,9 C 20,0 C 17,2 km/h 95,83 %
27.09.2021 15:25 21,6 C 70 % 1012,8 hPa 0,0 l/m 8,2 km/h SW 229 0 min 0,000 mm 1,2 UV-I 233 W/m 15,9 C 21,0 C 13,4 km/h 100,00 %
27.09.2021 15:24 21,6 C 70 % 1012,8 hPa 0,0 l/m 12,2 km/h S-SW 194 0 min 0,000 mm 1,2 UV-I 241 W/m 15,9 C 19,8 C 17,2 km/h 96,30 %
27.09.2021 15:23 21,6 C 70 % 1012,8 hPa 0,0 l/m 10,7 km/h S 178 0 min 0,000 mm 1,2 UV-I 244 W/m 15,9 C 20,2 C 19,1 km/h 100,00 %
27.09.2021 15:22 21,6 C 70 % 1012,7 hPa 0,0 l/m 15,5 km/h S-SO 163 0 min 0,000 mm 1,2 UV-I 244 W/m 15,9 C 19,1 C 24,9 km/h 96,15 %
27.09.2021 15:21 21,6 C 70 % 1012,7 hPa 0,0 l/m 10,8 km/h S 178 0 min 0,000 mm 1,2 UV-I 242 W/m 15,9 C 20,2 C 19,1 km/h 96,88 %
27.09.2021 15:20 21,6 C 70 % 1012,7 hPa 0,0 l/m 8,8 km/h S-SW 198 0 min 0,000 mm 1,2 UV-I 240 W/m 15,9 C 20,8 C 11,5 km/h 100,00 %
27.09.2021 15:19 21,6 C 70 % 1012,7 hPa 0,0 l/m 10,2 km/h S-SO 165 0 min 0,000 mm 1,3 UV-I 238 W/m 15,9 C 20,4 C 13,4 km/h 96,30 %
27.09.2021 15:18 21,6 C 70 % 1012,7 hPa 0,0 l/m 11,2 km/h S-SO 161 0 min 0,000 mm 1,3 UV-I 237 W/m 15,9 C 20,1 C 19,1 km/h 97,37 %
27.09.2021 15:17 21,6 C 71 % 1012,7 hPa 0,0 l/m 10,9 km/h SW 225 0 min 0,000 mm 1,3 UV-I 237 W/m 16,1 C 20,2 C 19,1 km/h 91,67 %
27.09.2021 15:16 21,6 C 71 % 1012,7 hPa 0,0 l/m 7,5 km/h S-SO 159 0 min 0,000 mm 1,3 UV-I 239 W/m 16,1 C 21,2 C 13,4 km/h 100,00 %
27.09.2021 15:15 21,6 C 70 % 1012,7 hPa 0,0 l/m 12,5 km/h S-SO 159 0 min 0,000 mm 1,3 UV-I 244 W/m 15,9 C 19,7 C 23,0 km/h 91,67 %
27.09.2021 15:14 21,6 C 71 % 1012,7 hPa 0,0 l/m 11,0 km/h S-SW 201 0 min 0,000 mm 1,3 UV-I 248 W/m 16,1 C 20,1 C 19,1 km/h 100,00 %
27.09.2021 15:13 21,6 C 71 % 1012,6 hPa 0,0 l/m 11,8 km/h S 182 0 min 0,000 mm 1,3 UV-I 257 W/m 16,1 C 19,9 C 17,2 km/h 95,83 %
27.09.2021 15:12 21,6 C 71 % 1012,6 hPa 0,0 l/m 13,7 km/h S-SW 201 0 min 0,000 mm 1,4 UV-I 270 W/m 16,1 C 19,5 C 23,0 km/h 95,65 %
27.09.2021 15:11 21,6 C 71 % 1012,6 hPa 0,0 l/m 6,9 km/h S-SO 167 0 min 0,000 mm 1,4 UV-I 269 W/m 16,1 C 21,4 C 11,5 km/h 95,83 %
27.09.2021 15:10 21,5 C 71 % 1012,6 hPa 0,0 l/m 10,0 km/h S 169 0 min 0,000 mm 1,4 UV-I 272 W/m 16,0 C 20,3 C 13,4 km/h 100,00 %
27.09.2021 15:09 21,5 C 71 % 1012,6 hPa 0,0 l/m 7,6 km/h S 173 0 min 0,000 mm 1,3 UV-I 273 W/m 16,0 C 21,1 C 11,5 km/h 96,67 %
27.09.2021 15:08 21,4 C 71 % 1012,6 hPa 0,0 l/m 5,8 km/h S-SO 158 0 min 0,000 mm 1,3 UV-I 265 W/m 15,9 C 21,4 C 9,6 km/h 92,86 %
27.09.2021 15:07 21,4 C 71 % 1012,6 hPa 0,0 l/m 15,8 km/h S-SO 150 0 min 0,000 mm 1,3 UV-I 259 W/m 15,9 C 18,8 C 23,0 km/h 100,00 %
27.09.2021 15:06 21,4 C 71 % 1012,5 hPa 0,0 l/m 11,8 km/h S 188 0 min 0,000 mm 1,3 UV-I 275 W/m 15,9 C 19,7 C 19,1 km/h 95,65 %
27.09.2021 15:05 21,4 C 71 % 1012,6 hPa 0,0 l/m 9,8 km/h S 173 0 min 0,000 mm 1,2 UV-I 251 W/m 15,9 C 20,2 C 15,3 km/h 100,00 %
27.09.2021 15:04 21,4 C 71 % 1012,6 hPa 0,0 l/m 13,7 km/h S-SO 158 0 min 0,000 mm 1,2 UV-I 247 W/m 15,9 C 19,2 C 21,0 km/h 93,33 %
27.09.2021 15:03 21,4 C 71 % 1012,6 hPa 0,0 l/m 11,4 km/h S-SO 156 0 min 0,000 mm 1,2 UV-I 236 W/m 15,9 C 19,8 C 21,0 km/h 100,00 %
27.09.2021 15:02 21,4 C 72 % 1012,5 hPa 0,0 l/m 15,1 km/h S 173 0 min 0,000 mm 1,1 UV-I 232 W/m 16,1 C 18,9 C 24,9 km/h 96,15 %
27.09.2021 15:01 21,4 C 72 % 1012,5 hPa 0,0 l/m 15,1 km/h S 175 0 min 0,152 mm 1,1 UV-I 227 W/m 16,1 C 18,9 C 24,9 km/h 96,30 %
27.09.2021 15:00 21,4 C 72 % 1012,5 hPa 0,0 l/m 9,9 km/h S-SO 161 0 min 0,000 mm 1,1 UV-I 221 W/m 16,1 C 20,2 C 15,3 km/h 100,00 %
27.09.2021 14:59 21,4 C 72 % 1012,5 hPa 0,0 l/m 14,9 km/h S-SW 197 0 min 0,000 mm 1,2 UV-I 216 W/m 16,1 C 19,0 C 24,9 km/h 96,67 %
27.09.2021 14:58 21,4 C 72 % 1012,6 hPa 0,0 l/m 9,9 km/h O-SO 111 0 min 0,000 mm 1,2 UV-I 217 W/m 16,1 C 20,2 C 17,2 km/h 100,00 %
27.09.2021 14:57 21,4 C 73 % 1012,6 hPa 0,0 l/m 10,8 km/h S 182 0 min 0,000 mm 1,2 UV-I 222 W/m 16,4 C 20,0 C 17,2 km/h 96,15 %
27.09.2021 14:56 21,4 C 73 % 1012,6 hPa 0,0 l/m 9,9 km/h S-SO 157 0 min 0,000 mm 1,2 UV-I 230 W/m 16,4 C 20,2 C 15,3 km/h 100,00 %
27.09.2021 14:55 21,4 C 73 % 1012,6 hPa 0,0 l/m 12,5 km/h SO 137 0 min 0,000 mm 1,3 UV-I 237 W/m 16,4 C 19,5 C 21,0 km/h 95,65 %
27.09.2021 14:54 21,4 C 73 % 1012,6 hPa 0,0 l/m 7,7 km/h S 190 0 min 0,000 mm 1,3 UV-I 246 W/m 16,4 C 20,9 C 11,5 km/h 100,00 %
27.09.2021 14:53 21,4 C 72 % 1012,6 hPa 0,0 l/m 7,5 km/h S-SO 159 0 min 0,000 mm 1,3 UV-I 252 W/m 16,1 C 21,0 C 11,5 km/h 96,15 %
27.09.2021 14:52 21,4 C 72 % 1012,7 hPa 0,0 l/m 12,3 km/h S 185 0 min 0,000 mm 1,3 UV-I 257 W/m 16,1 C 19,6 C 19,1 km/h 100,00 %
27.09.2021 14:51 21,4 C 73 % 1012,7 hPa 0,0 l/m 8,4 km/h S 180 0 min 0,000 mm 1,3 UV-I 258 W/m 16,4 C 20,7 C 13,4 km/h 96,15 %
27.09.2021 14:50 21,4 C 72 % 1012,7 hPa 0,0 l/m 8,9 km/h S-SO 159 0 min 0,000 mm 1,3 UV-I 258 W/m 16,1 C 20,5 C 13,4 km/h 96,30 %
27.09.2021 14:49 21,3 C 73 % 1012,7 hPa 0,0 l/m 9,6 km/h S-SO 151 0 min 0,000 mm 1,3 UV-I 258 W/m 16,3 C 20,2 C 19,1 km/h 100,00 %
27.09.2021 14:48 21,3 C 73 % 1012,7 hPa 0,0 l/m 9,2 km/h S 183 0 min 0,000 mm 1,3 UV-I 254 W/m 16,3 C 20,3 C 13,4 km/h 91,67 %
27.09.2021 14:47 21,3 C 73 % 1012,7 hPa 0,0 l/m 6,1 km/h S 169 0 min 0,000 mm 1,3 UV-I 243 W/m 16,3 C 21,3 C 7,7 km/h 100,00 %
27.09.2021 14:46 21,3 C 72 % 1012,7 hPa 0,0 l/m 8,0 km/h S-SO 167 0 min 0,000 mm 1,2 UV-I 237 W/m 16,0 C 20,7 C 17,2 km/h 95,83 %
27.09.2021 14:45 21,3 C 73 % 1012,8 hPa 0,0 l/m 4,9 km/h S 182 0 min 0,000 mm 1,2 UV-I 232 W/m 16,3 C 21,3 C 11,5 km/h 100,00 %
27.09.2021 14:44 21,3 C 72 % 1012,8 hPa 0,0 l/m 6,4 km/h S 184 0 min 0,000 mm 1,2 UV-I 229 W/m 16,0 C 21,3 C 11,5 km/h 95,83 %
27.09.2021 14:43 21,3 C 72 % 1012,8 hPa 0,0 l/m 10,2 km/h S-SW 194 0 min 0,000 mm 1,2 UV-I 229 W/m 16,0 C 20,0 C 19,1 km/h 100,00 %
27.09.2021 14:42 21,3 C 72 % 1012,8 hPa 0,0 l/m 16,0 km/h S 179 0 min 0,000 mm 1,2 UV-I 229 W/m 16,0 C 18,6 C 23,0 km/h 100,00 %
27.09.2021 14:41 21,3 C 72 % 1012,8 hPa 0,0 l/m 9,0 km/h S-SO 159 0 min 0,000 mm 1,2 UV-I 229 W/m 16,0 C 20,4 C 13,4 km/h 96,15 %
27.09.2021 14:40 21,3 C 72 % 1012,9 hPa 0,0 l/m 8,2 km/h S-SW 198 0 min 0,000 mm 1,2 UV-I 223 W/m 16,0 C 20,6 C 13,4 km/h 100,00 %
27.09.2021 14:39 21,3 C 73 % 1012,9 hPa 0,0 l/m 13,9 km/h S 170 0 min 0,000 mm 1,2 UV-I 217 W/m 16,3 C 19,1 C 23,0 km/h 100,00 %
27.09.2021 14:38 21,3 C 73 % 1012,9 hPa 0,0 l/m 11,9 km/h S 171 0 min 0,000 mm 1,2 UV-I 212 W/m 16,3 C 19,6 C 19,1 km/h 96,55 %
27.09.2021 14:37 21,3 C 73 % 1012,8 hPa 0,0 l/m 11,9 km/h SW 236 0 min 0,000 mm 1,2 UV-I 209 W/m 16,3 C 19,6 C 17,2 km/h 100,00 %
27.09.2021 14:36 21,3 C 74 % 1012,9 hPa 0,0 l/m 8,1 km/h S 171 0 min 0,000 mm 1,2 UV-I 207 W/m 16,5 C 20,7 C 17,2 km/h 96,15 %
27.09.2021 14:35 21,3 C 74 % 1012,8 hPa 0,0 l/m 6,5 km/h S 176 0 min 0,000 mm 1,2 UV-I 207 W/m 16,5 C 21,3 C 11,5 km/h 100,00 %
27.09.2021 14:34 21,3 C 74 % 1012,9 hPa 0,0 l/m 6,7 km/h S 175 0 min 0,000 mm 1,3 UV-I 211 W/m 16,5 C 21,2 C 11,5 km/h 100,00 %
27.09.2021 14:33 21,3 C 74 % 1012,9 hPa 0,0 l/m 6,5 km/h S 175 0 min 0,000 mm 1,3 UV-I 215 W/m 16,5 C 21,3 C 11,5 km/h 100,00 %
27.09.2021 14:32 21,2 C 74 % 1012,9 hPa 0,0 l/m 6,5 km/h S 180 0 min 0,000 mm 1,3 UV-I 222 W/m 16,4 C 21,2 C 11,5 km/h 100,00 %
27.09.2021 14:31 21,2 C 74 % 1012,9 hPa 0,0 l/m 7,8 km/h S 184 0 min 0,000 mm 1,3 UV-I 230 W/m 16,4 C 20,7 C 11,5 km/h 100,00 %
27.09.2021 14:30 21,2 C 74 % 1012,9 hPa 0,0 l/m 10,0 km/h S-SO 167 0 min 0,000 mm 1,3 UV-I 241 W/m 16,4 C 20,0 C 17,2 km/h 100,00 %
27.09.2021 14:29 21,2 C 74 % 1012,9 hPa 0,0 l/m 7,6 km/h S-SO 161 0 min 0,000 mm 1,4 UV-I 249 W/m 16,4 C 20,8 C 13,4 km/h 100,00 %
27.09.2021 14:28 21,1 C 74 % 1012,9 hPa 0,0 l/m 3,1 km/h S 169 0 min 0,000 mm 1,4 UV-I 256 W/m 16,3 C 21,1 C 9,6 km/h 100,00 %
27.09.2021 14:27 21,1 C 74 % 1012,9 hPa 0,0 l/m 8,5 km/h S-SO 155 0 min 0,000 mm 1,3 UV-I 258 W/m 16,3 C 20,3 C 13,4 km/h 100,00 %
27.09.2021 14:26 21,1 C 75 % 1013,0 hPa 0,0 l/m 9,4 km/h S-SO 161 0 min 0,000 mm 1,3 UV-I 257 W/m 16,5 C 20,0 C 13,4 km/h 100,00 %
27.09.2021 14:25 21,1 C 75 % 1013,0 hPa 0,0 l/m 8,6 km/h S-SW 202 0 min 0,000 mm 1,3 UV-I 248 W/m 16,5 C 20,3 C 13,4 km/h 100,00 %
27.09.2021 14:24 21,1 C 75 % 1013,0 hPa 0,0 l/m 11,6 km/h S 179 0 min 0,000 mm 1,2 UV-I 240 W/m 16,5 C 19,4 C 17,2 km/h 100,00 %
27.09.2021 14:23 21,1 C 75 % 1013,0 hPa 0,0 l/m 5,8 km/h S 175 0 min 0,000 mm 1,1 UV-I 216 W/m 16,5 C 21,1 C 13,4 km/h 100,00 %
27.09.2021 14:22 21,0 C 75 % 1013,0 hPa 0,0 l/m 9,4 km/h S 179 0 min 0,000 mm 0,9 UV-I 179 W/m 16,4 C 19,9 C 11,5 km/h 100,00 %
27.09.2021 14:21 21,0 C 75 % 1013,0 hPa 0,0 l/m 8,3 km/h S 188 0 min 0,000 mm 0,8 UV-I 166 W/m 16,4 C 20,3 C 13,4 km/h 100,00 %
27.09.2021 14:20 21,0 C 75 % 1013,0 hPa 0,0 l/m 8,8 km/h S-SW 207 0 min 0,000 mm 0,9 UV-I 168 W/m 16,4 C 20,1 C 13,4 km/h 100,00 %
27.09.2021 14:19 20,9 C 75 % 1013,0 hPa 0,0 l/m 8,3 km/h S-SW 207 0 min 0,000 mm 1,0 UV-I 178 W/m 16,3 C 20,2 C 11,5 km/h 100,00 %
27.09.2021 14:18 20,9 C 74 % 1013,0 hPa 0,0 l/m 9,5 km/h S-SO 162 0 min 0,000 mm 1,0 UV-I 179 W/m 16,1 C 19,8 C 13,4 km/h 100,00 %
27.09.2021 14:17 20,9 C 74 % 1012,9 hPa 0,0 l/m 7,5 km/h S 171 0 min 0,000 mm 0,9 UV-I 164 W/m 16,1 C 20,5 C 9,6 km/h 97,37 %
27.09.2021 14:16 20,9 C 74 % 1013,0 hPa 0,0 l/m 13,4 km/h S-SO 159 0 min 0,000 mm 0,7 UV-I 133 W/m 16,1 C 18,7 C 19,1 km/h 100,00 %
27.09.2021 14:15 21,0 C 74 % 1013,0 hPa 0,0 l/m 12,1 km/h S-SW 209 0 min 0,000 mm 0,6 UV-I 109 W/m 16,2 C 19,2 C 23,0 km/h 100,00 %
27.09.2021 14:14 21,0 C 74 % 1013,0 hPa 0,0 l/m 11,2 km/h S 180 0 min 0,000 mm 0,5 UV-I 97 W/m 16,2 C 19,4 C 17,2 km/h 100,00 %
27.09.2021 14:13 21,1 C 74 % 1013,0 hPa 0,0 l/m 11,4 km/h S 190 0 min 0,000 mm 0,6 UV-I 98 W/m 16,3 C 19,5 C 15,3 km/h 95,65 %
27.09.2021 14:12 21,1 C 74 % 1013,0 hPa 0,0 l/m 13,1 km/h S-SO 167 0 min 0,000 mm 0,6 UV-I 102 W/m 16,3 C 19,0 C 19,1 km/h 100,00 %
27.09.2021 14:11 21,1 C 74 % 1013,1 hPa 0,0 l/m 11,6 km/h S-SO 168 0 min 0,000 mm 0,6 UV-I 103 W/m 16,3 C 19,4 C 21,0 km/h 100,00 %
27.09.2021 14:10 21,1 C 74 % 1013,0 hPa 0,0 l/m 11,7 km/h S-SO 167 0 min 0,000 mm 0,6 UV-I 102 W/m 16,3 C 19,4 C 19,1 km/h 100,00 %
27.09.2021 14:09 21,2 C 73 % 1013,0 hPa 0,0 l/m 16,2 km/h S-SO 164 0 min 0,000 mm 0,6 UV-I 101 W/m 16,2 C 18,5 C 24,9 km/h 96,15 %
27.09.2021 14:08 21,2 C 73 % 1013,0 hPa 0,0 l/m 9,9 km/h S-SO 153 0 min 0,000 mm 0,6 UV-I 100 W/m 16,2 C 20,0 C 11,5 km/h 100,00 %
27.09.2021 14:07 21,3 C 73 % 1013,0 hPa 0,0 l/m 7,7 km/h S-SO 167 0 min 0,000 mm 0,6 UV-I 102 W/m 16,3 C 20,8 C 11,5 km/h 100,00 %
27.09.2021 14:06 21,3 C 73 % 1013,1 hPa 0,0 l/m 13,1 km/h S-SO 154 0 min 0,000 mm 0,7 UV-I 110 W/m 16,3 C 19,3 C 24,9 km/h 100,00 %
27.09.2021 14:05 21,3 C 73 % 1013,0 hPa 0,0 l/m 13,3 km/h S-SO 157 0 min 0,000 mm 0,8 UV-I 120 W/m 16,3 C 19,2 C 19,1 km/h 100,00 %
27.09.2021 14:04 21,4 C 73 % 1013,0 hPa 0,0 l/m 13,5 km/h S-SO 150 0 min 0,000 mm 0,9 UV-I 132 W/m 16,4 C 19,3 C 23,0 km/h 100,00 %
27.09.2021 14:03 21,4 C 72 % 1013,0 hPa 0,0 l/m 15,3 km/h S-SO 148 0 min 0,000 mm 1,0 UV-I 146 W/m 16,1 C 18,9 C 23,0 km/h 100,00 %
27.09.2021 14:02 21,5 C 73 % 1013,0 hPa 0,0 l/m 15,9 km/h S-SW 209 0 min 0,000 mm 1,1 UV-I 170 W/m 16,4 C 18,9 C 32,5 km/h 100,00 %
27.09.2021 14:01 21,5 C 73 % 1013,0 hPa 0,0 l/m 11,0 km/h S-SO 157 0 min 0,229 mm 1,2 UV-I 199 W/m 16,4 C 20,0 C 17,2 km/h 100,00 %
27.09.2021 14:00 21,5 C 72 % 1012,9 hPa 0,0 l/m 8,0 km/h S 170 0 min 0,000 mm 1,3 UV-I 220 W/m 16,2 C 20,9 C 11,5 km/h 96,15 %
27.09.2021 13:59 21,5 C 72 % 1012,9 hPa 0,0 l/m 9,3 km/h S-SO 147 0 min 0,000 mm 1,3 UV-I 217 W/m 16,2 C 20,5 C 19,1 km/h 100,00 %
27.09.2021 13:58 21,6 C 72 % 1012,9 hPa 0,0 l/m 15,2 km/h S-SW 196 0 min 0,000 mm 1,4 UV-I 235 W/m 16,3 C 19,1 C 24,9 km/h 96,55 %
27.09.2021 13:57 21,6 C 72 % 1012,9 hPa 0,0 l/m 12,5 km/h S 175 0 min 0,000 mm 1,6 UV-I 268 W/m 16,3 C 19,7 C 21,0 km/h 96,30 %
27.09.2021 13:56 21,6 C 72 % 1012,9 hPa 0,0 l/m 12,5 km/h S 171 1 min 0,000 mm 1,8 UV-I 316 W/m 16,3 C 19,7 C 19,1 km/h 100,00 %
27.09.2021 13:55 21,6 C 72 % 1012,9 hPa 0,0 l/m 13,3 km/h S-SO 151 1 min 0,000 mm 1,8 UV-I 350 W/m 16,3 C 19,6 C 23,0 km/h 95,83 %
27.09.2021 13:54 21,7 C 72 % 1012,9 hPa 0,0 l/m 17,0 km/h S 173 1 min 0,000 mm 1,9 UV-I 362 W/m 16,4 C 18,9 C 24,9 km/h 100,00 %
27.09.2021 13:53 21,7 C 72 % 1012,9 hPa 0,0 l/m 17,6 km/h S 171 1 min 0,000 mm 2,0 UV-I 367 W/m 16,4 C 18,8 C 32,5 km/h 100,00 %
27.09.2021 13:52 21,8 C 73 % 1012,8 hPa 0,0 l/m 9,7 km/h S 191 1 min 0,000 mm 2,0 UV-I 370 W/m 16,7 C 20,7 C 15,3 km/h 100,00 %
27.09.2021 13:51 21,7 C 73 % 1012,9 hPa 0,0 l/m 11,0 km/h S 169 1 min 0,000 mm 1,9 UV-I 360 W/m 16,6 C 20,2 C 17,2 km/h 99,45 %
27.09.2021 13:50 21,7 C 73 % 1012,9 hPa 0,0 l/m 11,0 km/h S-SO 161 1 min 0,000 mm 1,9 UV-I 351 W/m 16,6 C 20,2 C 17,2 km/h 100,00 %
27.09.2021 13:49 21,7 C 73 % 1012,9 hPa 0,0 l/m 9,8 km/h S 186 1 min 0,000 mm 2,0 UV-I 361 W/m 16,6 C 20,6 C 13,4 km/h 100,00 %
27.09.2021 13:48 21,8 C 74 % 1012,9 hPa 0,0 l/m 17,6 km/h S-SO 152 1 min 0,000 mm 2,1 UV-I 378 W/m 17,0 C 18,9 C 23,0 km/h 100,00 %
27.09.2021 13:47 21,8 C 75 % 1012,9 hPa 0,0 l/m 12,7 km/h S-SO 148 1 min 0,000 mm 2,2 UV-I 499 W/m 17,2 C 19,9 C 21,0 km/h 100,00 %
27.09.2021 13:46 21,7 C 76 % 1012,9 hPa 0,0 l/m 8,9 km/h S-SO 165 1 min 0,000 mm 2,5 UV-I 652 W/m 17,3 C 20,8 C 17,2 km/h 96,55 %
27.09.2021 13:45 21,6 C 76 % 1012,9 hPa 0,0 l/m 9,4 km/h S 174 1 min 0,000 mm 2,6 UV-I 590 W/m 17,2 C 20,6 C 21,0 km/h 100,00 %
27.09.2021 13:44 21,5 C 76 % 1012,9 hPa 0,0 l/m 13,6 km/h S-SO 155 1 min 0,000 mm 2,3 UV-I 511 W/m 17,1 C 19,4 C 19,1 km/h 100,00 %
27.09.2021 13:43 21,4 C 76 % 1013,0 hPa 0,0 l/m 10,4 km/h S-SO 167 1 min 0,000 mm 2,4 UV-I 545 W/m 17,0 C 20,1 C 15,3 km/h 92,31 %
27.09.2021 13:42 21,4 C 76 % 1013,1 hPa 0,0 l/m 8,5 km/h S 170 1 min 0,000 mm 2,1 UV-I 352 W/m 17,0 C 20,7 C 19,1 km/h 100,00 %
27.09.2021 13:41 21,4 C 76 % 1013,1 hPa 0,0 l/m 10,0 km/h S-SO 161 1 min 0,000 mm 1,9 UV-I 345 W/m 17,0 C 20,2 C 15,3 km/h 100,00 %
27.09.2021 13:40 21,4 C 76 % 1013,1 hPa 0,0 l/m 10,3 km/h S-SO 161 1 min 0,000 mm 2,0 UV-I 338 W/m 17,0 C 20,1 C 15,3 km/h 100,00 %
27.09.2021 13:39 21,3 C 76 % 1013,1 hPa 0,0 l/m 8,1 km/h SO 140 1 min 0,000 mm 2,2 UV-I 361 W/m 16,9 C 20,7 C 17,2 km/h 100,00 %
27.09.2021 13:38 21,3 C 76 % 1013,1 hPa 0,0 l/m 10,3 km/h S-SO 153 1 min 0,000 mm 2,2 UV-I 395 W/m 16,9 C 20,0 C 15,3 km/h 100,00 %
27.09.2021 13:37 21,3 C 76 % 1013,1 hPa 0,0 l/m 11,5 km/h SW 219 1 min 0,000 mm 2,0 UV-I 353 W/m 16,9 C 19,7 C 17,2 km/h 100,00 %
27.09.2021 13:36 21,3 C 75 % 1013,1 hPa 0,0 l/m 13,6 km/h O-SO 115 1 min 0,000 mm 2,0 UV-I 362 W/m 16,7 C 19,1 C 21,0 km/h 100,00 %
27.09.2021 13:35 21,3 C 76 % 1013,1 hPa 0,0 l/m 10,1 km/h S-SO 150 1 min 0,000 mm 1,9 UV-I 336 W/m 16,9 C 20,0 C 19,1 km/h 100,00 %
27.09.2021 13:34 21,3 C 75 % 1013,1 hPa 0,0 l/m 9,7 km/h SO 146 1 min 0,000 mm 1,9 UV-I 317 W/m 16,7 C 20,2 C 17,2 km/h 100,00 %
27.09.2021 13:33 21,3 C 76 % 1013,0 hPa 0,0 l/m 12,7 km/h S 169 1 min 0,000 mm 1,9 UV-I 321 W/m 16,9 C 19,4 C 17,2 km/h 100,00 %
27.09.2021 13:32 21,3 C 75 % 1013,0 hPa 0,0 l/m 14,3 km/h SO 140 1 min 0,000 mm 1,9 UV-I 325 W/m 16,7 C 19,0 C 21,0 km/h 100,00 %
27.09.2021 13:31 21,3 C 75 % 1013,1 hPa 0,0 l/m 15,8 km/h S-SO 164 1 min 0,000 mm 2,0 UV-I 364 W/m 16,7 C 18,7 C 23,0 km/h 100,00 %
27.09.2021 13:30 21,3 C 76 % 1013,1 hPa 0,0 l/m 10,0 km/h S-SO 167 1 min 0,000 mm 2,1 UV-I 452 W/m 16,9 C 20,1 C 19,1 km/h 100,00 %
27.09.2021 13:29 21,2 C 77 % 1013,0 hPa 0,0 l/m 10,1 km/h SO 141 1 min 0,000 mm 2,2 UV-I 437 W/m 17,0 C 19,9 C 19,1 km/h 100,00 %
27.09.2021 13:28 21,2 C 76 % 1013,0 hPa 0,0 l/m 4,9 km/h S-SO 167 1 min 0,000 mm 2,1 UV-I 378 W/m 16,8 C 21,2 C 9,6 km/h 95,83 %
27.09.2021 13:27 21,2 C 77 % 1013,1 hPa 0,0 l/m 7,4 km/h SO 138 1 min 0,000 mm 2,0 UV-I 338 W/m 17,0 C 20,8 C 11,5 km/h 94,44 %
27.09.2021 13:26 21,1 C 77 % 1013,1 hPa 0,0 l/m 4,8 km/h S-SO 163 1 min 0,000 mm 2,1 UV-I 381 W/m 16,9 C 21,1 C 13,4 km/h 96,55 %
27.09.2021 13:25 21,1 C 77 % 1013,1 hPa 0,0 l/m 7,1 km/h SO 142 1 min 0,000 mm 2,1 UV-I 403 W/m 16,9 C 20,8 C 17,2 km/h 100,00 %
27.09.2021 13:24 21,0 C 77 % 1013,0 hPa 0,0 l/m 10,2 km/h S 169 1 min 0,000 mm 2,0 UV-I 377 W/m 16,8 C 19,7 C 17,2 km/h 100,00 %
27.09.2021 13:23 21,0 C 77 % 1013,1 hPa 0,0 l/m 10,3 km/h S-SO 152 1 min 0,000 mm 2,0 UV-I 361 W/m 16,8 C 19,7 C 15,3 km/h 100,00 %
27.09.2021 13:22 20,9 C 77 % 1013,1 hPa 0,0 l/m 5,3 km/h SO 126 1 min 0,000 mm 2,0 UV-I 350 W/m 16,7 C 20,9 C 13,4 km/h 100,00 %
27.09.2021 13:21 20,9 C 77 % 1013,1 hPa 0,0 l/m 6,5 km/h S 174 1 min 0,000 mm 2,0 UV-I 347 W/m 16,7 C 20,9 C 13,4 km/h 100,00 %
27.09.2021 13:20 20,9 C 77 % 1013,1 hPa 0,0 l/m 8,9 km/h S-SW 196 1 min 0,000 mm 1,9 UV-I 307 W/m 16,7 C 20,0 C 13,4 km/h 100,00 %
27.09.2021 13:19 20,8 C 77 % 1013,2 hPa 0,0 l/m 6,8 km/h O-SO 109 0 min 0,000 mm 1,8 UV-I 286 W/m 16,6 C 20,7 C 9,6 km/h 100,00 %
27.09.2021 13:18 20,8 C 77 % 1013,2 hPa 0,0 l/m 6,9 km/h S 186 0 min 0,000 mm 1,8 UV-I 279 W/m 16,6 C 20,6 C 13,4 km/h 100,00 %
27.09.2021 13:17 20,8 C 77 % 1013,2 hPa 0,0 l/m 11,2 km/h SO 138 0 min 0,000 mm 1,8 UV-I 282 W/m 16,6 C 19,2 C 19,1 km/h 100,00 %
27.09.2021 13:16 20,8 C 78 % 1013,2 hPa 0,0 l/m 8,8 km/h O-SO 122 1 min 0,000 mm 1,8 UV-I 302 W/m 16,8 C 19,9 C 15,3 km/h 100,00 %
27.09.2021 13:15 20,7 C 78 % 1013,3 hPa 0,0 l/m 3,7 km/h S 172 1 min 0,000 mm 1,7 UV-I 300 W/m 16,7 C 20,7 C 9,6 km/h 100,00 %
27.09.2021 13:14 20,7 C 78 % 1013,3 hPa 0,0 l/m 8,7 km/h S 172 0 min 0,000 mm 1,6 UV-I 272 W/m 16,7 C 19,8 C 13,4 km/h 100,00 %
27.09.2021 13:13 20,7 C 78 % 1013,3 hPa 0,0 l/m 8,7 km/h S-SO 166 0 min 0,000 mm 1,3 UV-I 232 W/m 16,7 C 19,8 C 13,4 km/h 100,00 %
27.09.2021 13:12 20,7 C 78 % 1013,3 hPa 0,0 l/m 6,2 km/h SO 138 0 min 0,000 mm 1,1 UV-I 185 W/m 16,7 C 20,7 C 9,6 km/h 100,00 %
27.09.2021 13:11 20,7 C 78 % 1013,3 hPa 0,0 l/m 9,2 km/h S 182 0 min 0,000 mm 1,0 UV-I 168 W/m 16,7 C 19,7 C 15,3 km/h 100,00 %
27.09.2021 13:10 20,7 C 78 % 1013,3 hPa 0,0 l/m 7,3 km/h S 182 0 min 0,000 mm 1,0 UV-I 162 W/m 16,7 C 20,4 C 23,0 km/h 100,00 %
27.09.2021 13:09 20,7 C 77 % 1013,3 hPa 0,0 l/m 6,8 km/h S-SO 158 0 min 0,000 mm 1,0 UV-I 162 W/m 16,5 C 20,5 C 15,3 km/h 100,00 %
27.09.2021 13:08 20,7 C 78 % 1013,3 hPa 0,0 l/m 12,4 km/h S-SO 167 0 min 0,000 mm 1,1 UV-I 166 W/m 16,7 C 18,7 C 17,2 km/h 100,00 %
27.09.2021 13:07 20,7 C 78 % 1013,3 hPa 0,0 l/m 9,3 km/h S-SW 194 0 min 0,000 mm 1,0 UV-I 160 W/m 16,7 C 19,6 C 13,4 km/h 100,00 %
27.09.2021 13:06 20,7 C 78 % 1013,3 hPa 0,0 l/m 7,3 km/h O-SO 108 0 min 0,000 mm 1,0 UV-I 152 W/m 16,7 C 20,4 C 13,4 km/h 100,00 %
27.09.2021 13:05 20,7 C 78 % 1013,3 hPa 0,0 l/m 7,5 km/h S 173 0 min 0,000 mm 1,0 UV-I 156 W/m 16,7 C 20,3 C 11,5 km/h 100,00 %
27.09.2021 13:04 20,7 C 78 % 1013,3 hPa 0,0 l/m 11,6 km/h SO 138 0 min 0,000 mm 1,1 UV-I 168 W/m 16,7 C 18,9 C 19,1 km/h 100,00 %
27.09.2021 13:03 20,7 C 78 % 1013,4 hPa 0,0 l/m 13,1 km/h S-SW 194 0 min 0,000 mm 1,3 UV-I 199 W/m 16,7 C 18,5 C 19,1 km/h 100,00 %
27.09.2021 13:02 20,7 C 78 % 1013,3 hPa 0,0 l/m 10,6 km/h S 175 0 min 0,000 mm 1,5 UV-I 237 W/m 16,7 C 19,2 C 17,2 km/h 100,00 %
27.09.2021 13:01 20,7 C 78 % 1013,4 hPa 0,0 l/m 9,0 km/h S-SO 151 0 min 0,127 mm 1,6 UV-I 259 W/m 16,7 C 19,7 C 13,4 km/h 100,00 %
27.09.2021 13:00 20,7 C 78 % 1013,4 hPa 0,0 l/m 15,4 km/h S 170 0 min 0,000 mm 1,6 UV-I 273 W/m 16,7 C 18,0 C 26,8 km/h 100,00 %
27.09.2021 12:59 20,6 C 79 % 1013,3 hPa 0,0 l/m 10,5 km/h S 180 1 min 0,000 mm 1,6 UV-I 290 W/m 16,8 C 19,1 C 21,0 km/h 100,00 %
27.09.2021 12:58 20,6 C 78 % 1013,3 hPa 0,0 l/m 6,0 km/h S 175 0 min 0,000 mm 1,4 UV-I 244 W/m 16,6 C 20,6 C 9,6 km/h 95,83 %
27.09.2021 12:57 20,6 C 78 % 1013,4 hPa 0,0 l/m 7,5 km/h S 170 0 min 0,000 mm 1,2 UV-I 203 W/m 16,6 C 20,2 C 11,5 km/h 100,00 %
27.09.2021 12:56 20,6 C 78 % 1013,3 hPa 0,0 l/m 9,9 km/h S-SO 152 0 min 0,000 mm 1,1 UV-I 175 W/m 16,6 C 19,3 C 15,3 km/h 100,00 %
27.09.2021 12:55 20,6 C 78 % 1013,4 hPa 0,0 l/m 8,6 km/h S 182 0 min 0,000 mm 1,0 UV-I 160 W/m 16,6 C 19,8 C 13,4 km/h 100,00 %
27.09.2021 12:54 20,6 C 78 % 1013,4 hPa 0,0 l/m 5,8 km/h S-SO 149 0 min 0,000 mm 1,0 UV-I 166 W/m 16,6 C 20,6 C 9,6 km/h 100,00 %
27.09.2021 12:53 20,5 C 78 % 1013,4 hPa 0,0 l/m 6,9 km/h S-SO 159 0 min 0,000 mm 1,1 UV-I 171 W/m 16,5 C 20,3 C 13,4 km/h 100,00 %
27.09.2021 12:52 20,5 C 78 % 1013,4 hPa 0,0 l/m 8,7 km/h S-SO 151 0 min 0,000 mm 1,0 UV-I 165 W/m 16,5 C 19,6 C 11,5 km/h 100,00 %
27.09.2021 12:51 20,5 C 78 % 1013,4 hPa 0,0 l/m 12,6 km/h S 171 0 min 0,000 mm 0,9 UV-I 145 W/m 16,5 C 18,4 C 21,0 km/h 96,00 %
27.09.2021 12:50 20,6 C 78 % 1013,4 hPa 0,0 l/m 14,4 km/h S 172 0 min 0,000 mm 0,8 UV-I 140 W/m 16,6 C 18,1 C 26,8 km/h 100,00 %
27.09.2021 12:49 20,6 C 78 % 1013,5 hPa 0,0 l/m 11,3 km/h S 173 0 min 0,000 mm 0,9 UV-I 146 W/m 16,6 C 18,9 C 15,3 km/h 100,00 %
27.09.2021 12:48 20,6 C 78 % 1013,4 hPa 0,0 l/m 4,5 km/h S 184 0 min 0,000 mm 0,9 UV-I 151 W/m 16,6 C 20,6 C 13,4 km/h 100,00 %
27.09.2021 12:47 20,5 C 78 % 1013,5 hPa 0,0 l/m 6,9 km/h S 177 0 min 0,000 mm 0,9 UV-I 158 W/m 16,5 C 20,3 C 13,4 km/h 100,00 %
27.09.2021 12:46 20,6 C 78 % 1013,5 hPa 0,0 l/m 7,4 km/h S-SO 167 0 min 0,000 mm 1,0 UV-I 163 W/m 16,6 C 20,2 C 11,5 km/h 100,00 %
27.09.2021 12:45 20,6 C 78 % 1013,4 hPa 0,0 l/m 7,4 km/h S 176 0 min 0,000 mm 1,0 UV-I 167 W/m 16,6 C 20,2 C 13,4 km/h 100,00 %
27.09.2021 12:44 20,6 C 78 % 1013,5 hPa 0,0 l/m 8,5 km/h S-SO 165 0 min 0,000 mm 1,0 UV-I 167 W/m 16,6 C 19,8 C 17,2 km/h 100,00 %
27.09.2021 12:43 20,6 C 78 % 1013,5 hPa 0,0 l/m 10,5 km/h S 182 0 min 0,000 mm 1,0 UV-I 171 W/m 16,6 C 19,1 C 19,1 km/h 100,00 %
27.09.2021 12:42 20,6 C 78 % 1013,4 hPa 0,0 l/m 10,8 km/h S 190 0 min 0,000 mm 1,0 UV-I 176 W/m 16,6 C 19,1 C 17,2 km/h 100,00 %
27.09.2021 12:41 20,6 C 78 % 1013,4 hPa 0,0 l/m 12,5 km/h S-SO 166 0 min 0,000 mm 1,1 UV-I 181 W/m 16,6 C 18,6 C 21,0 km/h 100,00 %
27.09.2021 12:40 20,6 C 78 % 1013,5 hPa 0,0 l/m 10,8 km/h S 176 0 min 0,000 mm 1,1 UV-I 190 W/m 16,6 C 19,1 C 17,2 km/h 100,00 %
27.09.2021 12:39 20,6 C 78 % 1013,5 hPa 0,0 l/m 13,3 km/h S 175 0 min 0,000 mm 1,2 UV-I 203 W/m 16,6 C 18,4 C 23,0 km/h 100,00 %
27.09.2021 12:38 20,6 C 78 % 1013,5 hPa 0,0 l/m 9,2 km/h S-SO 165 0 min 0,000 mm 1,3 UV-I 214 W/m 16,6 C 19,6 C 23,0 km/h 100,00 %
27.09.2021 12:37 20,6 C 78 % 1013,5 hPa 0,0 l/m 7,9 km/h S-SO 165 0 min 0,000 mm 1,3 UV-I 223 W/m 16,6 C 20,0 C 17,2 km/h 100,00 %
27.09.2021 12:36 20,6 C 78 % 1013,4 hPa 0,0 l/m 9,0 km/h S-SO 165 0 min 0,000 mm 1,3 UV-I 228 W/m 16,6 C 19,6 C 13,4 km/h 100,00 %
27.09.2021 12:35 20,5 C 78 % 1013,4 hPa 0,0 l/m 9,6 km/h S-SO 165 0 min 0,000 mm 1,3 UV-I 227 W/m 16,5 C 19,3 C 15,3 km/h 100,00 %
27.09.2021 12:34 20,6 C 78 % 1013,5 hPa 0,0 l/m 11,9 km/h S-SO 152 0 min 0,000 mm 1,3 UV-I 223 W/m 16,6 C 18,7 C 19,1 km/h 100,00 %
27.09.2021 12:33 20,5 C 78 % 1013,5 hPa 0,0 l/m 12,4 km/h S-SO 168 0 min 0,000 mm 1,3 UV-I 226 W/m 16,5 C 18,5 C 17,2 km/h 95,83 %
27.09.2021 12:32 20,5 C 79 % 1013,5 hPa 0,0 l/m 6,3 km/h SO 145 0 min 0,000 mm 1,3 UV-I 239 W/m 16,7 C 20,5 C 9,6 km/h 96,15 %
27.09.2021 12:31 20,4 C 79 % 1013,5 hPa 0,0 l/m 5,6 km/h O-SO 121 0 min 0,000 mm 1,4 UV-I 249 W/m 16,6 C 20,4 C 11,5 km/h 100,00 %
27.09.2021 12:30 20,4 C 79 % 1013,4 hPa 0,0 l/m 10,0 km/h S 179 0 min 0,000 mm 1,4 UV-I 256 W/m 16,6 C 19,1 C 13,4 km/h 100,00 %
27.09.2021 12:29 20,4 C 79 % 1013,4 hPa 0,0 l/m 4,8 km/h S-SW 192 0 min 0,000 mm 1,4 UV-I 258 W/m 16,6 C 20,4 C 5,7 km/h 100,00 %
27.09.2021 12:28 20,4 C 79 % 1013,5 hPa 0,0 l/m 12,0 km/h O-SO 109 0 min 0,000 mm 1,4 UV-I 257 W/m 16,6 C 18,5 C 19,1 km/h 96,15 %
27.09.2021 12:27 20,3 C 79 % 1013,4 hPa 0,0 l/m 10,1 km/h S-SO 151 0 min 0,000 mm 1,4 UV-I 253 W/m 16,5 C 18,9 C 17,2 km/h 100,00 %
27.09.2021 12:26 20,3 C 79 % 1013,4 hPa 0,0 l/m 9,2 km/h S-SO 166 0 min 0,000 mm 1,4 UV-I 252 W/m 16,5 C 19,2 C 15,3 km/h 100,00 %
27.09.2021 12:25 20,3 C 79 % 1013,4 hPa 0,0 l/m 7,2 km/h S-SO 149 0 min 0,000 mm 1,4 UV-I 254 W/m 16,5 C 20,0 C 15,3 km/h 100,00 %
27.09.2021 12:24 20,3 C 79 % 1013,5 hPa 0,0 l/m 9,7 km/h SO 145 0 min 0,000 mm 1,4 UV-I 252 W/m 16,5 C 19,1 C 17,2 km/h 100,00 %
27.09.2021 12:23 20,3 C 79 % 1013,4 hPa 0,0 l/m 7,8 km/h S-SO 160 0 min 0,000 mm 1,3 UV-I 241 W/m 16,5 C 19,7 C 11,5 km/h 92,86 %
27.09.2021 12:22 20,3 C 79 % 1013,4 hPa 0,0 l/m 5,7 km/h SO 142 0 min 0,000 mm 1,2 UV-I 225 W/m 16,5 C 20,3 C 19,1 km/h 100,00 %
27.09.2021 12:21 20,3 C 79 % 1013,4 hPa 0,0 l/m 3,1 km/h S-SO 153 0 min 0,000 mm 1,1 UV-I 205 W/m 16,5 C 20,3 C 7,7 km/h 100,00 %
27.09.2021 12:20 20,2 C 79 % 1013,5 hPa 0,0 l/m 5,4 km/h S-SO 161 0 min 0,000 mm 1,0 UV-I 180 W/m 16,4 C 20,2 C 9,6 km/h 100,00 %
27.09.2021 12:19 20,2 C 79 % 1013,5 hPa 0,0 l/m 2,2 km/h S-SO 161 0 min 0,000 mm 0,8 UV-I 155 W/m 16,4 C 20,2 C 3,8 km/h 100,00 %
27.09.2021 12:18 20,2 C 79 % 1013,5 hPa 0,0 l/m 4,5 km/h S-SO 155 0 min 0,000 mm 0,7 UV-I 135 W/m 16,4 C 20,2 C 7,7 km/h 100,00 %
27.09.2021 12:17 20,2 C 79 % 1013,5 hPa 0,0 l/m 6,1 km/h S 176 0 min 0,000 mm 0,6 UV-I 119 W/m 16,4 C 20,2 C 11,5 km/h 100,00 %
27.09.2021 12:16 20,2 C 78 % 1013,5 hPa 0,0 l/m 10,9 km/h S-SO 161 0 min 0,000 mm 0,6 UV-I 112 W/m 16,2 C 18,6 C 19,1 km/h 100,00 %
27.09.2021 12:15 20,3 C 78 % 1013,6 hPa 0,0 l/m 11,5 km/h O-SO 121 0 min 0,000 mm 0,6 UV-I 111 W/m 16,3 C 18,5 C 15,3 km/h 100,00 %
27.09.2021 12:14 20,3 C 79 % 1013,5 hPa 0,0 l/m 10,2 km/h S-SO 153 0 min 0,000 mm 0,6 UV-I 112 W/m 16,5 C 18,9 C 13,4 km/h 96,30 %
27.09.2021 12:13 20,3 C 79 % 1013,6 hPa 0,0 l/m 10,0 km/h S-SO 164 0 min 0,000 mm 0,7 UV-I 112 W/m 16,5 C 19,0 C 17,2 km/h 96,15 %
27.09.2021 12:12 20,3 C 78 % 1013,5 hPa 0,0 l/m 6,5 km/h SO 146 0 min 0,000 mm 0,7 UV-I 116 W/m 16,3 C 20,3 C 9,6 km/h 100,00 %
27.09.2021 12:11 20,3 C 78 % 1013,5 hPa 0,0 l/m 12,6 km/h S-SO 164 0 min 0,000 mm 0,7 UV-I 124 W/m 16,3 C 18,2 C 17,2 km/h 100,00 %
27.09.2021 12:10 20,3 C 78 % 1013,5 hPa 0,0 l/m 7,7 km/h S-SO 160 0 min 0,000 mm 0,8 UV-I 139 W/m 16,3 C 19,8 C 13,4 km/h 100,00 %
27.09.2021 12:09 20,3 C 78 % 1013,5 hPa 0,0 l/m 10,7 km/h S 172 0 min 0,000 mm 1,0 UV-I 159 W/m 16,3 C 18,8 C 17,2 km/h 100,00 %
27.09.2021 12:08 20,3 C 78 % 1013,5 hPa 0,0 l/m 14,6 km/h S 169 0 min 0,000 mm 1,1 UV-I 180 W/m 16,3 C 17,7 C 19,1 km/h 100,00 %
27.09.2021 12:07 20,3 C 78 % 1013,5 hPa 0,0 l/m 9,0 km/h S-SO 155 0 min 0,000 mm 1,2 UV-I 198 W/m 16,3 C 19,3 C 17,2 km/h 95,83 %
27.09.2021 12:06 20,3 C 78 % 1013,5 hPa 0,0 l/m 6,2 km/h S-SO 159 0 min 0,000 mm 1,3 UV-I 210 W/m 16,3 C 20,3 C 9,6 km/h 100,00 %
27.09.2021 12:05 20,3 C 78 % 1013,5 hPa 0,0 l/m 7,8 km/h S-SW 194 0 min 0,000 mm 1,3 UV-I 215 W/m 16,3 C 19,7 C 17,2 km/h 100,00 %
27.09.2021 12:04 20,3 C 78 % 1013,5 hPa 0,0 l/m 6,9 km/h S 178 0 min 0,000 mm 1,3 UV-I 216 W/m 16,3 C 20,1 C 13,4 km/h 100,00 %
27.09.2021 12:03 20,3 C 78 % 1013,5 hPa 0,0 l/m 9,9 km/h S 185 0 min 0,000 mm 1,2 UV-I 209 W/m 16,3 C 19,0 C 15,3 km/h 100,00 %
27.09.2021 12:02 20,3 C 78 % 1013,5 hPa 0,0 l/m 8,6 km/h S 175 0 min 0,000 mm 1,1 UV-I 195 W/m 16,3 C 19,4 C 13,4 km/h 100,00 %
27.09.2021 12:01 20,3 C 78 % 1013,5 hPa 0,0 l/m 12,5 km/h S 183 0 min 0,203 mm 1,0 UV-I 177 W/m 16,3 C 18,2 C 19,1 km/h 100,00 %
27.09.2021 12:00 20,3 C 78 % 1013,5 hPa 0,0 l/m 8,8 km/h SO 144 0 min 0,000 mm 0,9 UV-I 164 W/m 16,3 C 19,4 C 13,4 km/h 100,00 %
27.09.2021 11:59 20,3 C 78 % 1013,4 hPa 0,0 l/m 10,3 km/h S 184 0 min 0,000 mm 0,9 UV-I 162 W/m 16,3 C 18,9 C 17,2 km/h 100,00 %
27.09.2021 11:58 20,4 C 78 % 1013,5 hPa 0,0 l/m 7,3 km/h SO 134 0 min 0,000 mm 0,9 UV-I 160 W/m 16,4 C 20,0 C 11,5 km/h 100,00 %
27.09.2021 11:57 20,4 C 78 % 1013,5 hPa 0,0 l/m 10,0 km/h O 100 0 min 0,000 mm 0,9 UV-I 161 W/m 16,4 C 19,1 C 23,0 km/h 100,00 %
27.09.2021 11:56 20,4 C 77 % 1013,5 hPa 0,0 l/m 12,4 km/h S-SO 157 0 min 0,000 mm 1,0 UV-I 170 W/m 16,2 C 18,4 C 19,1 km/h 100,00 %
27.09.2021 11:55 20,4 C 78 % 1013,5 hPa 0,0 l/m 10,9 km/h S-SO 156 0 min 0,000 mm 1,0 UV-I 177 W/m 16,4 C 18,8 C 17,2 km/h 100,00 %
27.09.2021 11:54 20,4 C 78 % 1013,5 hPa 0,0 l/m 6,5 km/h S 184 0 min 0,000 mm 1,0 UV-I 177 W/m 16,4 C 20,4 C 9,6 km/h 100,00 %
27.09.2021 11:53 20,4 C 78 % 1013,5 hPa 0,0 l/m 8,0 km/h S 173 0 min 0,000 mm 1,0 UV-I 173 W/m 16,4 C 19,8 C 21,0 km/h 100,00 %
27.09.2021 11:52 20,4 C 78 % 1013,4 hPa 0,0 l/m 10,9 km/h S-SO 153 0 min 0,000 mm 1,0 UV-I 174 W/m 16,4 C 18,8 C 17,2 km/h 100,00 %
27.09.2021 11:51 20,4 C 78 % 1013,5 hPa 0,0 l/m 8,2 km/h S-SO 159 0 min 0,000 mm 1,0 UV-I 182 W/m 16,4 C 19,7 C 13,4 km/h 100,00 %
27.09.2021 11:50 20,4 C 78 % 1013,4 hPa 0,0 l/m 6,7 km/h SO 138 0 min 0,000 mm 1,2 UV-I 199 W/m 16,4 C 20,3 C 11,5 km/h 100,00 %
27.09.2021 11:49 20,4 C 78 % 1013,5 hPa 0,0 l/m 9,8 km/h S-SO 150 0 min 0,000 mm 1,3 UV-I 216 W/m 16,4 C 19,1 C 15,3 km/h 91,67 %
27.09.2021 11:48 20,4 C 77 % 1013,5 hPa 0,0 l/m 8,0 km/h S 179 0 min 0,000 mm 1,3 UV-I 231 W/m 16,2 C 19,8 C 13,4 km/h 100,00 %
27.09.2021 11:47 20,4 C 77 % 1013,5 hPa 0,0 l/m 9,6 km/h S 187 0 min 0,000 mm 1,3 UV-I 242 W/m 16,2 C 19,2 C 15,3 km/h 100,00 %
27.09.2021 11:46 20,4 C 77 % 1013,5 hPa 0,0 l/m 12,1 km/h S-SO 157 0 min 0,000 mm 1,4 UV-I 251 W/m 16,2 C 18,5 C 24,9 km/h 100,00 %
27.09.2021 11:45 20,5 C 77 % 1013,4 hPa 0,0 l/m 9,7 km/h S-SO 162 0 min 0,000 mm 1,4 UV-I 258 W/m 16,3 C 19,3 C 21,0 km/h 100,00 %
27.09.2021 11:44 20,5 C 77 % 1013,5 hPa 0,0 l/m 8,1 km/h S-SO 157 0 min 0,000 mm 1,4 UV-I 259 W/m 16,3 C 19,8 C 13,4 km/h 100,00 %
27.09.2021 11:43 20,5 C 77 % 1013,5 hPa 0,0 l/m 12,9 km/h S-SO 158 0 min 0,000 mm 1,4 UV-I 258 W/m 16,3 C 18,4 C 21,0 km/h 100,00 %
27.09.2021 11:42 20,6 C 77 % 1013,5 hPa 0,0 l/m 10,3 km/h SO 146 0 min 0,000 mm 1,4 UV-I 262 W/m 16,4 C 19,2 C 15,3 km/h 96,77 %
27.09.2021 11:41 20,6 C 77 % 1013,5 hPa 0,0 l/m 11,2 km/h S-SO 165 0 min 0,000 mm 1,4 UV-I 267 W/m 16,4 C 18,9 C 19,1 km/h 100,00 %
27.09.2021 11:40 20,6 C 77 % 1013,5 hPa 0,0 l/m 8,2 km/h S-SO 161 0 min 0,000 mm 1,4 UV-I 269 W/m 16,4 C 19,9 C 15,3 km/h 100,00 %
27.09.2021 11:39 20,6 C 77 % 1013,5 hPa 0,0 l/m 9,6 km/h O-SO 123 1 min 0,000 mm 1,4 UV-I 290 W/m 16,4 C 19,4 C 17,2 km/h 91,30 %
27.09.2021 11:38 20,6 C 77 % 1013,5 hPa 0,0 l/m 7,5 km/h S-SO 157 0 min 0,000 mm 1,4 UV-I 285 W/m 16,4 C 20,2 C 13,4 km/h 100,00 %
27.09.2021 11:37 20,6 C 77 % 1013,5 hPa 0,0 l/m 9,6 km/h S 176 0 min 0,000 mm 1,4 UV-I 272 W/m 16,4 C 19,4 C 15,3 km/h 95,65 %
27.09.2021 11:36 20,7 C 77 % 1013,5 hPa 0,0 l/m 6,7 km/h SO 140 0 min 0,000 mm 1,3 UV-I 259 W/m 16,5 C 20,6 C 9,6 km/h 100,00 %
27.09.2021 11:35 20,7 C 76 % 1013,5 hPa 0,0 l/m 5,5 km/h S-SO 153 0 min 0,000 mm 1,3 UV-I 238 W/m 16,3 C 20,7 C 9,6 km/h 96,15 %
27.09.2021 11:34 20,7 C 76 % 1013,5 hPa 0,0 l/m 9,7 km/h S 186 0 min 0,000 mm 1,2 UV-I 217 W/m 16,3 C 19,5 C 17,2 km/h 100,00 %
27.09.2021 11:33 20,8 C 76 % 1013,4 hPa 0,0 l/m 7,8 km/h SW 215 0 min 0,000 mm 1,2 UV-I 207 W/m 16,4 C 20,3 C 15,3 km/h 100,00 %
27.09.2021 11:32 20,8 C 75 % 1013,5 hPa 0,0 l/m 10,5 km/h S 173 0 min 0,000 mm 1,2 UV-I 206 W/m 16,2 C 19,4 C 17,2 km/h 100,00 %
27.09.2021 11:31 20,9 C 75 % 1013,4 hPa 0,0 l/m 11,8 km/h S-SO 164 0 min 0,000 mm 1,3 UV-I 219 W/m 16,3 C 19,1 C 21,0 km/h 100,00 %
27.09.2021 11:30 21,0 C 75 % 1013,5 hPa 0,0 l/m 12,7 km/h O-SO 121 0 min 0,000 mm 1,4 UV-I 282 W/m 16,4 C 19,0 C 21,0 km/h 100,00 %
27.09.2021 11:29 21,1 C 76 % 1013,4 hPa 0,0 l/m 11,9 km/h S 180 1 min 0,000 mm 1,5 UV-I 340 W/m 16,7 C 19,3 C 19,1 km/h 96,15 %
27.09.2021 11:28 21,2 C 76 % 1013,4 hPa 0,0 l/m 7,7 km/h O-SO 107 1 min 0,000 mm 1,6 UV-I 378 W/m 16,8 C 20,7 C 17,2 km/h 100,00 %
27.09.2021 11:27 21,2 C 76 % 1013,5 hPa 0,0 l/m 10,2 km/h S-SO 155 1 min 0,000 mm 1,6 UV-I 395 W/m 16,8 C 19,9 C 17,2 km/h 92,86 %
27.09.2021 11:26 21,2 C 77 % 1013,4 hPa 0,0 l/m 9,9 km/h S-SO 155 1 min 0,000 mm 1,7 UV-I 406 W/m 17,0 C 20,0 C 23,0 km/h 100,00 %
27.09.2021 11:25 21,1 C 77 % 1013,4 hPa 0,0 l/m 11,9 km/h O-SO 119 1 min 0,000 mm 1,9 UV-I 480 W/m 16,9 C 19,3 C 17,2 km/h 100,00 %
27.09.2021 11:24 21,1 C 77 % 1013,4 hPa 0,0 l/m 7,3 km/h S-SO 158 1 min 0,000 mm 1,9 UV-I 497 W/m 16,9 C 20,8 C 11,5 km/h 92,31 %
27.09.2021 11:23 21,0 C 77 % 1013,4 hPa 0,0 l/m 9,6 km/h S-SW 194 1 min 0,000 mm 1,8 UV-I 458 W/m 16,8 C 19,9 C 15,3 km/h 100,00 %
27.09.2021 11:22 21,0 C 77 % 1013,5 hPa 0,0 l/m 8,2 km/h S-SO 162 1 min 0,000 mm 1,8 UV-I 403 W/m 16,8 C 20,3 C 13,4 km/h 100,00 %
27.09.2021 11:21 20,9 C 77 % 1013,4 hPa 0,0 l/m 11,4 km/h SO 143 1 min 0,000 mm 1,9 UV-I 478 W/m 16,7 C 19,2 C 21,0 km/h 100,00 %
27.09.2021 11:20 20,9 C 77 % 1013,5 hPa 0,0 l/m 8,4 km/h SO 138 1 min 0,000 mm 2,0 UV-I 509 W/m 16,7 C 20,2 C 11,5 km/h 100,00 %
27.09.2021 11:19 20,9 C 77 % 1013,4 hPa 0,0 l/m 9,5 km/h S-SO 163 1 min 0,000 mm 2,0 UV-I 548 W/m 16,7 C 19,8 C 15,3 km/h 100,00 %
27.09.2021 11:18 20,9 C 77 % 1013,4 hPa 0,0 l/m 6,7 km/h SW 215 1 min 0,000 mm 1,9 UV-I 555 W/m 16,7 C 20,8 C 17,2 km/h 100,00 %
27.09.2021 11:17 20,9 C 77 % 1013,5 hPa 0,0 l/m 11,2 km/h SO 143 1 min 0,000 mm 1,9 UV-I 441 W/m 16,7 C 19,3 C 19,1 km/h 96,30 %
27.09.2021 11:16 20,9 C 78 % 1013,5 hPa 0,0 l/m 7,1 km/h O-SO 113 1 min 0,000 mm 1,7 UV-I 420 W/m 16,9 C 20,6 C 13,4 km/h 100,00 %
27.09.2021 11:15 20,9 C 78 % 1013,5 hPa 0,0 l/m 7,1 km/h SO 126 1 min 0,000 mm 1,8 UV-I 415 W/m 16,9 C 20,6 C 13,4 km/h 100,00 %
27.09.2021 11:14 20,9 C 79 % 1013,5 hPa 0,0 l/m 6,0 km/h SO 124 1 min 0,000 mm 1,6 UV-I 427 W/m 17,1 C 20,9 C 13,4 km/h 100,00 %
27.09.2021 11:13 20,8 C 79 % 1013,5 hPa 0,0 l/m 2,4 km/h S 171 1 min 0,000 mm 1,7 UV-I 462 W/m 17,0 C 20,8 C 3,8 km/h 100,00 %
27.09.2021 11:12 20,7 C 79 % 1013,5 hPa 0,0 l/m 4,3 km/h S 171 1 min 0,000 mm 1,6 UV-I 522 W/m 16,9 C 20,7 C 9,6 km/h 95,65 %
27.09.2021 11:11 20,7 C 79 % 1013,5 hPa 0,0 l/m 6,4 km/h SO 139 1 min 0,000 mm 1,6 UV-I 528 W/m 16,9 C 20,7 C 15,3 km/h 100,00 %
27.09.2021 11:10 20,6 C 80 % 1013,5 hPa 0,0 l/m 7,7 km/h O-SO 107 1 min 0,000 mm 1,7 UV-I 523 W/m 17,0 C 20,1 C 13,4 km/h 100,00 %
27.09.2021 11:09 20,5 C 80 % 1013,5 hPa 0,0 l/m 9,9 km/h SO 144 1 min 0,000 mm 1,7 UV-I 511 W/m 16,9 C 19,2 C 15,3 km/h 91,67 %
27.09.2021 11:08 20,4 C 80 % 1013,5 hPa 0,0 l/m 11,4 km/h O-SO 116 1 min 0,000 mm 1,8 UV-I 488 W/m 16,8 C 18,7 C 19,1 km/h 96,30 %
27.09.2021 11:07 20,3 C 80 % 1013,5 hPa 0,0 l/m 8,1 km/h O-SO 119 1 min 0,000 mm 1,8 UV-I 456 W/m 16,7 C 19,6 C 15,3 km/h 95,65 %
27.09.2021 11:06 20,3 C 80 % 1013,5 hPa 0,0 l/m 12,0 km/h SO 139 1 min 0,000 mm 1,8 UV-I 412 W/m 16,7 C 18,4 C 17,2 km/h 100,00 %
27.09.2021 11:05 20,2 C 80 % 1013,5 hPa 0,0 l/m 7,8 km/h SO 130 1 min 0,000 mm 1,7 UV-I 335 W/m 16,6 C 19,6 C 11,5 km/h 100,00 %
27.09.2021 11:04 20,2 C 81 % 1013,6 hPa 0,0 l/m 9,7 km/h S 181 0 min 0,000 mm 1,7 UV-I 197 W/m 16,8 C 19,0 C 17,2 km/h 100,00 %
27.09.2021 11:03 20,2 C 81 % 1013,5 hPa 0,0 l/m 6,4 km/h S 183 0 min 0,000 mm 1,6 UV-I 267 W/m 16,8 C 20,2 C 11,5 km/h 100,00 %
27.09.2021 11:02 20,1 C 81 % 1013,5 hPa 0,0 l/m 5,6 km/h SO 140 1 min 0,000 mm 1,6 UV-I 371 W/m 16,7 C 20,1 C 11,5 km/h 100,00 %
27.09.2021 11:01 20,0 C 81 % 1013,5 hPa 0,0 l/m 5,2 km/h SO 140 1 min 0,000 mm 1,6 UV-I 399 W/m 16,6 C 20,0 C 7,7 km/h 95,65 %
27.09.2021 11:00 19,9 C 81 % 1013,5 hPa 0,0 l/m 4,5 km/h S-SO 155 1 min 0,153 mm 1,6 UV-I 413 W/m 16,5 C 19,9 C 9,6 km/h 100,00 %
27.09.2021 10:59 19,9 C 81 % 1013,5 hPa 0,0 l/m 6,9 km/h S 178 1 min 0,000 mm 1,5 UV-I 404 W/m 16,5 C 19,7 C 17,2 km/h 100,00 %
27.09.2021 10:58 19,9 C 81 % 1013,5 hPa 0,0 l/m 9,8 km/h S-SO 161 1 min 0,000 mm 1,5 UV-I 308 W/m 16,5 C 18,6 C 15,3 km/h 96,30 %
27.09.2021 10:57 19,9 C 81 % 1013,5 hPa 0,0 l/m 10,3 km/h S-SO 153 1 min 0,000 mm 1,5 UV-I 308 W/m 16,5 C 18,4 C 17,2 km/h 100,00 %
27.09.2021 10:56 19,8 C 81 % 1013,5 hPa 0,0 l/m 5,1 km/h O-SO 119 1 min 0,000 mm 1,4 UV-I 308 W/m 16,4 C 19,8 C 11,5 km/h 100,00 %
27.09.2021 10:55 19,9 C 81 % 1013,6 hPa 0,0 l/m 9,8 km/h O-SO 123 0 min 0,000 mm 1,3 UV-I 251 W/m 16,5 C 18,6 C 17,2 km/h 100,00 %
27.09.2021 10:54 19,9 C 81 % 1013,6 hPa 0,0 l/m 9,0 km/h S-SW 202 0 min 0,000 mm 1,3 UV-I 231 W/m 16,5 C 18,9 C 15,3 km/h 100,00 %
27.09.2021 10:53 19,8 C 81 % 1013,6 hPa 0,0 l/m 7,9 km/h O-SO 113 0 min 0,000 mm 1,2 UV-I 154 W/m 16,4 C 19,2 C 15,3 km/h 100,00 %
27.09.2021 10:52 19,9 C 81 % 1013,5 hPa 0,0 l/m 5,1 km/h S-SO 157 0 min 0,000 mm 1,2 UV-I 170 W/m 16,5 C 19,9 C 7,7 km/h 100,00 %
27.09.2021 10:51 19,8 C 81 % 1013,5 hPa 0,0 l/m 5,9 km/h S-SO 153 0 min 0,000 mm 1,2 UV-I 227 W/m 16,4 C 19,8 C 17,2 km/h 100,00 %
27.09.2021 10:50 19,8 C 82 % 1013,5 hPa 0,0 l/m 9,3 km/h SO 141 0 min 0,000 mm 1,2 UV-I 174 W/m 16,6 C 18,7 C 13,4 km/h 100,00 %
27.09.2021 10:49 19,8 C 82 % 1013,5 hPa 0,0 l/m 4,1 km/h S-SO 165 0 min 0,000 mm 1,2 UV-I 230 W/m 16,6 C 19,8 C 11,5 km/h 100,00 %
27.09.2021 10:48 19,8 C 82 % 1013,6 hPa 0,0 l/m 3,1 km/h S-SO 152 0 min 0,000 mm 1,2 UV-I 265 W/m 16,6 C 19,8 C 5,7 km/h 100,00 %
27.09.2021 10:47 19,7 C 82 % 1013,6 hPa 0,0 l/m 4,7 km/h SO 146 1 min 0,000 mm 1,3 UV-I 290 W/m 16,5 C 19,7 C 11,5 km/h 100,00 %
27.09.2021 10:46 19,7 C 82 % 1013,5 hPa 0,0 l/m 7,2 km/h SO 138 1 min 0,000 mm 1,3 UV-I 300 W/m 16,5 C 19,4 C 11,5 km/h 92,86 %
27.09.2021 10:45 19,7 C 82 % 1013,6 hPa 0,0 l/m 13,9 km/h S 169 1 min 0,000 mm 1,3 UV-I 310 W/m 16,5 C 17,2 C 21,0 km/h 96,30 %
27.09.2021 10:44 19,7 C 82 % 1013,6 hPa 0,0 l/m 14,3 km/h SW 215 0 min 0,000 mm 1,3 UV-I 261 W/m 16,5 C 17,1 C 24,9 km/h 100,00 %
27.09.2021 10:43 19,7 C 82 % 1013,6 hPa 0,0 l/m 7,7 km/h SO 145 0 min 0,000 mm 1,3 UV-I 274 W/m 16,5 C 19,2 C 11,5 km/h 100,00 %
27.09.2021 10:42 19,7 C 82 % 1013,7 hPa 0,0 l/m 9,8 km/h O-SO 117 1 min 0,000 mm 1,3 UV-I 312 W/m 16,5 C 18,4 C 19,1 km/h 100,00 %
27.09.2021 10:41 19,6 C 83 % 1013,6 hPa 0,0 l/m 8,5 km/h O 98 1 min 0,000 mm 1,3 UV-I 312 W/m 16,6 C 18,7 C 19,1 km/h 96,30 %
27.09.2021 10:40 19,6 C 83 % 1013,6 hPa 0,0 l/m 6,9 km/h S 176 1 min 0,000 mm 1,2 UV-I 325 W/m 16,6 C 19,4 C 13,4 km/h 100,00 %
27.09.2021 10:39 19,6 C 83 % 1013,6 hPa 0,0 l/m 8,2 km/h SO 125 1 min 0,000 mm 1,2 UV-I 319 W/m 16,6 C 18,9 C 15,3 km/h 100,00 %
27.09.2021 10:38 19,5 C 83 % 1013,6 hPa 0,0 l/m 4,4 km/h SO 136 1 min 0,000 mm 1,2 UV-I 314 W/m 16,5 C 19,5 C 13,4 km/h 100,00 %
27.09.2021 10:37 19,4 C 83 % 1013,7 hPa 0,0 l/m 5,7 km/h S-SO 155 1 min 0,000 mm 1,2 UV-I 316 W/m 16,4 C 19,4 C 11,5 km/h 100,00 %
27.09.2021 10:36 19,4 C 83 % 1013,7 hPa 0,0 l/m 6,7 km/h S-SO 161 0 min 0,000 mm 1,1 UV-I 284 W/m 16,4 C 19,3 C 11,5 km/h 100,00 %
27.09.2021 10:35 19,4 C 83 % 1013,7 hPa 0,0 l/m 5,2 km/h S-SO 151 0 min 0,000 mm 1,1 UV-I 276 W/m 16,4 C 19,4 C 9,6 km/h 100,00 %
27.09.2021 10:34 19,4 C 83 % 1013,8 hPa 0,0 l/m 8,3 km/h S-SO 151 0 min 0,000 mm 1,1 UV-I 248 W/m 16,4 C 18,6 C 15,3 km/h 100,00 %
27.09.2021 10:33 19,4 C 84 % 1013,8 hPa 0,0 l/m 5,7 km/h S-SO 167 0 min 0,000 mm 1,0 UV-I 239 W/m 16,6 C 19,4 C 9,6 km/h 100,00 %
27.09.2021 10:32 19,3 C 84 % 1013,7 hPa 0,0 l/m 2,6 km/h S 177 0 min 0,000 mm 1,0 UV-I 237 W/m 16,5 C 19,3 C 7,7 km/h 100,00 %
27.09.2021 10:31 19,3 C 83 % 1013,7 hPa 0,0 l/m 3,4 km/h O-SO 117 0 min 0,000 mm 1,0 UV-I 228 W/m 16,3 C 19,3 C 5,7 km/h 100,00 %
27.09.2021 10:30 19,3 C 83 % 1013,7 hPa 0,0 l/m 4,6 km/h O-SO 116 0 min 0,000 mm 1,0 UV-I 220 W/m 16,3 C 19,3 C 7,7 km/h 100,00 %
27.09.2021 10:29 19,2 C 83 % 1013,7 hPa 0,0 l/m 5,6 km/h S 186 0 min 0,000 mm 1,0 UV-I 216 W/m 16,2 C 19,2 C 13,4 km/h 100,00 %
27.09.2021 10:28 19,2 C 84 % 1013,7 hPa 0,0 l/m 9,6 km/h SO 142 0 min 0,000 mm 0,9 UV-I 214 W/m 16,4 C 17,9 C 19,1 km/h 100,00 %
27.09.2021 10:27 19,2 C 84 % 1013,7 hPa 0,0 l/m 7,9 km/h S-SO 150 0 min 0,000 mm 0,9 UV-I 210 W/m 16,4 C 18,6 C 21,0 km/h 100,00 %
27.09.2021 10:26 19,2 C 83 % 1013,7 hPa 0,0 l/m 5,2 km/h SO 139 0 min 0,000 mm 0,9 UV-I 202 W/m 16,2 C 19,2 C 11,5 km/h 95,83 %
27.09.2021 10:25 19,2 C 84 % 1013,8 hPa 0,0 l/m 10,3 km/h SO 140 0 min 0,000 mm 0,9 UV-I 196 W/m 16,4 C 17,7 C 19,1 km/h 100,00 %
27.09.2021 10:24 19,2 C 84 % 1013,8 hPa 0,0 l/m 4,9 km/h S 177 0 min 0,000 mm 0,8 UV-I 188 W/m 16,4 C 19,2 C 5,7 km/h 100,00 %
27.09.2021 10:23 19,2 C 84 % 1013,7 hPa 0,0 l/m 4,6 km/h S-SO 149 0 min 0,000 mm 0,8 UV-I 189 W/m 16,4 C 19,2 C 7,7 km/h 100,00 %
27.09.2021 10:22 19,2 C 84 % 1013,8 hPa 0,0 l/m 7,9 km/h S-SO 152 0 min 0,000 mm 0,8 UV-I 194 W/m 16,4 C 18,6 C 17,2 km/h 100,00 %
27.09.2021 10:21 19,2 C 84 % 1013,8 hPa 0,0 l/m 8,9 km/h S-SO 161 0 min 0,000 mm 0,8 UV-I 195 W/m 16,4 C 18,2 C 13,4 km/h 100,00 %
27.09.2021 10:20 19,2 C 84 % 1013,8 hPa 0,0 l/m 9,6 km/h S-SO 167 0 min 0,000 mm 0,8 UV-I 192 W/m 16,4 C 17,9 C 15,3 km/h 100,00 %
27.09.2021 10:19 19,2 C 84 % 1013,7 hPa 0,0 l/m 6,9 km/h S 173 0 min 0,000 mm 0,8 UV-I 182 W/m 16,4 C 19,0 C 13,4 km/h 100,00 %
27.09.2021 10:18 19,3 C 84 % 1013,7 hPa 0,0 l/m 2,6 km/h SO 132 0 min 0,000 mm 0,8 UV-I 179 W/m 16,5 C 19,3 C 3,8 km/h 100,00 %
27.09.2021 10:17 19,2 C 84 % 1013,7 hPa 0,0 l/m 2,2 km/h SO 132 0 min 0,000 mm 0,8 UV-I 176 W/m 16,4 C 19,2 C 5,7 km/h 100,00 %
27.09.2021 10:16 19,3 C 84 % 1013,7 hPa 0,0 l/m 6,5 km/h O-SO 123 0 min 0,000 mm 0,7 UV-I 170 W/m 16,5 C 19,3 C 13,4 km/h 100,00 %
27.09.2021 10:15 19,3 C 84 % 1013,8 hPa 0,0 l/m 4,6 km/h S-SO 155 0 min 0,000 mm 0,7 UV-I 164 W/m 16,5 C 19,3 C 9,6 km/h 100,00 %
27.09.2021 10:14 19,3 C 84 % 1013,7 hPa 0,0 l/m 6,6 km/h O-SO 114 0 min 0,000 mm 0,7 UV-I 158 W/m 16,5 C 19,2 C 11,5 km/h 100,00 %
27.09.2021 10:13 19,3 C 84 % 1013,7 hPa 0,0 l/m 9,3 km/h S-SO 164 0 min 0,000 mm 0,7 UV-I 154 W/m 16,5 C 18,1 C 15,3 km/h 100,00 %
27.09.2021 10:12 19,4 C 84 % 1013,7 hPa 0,0 l/m 4,7 km/h SO 136 0 min 0,000 mm 0,7 UV-I 152 W/m 16,6 C 19,4 C 7,7 km/h 100,00 %
27.09.2021 10:11 19,4 C 83 % 1013,7 hPa 0,0 l/m 12,4 km/h SO 128 0 min 0,000 mm 0,7 UV-I 163 W/m 16,4 C 17,2 C 17,2 km/h 100,00 %
27.09.2021 10:10 19,5 C 84 % 1013,7 hPa 0,0 l/m 10,0 km/h SO 134 0 min 0,000 mm 0,7 UV-I 177 W/m 16,7 C 18,1 C 17,2 km/h 100,00 %
27.09.2021 10:09 19,5 C 85 % 1013,7 hPa 0,0 l/m 5,7 km/h SO 146 0 min 0,000 mm 0,7 UV-I 202 W/m 16,9 C 19,5 C 7,7 km/h 100,00 %
27.09.2021 10:08 19,5 C 85 % 1013,7 hPa 0,0 l/m 6,0 km/h O-SO 119 0 min 0,000 mm 0,8 UV-I 271 W/m 16,9 C 19,5 C 11,5 km/h 100,00 %
27.09.2021 10:07 19,4 C 85 % 1013,7 hPa 0,0 l/m 5,9 km/h O-SO 106 1 min 0,000 mm 0,8 UV-I 329 W/m 16,8 C 19,4 C 11,5 km/h 95,83 %
27.09.2021 10:06 19,4 C 85 % 1013,7 hPa 0,0 l/m 5,1 km/h O-SO 109 1 min 0,000 mm 0,8 UV-I 336 W/m 16,8 C 19,4 C 7,7 km/h 100,00 %
27.09.2021 10:05 19,3 C 85 % 1013,7 hPa 0,0 l/m 8,1 km/h S-SO 167 1 min 0,000 mm 0,9 UV-I 350 W/m 16,7 C 18,6 C 15,3 km/h 100,00 %
27.09.2021 10:04 19,3 C 85 % 1013,8 hPa 0,0 l/m 10,3 km/h O-SO 115 1 min 0,000 mm 0,9 UV-I 385 W/m 16,7 C 17,8 C 17,2 km/h 100,00 %
27.09.2021 10:03 19,2 C 85 % 1013,8 hPa 0,0 l/m 9,7 km/h SO 142 1 min 0,000 mm 0,9 UV-I 388 W/m 16,6 C 17,9 C 15,3 km/h 100,00 %
27.09.2021 10:02 19,2 C 86 % 1013,9 hPa 0,0 l/m 10,3 km/h S-SO 153 1 min 0,000 mm 1,0 UV-I 379 W/m 16,8 C 17,7 C 19,1 km/h 100,00 %
27.09.2021 10:01 19,2 C 86 % 1013,9 hPa 0,0 l/m 5,2 km/h S-SO 154 1 min 0,000 mm 1,0 UV-I 382 W/m 16,8 C 19,2 C 11,5 km/h 100,00 %
27.09.2021 10:00 19,1 C 86 % 1013,8 hPa 0,0 l/m 5,8 km/h SO 131 1 min 0,127 mm 1,0 UV-I 386 W/m 16,7 C 19,1 C 7,7 km/h 100,00 %
27.09.2021 09:59 19,0 C 86 % 1013,8 hPa 0,0 l/m 12,6 km/h SO 128 1 min 0,000 mm 1,0 UV-I 381 W/m 16,6 C 16,7 C 21,0 km/h 96,67 %
27.09.2021 09:58 19,0 C 86 % 1013,8 hPa 0,0 l/m 6,2 km/h S-SO 154 1 min 0,000 mm 1,0 UV-I 376 W/m 16,6 C 19,0 C 11,5 km/h 100,00 %
27.09.2021 09:57 18,9 C 86 % 1013,8 hPa 0,0 l/m 8,7 km/h S-SO 161 1 min 0,000 mm 1,0 UV-I 358 W/m 16,5 C 17,9 C 17,2 km/h 100,00 %
27.09.2021 09:56 18,9 C 86 % 1013,8 hPa 0,0 l/m 11,8 km/h SO 132 1 min 0,000 mm 1,0 UV-I 350 W/m 16,5 C 16,8 C 17,2 km/h 100,00 %
27.09.2021 09:55 18,9 C 86 % 1013,7 hPa 0,0 l/m 10,8 km/h SO 130 1 min 0,000 mm 1,0 UV-I 349 W/m 16,5 C 17,1 C 19,1 km/h 100,00 %
27.09.2021 09:54 18,9 C 86 % 1013,8 hPa 0,0 l/m 12,0 km/h SO 133 1 min 0,000 mm 1,0 UV-I 326 W/m 16,5 C 16,8 C 19,1 km/h 100,00 %
27.09.2021 09:53 18,9 C 86 % 1013,8 hPa 0,0 l/m 10,6 km/h O-SO 121 1 min 0,000 mm 0,9 UV-I 293 W/m 16,5 C 17,2 C 17,2 km/h 100,00 %
27.09.2021 09:52 18,8 C 87 % 1013,8 hPa 0,0 l/m 8,3 km/h SO 129 1 min 0,000 mm 0,9 UV-I 309 W/m 16,6 C 18,0 C 15,3 km/h 100,00 %
27.09.2021 09:51 18,8 C 87 % 1013,8 hPa 0,0 l/m 7,4 km/h O-SO 116 1 min 0,000 mm 0,9 UV-I 295 W/m 16,6 C 18,4 C 13,4 km/h 100,00 %
27.09.2021 09:50 18,8 C 87 % 1013,8 hPa 0,0 l/m 11,2 km/h SO 146 0 min 0,000 mm 0,9 UV-I 264 W/m 16,6 C 16,9 C 17,2 km/h 95,65 %
27.09.2021 09:49 18,8 C 87 % 1013,8 hPa 0,0 l/m 7,2 km/h SO 131 0 min 0,000 mm 0,9 UV-I 285 W/m 16,6 C 18,4 C 11,5 km/h 100,00 %
27.09.2021 09:48 18,7 C 87 % 1013,8 hPa 0,0 l/m 7,2 km/h SO 129 0 min 0,000 mm 0,8 UV-I 284 W/m 16,5 C 18,3 C 11,5 km/h 100,00 %
27.09.2021 09:47 18,7 C 87 % 1013,9 hPa 0,0 l/m 14,9 km/h S-SO 150 0 min 0,000 mm 0,8 UV-I 277 W/m 16,5 C 15,7 C 17,2 km/h 100,00 %
27.09.2021 09:46 18,7 C 88 % 1013,8 hPa 0,0 l/m 11,6 km/h O-SO 115 0 min 0,000 mm 0,8 UV-I 269 W/m 16,7 C 16,7 C 17,2 km/h 100,00 %
27.09.2021 09:45 18,7 C 88 % 1013,9 hPa 0,0 l/m 7,3 km/h SO 132 0 min 0,000 mm 0,8 UV-I 256 W/m 16,7 C 18,3 C 15,3 km/h 100,00 %
27.09.2021 09:44 18,6 C 88 % 1013,9 hPa 0,0 l/m 5,1 km/h O-SO 121 0 min 0,000 mm 0,8 UV-I 255 W/m 16,6 C 18,6 C 17,2 km/h 100,00 %
27.09.2021 09:43 18,6 C 88 % 1013,9 hPa 0,0 l/m 7,9 km/h O-SO 108 0 min 0,000 mm 0,8 UV-I 258 W/m 16,6 C 17,9 C 17,2 km/h 100,00 %
27.09.2021 09:42 18,6 C 88 % 1013,9 hPa 0,0 l/m 7,7 km/h SO 125 0 min 0,000 mm 0,8 UV-I 262 W/m 16,6 C 18,0 C 17,2 km/h 100,00 %
27.09.2021 09:41 18,5 C 88 % 1014,0 hPa 0,0 l/m 5,0 km/h O-SO 120 0 min 0,000 mm 0,7 UV-I 257 W/m 16,5 C 18,5 C 9,6 km/h 95,65 %
27.09.2021 09:40 18,5 C 88 % 1013,9 hPa 0,0 l/m 6,3 km/h S 177 0 min 0,000 mm 0,7 UV-I 249 W/m 16,5 C 18,5 C 13,4 km/h 100,00 %
27.09.2021 09:39 18,4 C 89 % 1014,0 hPa 0,0 l/m 13,5 km/h S-SO 150 0 min 0,000 mm 0,7 UV-I 243 W/m 16,6 C 15,7 C 19,1 km/h 100,00 %
27.09.2021 09:38 18,4 C 89 % 1014,0 hPa 0,0 l/m 6,4 km/h SO 135 0 min 0,000 mm 0,7 UV-I 236 W/m 16,6 C 18,4 C 17,2 km/h 100,00 %
27.09.2021 09:37 18,4 C 88 % 1014,0 hPa 0,0 l/m 7,4 km/h S-SO 153 0 min 0,000 mm 0,7 UV-I 227 W/m 16,4 C 17,9 C 13,4 km/h 100,00 %
27.09.2021 09:36 18,4 C 89 % 1014,0 hPa 0,0 l/m 11,7 km/h SO 140 0 min 0,000 mm 0,7 UV-I 221 W/m 16,6 C 16,3 C 17,2 km/h 100,00 %
27.09.2021 09:35 18,4 C 89 % 1013,9 hPa 0,0 l/m 7,7 km/h O-SO 120 0 min 0,000 mm 0,7 UV-I 219 W/m 16,6 C 17,8 C 13,4 km/h 100,00 %
27.09.2021 09:34 18,3 C 89 % 1014,0 hPa 0,0 l/m 4,1 km/h SO 142 0 min 0,000 mm 0,7 UV-I 212 W/m 16,5 C 18,3 C 7,7 km/h 100,00 %
27.09.2021 09:33 18,3 C 89 % 1013,9 hPa 0,0 l/m 2,0 km/h O-SO 115 0 min 0,000 mm 0,6 UV-I 176 W/m 16,5 C 18,3 C 3,8 km/h 100,00 %
27.09.2021 09:32 18,3 C 89 % 1013,9 hPa 0,0 l/m 8,0 km/h O-SO 113 0 min 0,000 mm 0,6 UV-I 172 W/m 16,5 C 17,6 C 13,4 km/h 100,00 %
27.09.2021 09:31 18,2 C 89 % 1013,9 hPa 0,0 l/m 7,5 km/h SO 138 0 min 0,000 mm 0,6 UV-I 190 W/m 16,4 C 17,7 C 9,6 km/h 100,00 %
27.09.2021 09:30 18,2 C 90 % 1014,0 hPa 0,0 l/m 8,5 km/h SO 133 0 min 0,000 mm 0,6 UV-I 181 W/m 16,5 C 17,2 C 19,1 km/h 100,00 %
27.09.2021 09:29 18,2 C 90 % 1013,9 hPa 0,0 l/m 7,2 km/h SO 136 0 min 0,000 mm 0,6 UV-I 186 W/m 16,5 C 17,8 C 15,3 km/h 100,00 %
27.09.2021 09:28 18,2 C 90 % 1014,0 hPa 0,0 l/m 6,0 km/h O-SO 119 0 min 0,000 mm 0,6 UV-I 182 W/m 16,5 C 18,2 C 11,5 km/h 100,00 %
27.09.2021 09:27 18,2 C 90 % 1014,0 hPa 0,0 l/m 2,2 km/h SO 130 0 min 0,000 mm 0,6 UV-I 178 W/m 16,5 C 18,2 C 3,8 km/h 100,00 %
27.09.2021 09:26 18,1 C 90 % 1014,0 hPa 0,0 l/m 5,3 km/h SO 129 0 min 0,000 mm 0,6 UV-I 172 W/m 16,4 C 18,1 C 9,6 km/h 100,00 %
27.09.2021 09:25 18,1 C 90 % 1014,0 hPa 0,0 l/m 7,1 km/h SO 138 0 min 0,000 mm 0,6 UV-I 164 W/m 16,4 C 17,8 C 21,0 km/h 100,00 %
27.09.2021 09:24 18,1 C 90 % 1014,0 hPa 0,0 l/m 8,6 km/h S-SO 155 0 min 0,000 mm 0,5 UV-I 158 W/m 16,4 C 17,1 C 19,1 km/h 100,00 %
27.09.2021 09:23 18,1 C 90 % 1014,0 hPa 0,0 l/m 7,3 km/h SO 130 0 min 0,000 mm 0,5 UV-I 152 W/m 16,4 C 17,7 C 13,4 km/h 100,00 %
27.09.2021 09:22 18,1 C 91 % 1014,0 hPa 0,0 l/m 6,2 km/h O-SO 111 0 min 0,000 mm 0,5 UV-I 148 W/m 16,6 C 18,1 C 11,5 km/h 100,00 %
27.09.2021 09:21 18,0 C 91 % 1014,0 hPa 0,0 l/m 9,0 km/h SO 125 0 min 0,000 mm 0,5 UV-I 146 W/m 16,5 C 16,8 C 13,4 km/h 100,00 %
27.09.2021 09:20 18,0 C 91 % 1014,0 hPa 0,0 l/m 2,3 km/h SO 130 0 min 0,000 mm 0,5 UV-I 142 W/m 16,5 C 18,0 C 5,7 km/h 100,00 %
27.09.2021 09:19 17,9 C 91 % 1014,0 hPa 0,0 l/m 8,5 km/h SO 129 0 min 0,000 mm 0,5 UV-I 141 W/m 16,4 C 16,9 C 13,4 km/h 94,44 %
27.09.2021 09:18 17,9 C 91 % 1014,0 hPa 0,0 l/m 7,2 km/h SO 125 0 min 0,000 mm 0,5 UV-I 139 W/m 16,4 C 17,5 C 13,4 km/h 100,00 %
27.09.2021 09:17 17,9 C 91 % 1014,0 hPa 0,0 l/m 6,2 km/h O-SO 118 0 min 0,000 mm 0,5 UV-I 134 W/m 16,4 C 17,9 C 11,5 km/h 100,00 %
27.09.2021 09:16 17,8 C 91 % 1014,1 hPa 0,0 l/m 7,3 km/h O-SO 121 0 min 0,000 mm 0,5 UV-I 133 W/m 16,3 C 17,4 C 13,4 km/h 100,00 %
27.09.2021 09:15 17,8 C 91 % 1014,1 hPa 0,0 l/m 6,1 km/h O-SO 118 0 min 0,000 mm 0,5 UV-I 132 W/m 16,3 C 17,8 C 7,7 km/h 100,00 %
27.09.2021 09:14 17,8 C 91 % 1014,1 hPa 0,0 l/m 6,2 km/h O-SO 118 0 min 0,000 mm 0,5 UV-I 132 W/m 16,3 C 17,8 C 7,7 km/h 100,00 %
27.09.2021 09:13 17,8 C 91 % 1014,1 hPa 0,0 l/m 4,8 km/h S-SO 147 0 min 0,000 mm 0,5 UV-I 132 W/m 16,3 C 17,8 C 9,6 km/h 100,00 %
27.09.2021 09:12 17,7 C 92 % 1014,1 hPa 0,0 l/m 3,4 km/h O-SO 113 0 min 0,000 mm 0,3 UV-I 132 W/m 16,4 C 17,7 C 7,7 km/h 96,30 %
27.09.2021 09:11 17,7 C 92 % 1014,1 hPa 0,0 l/m 6,5 km/h SO 139 0 min 0,000 mm 0,0 UV-I 131 W/m 16,4 C 17,7 C 11,5 km/h 100,00 %
27.09.2021 09:10 17,6 C 92 % 1014,1 hPa 0,0 l/m 4,5 km/h O-SO 119 0 min 0,000 mm 0,0 UV-I 126 W/m 16,3 C 17,6 C 7,7 km/h 100,00 %
27.09.2021 09:09 17,6 C 92 % 1014,1 hPa 0,0 l/m 3,0 km/h SO 126 0 min 0,000 mm 0,0 UV-I 120 W/m 16,3 C 17,6 C 7,7 km/h 100,00 %
27.09.2021 09:08 17,6 C 92 % 1014,1 hPa 0,0 l/m 1,9 km/h SO 133 0 min 0,000 mm 0,0 UV-I 105 W/m 16,3 C 17,6 C 5,7 km/h 100,00 %
27.09.2021 09:07 17,5 C 91 % 1014,1 hPa 0,0 l/m 3,5 km/h SO 133 0 min 0,000 mm 0,0 UV-I 104 W/m 16,0 C 17,5 C 7,7 km/h 100,00 %
27.09.2021 09:06 17,5 C 91 % 1014,1 hPa 0,0 l/m 1,7 km/h SO 133 0 min 0,000 mm 0,0 UV-I 84 W/m 16,0 C 17,5 C 5,7 km/h 100,00 %
27.09.2021 09:05 17,5 C 91 % 1014,2 hPa 0,0 l/m 3,9 km/h SO 133 0 min 0,000 mm 0,0 UV-I 66 W/m 16,0 C 17,5 C 7,7 km/h 100,00 %
27.09.2021 09:04 17,5 C 91 % 1014,1 hPa 0,0 l/m 4,6 km/h O-SO 120 0 min 0,000 mm 0,0 UV-I 61 W/m 16,0 C 17,5 C 7,7 km/h 100,00 %
27.09.2021 09:03 17,5 C 91 % 1014,1 hPa 0,0 l/m 8,1 km/h O-SO 115 0 min 0,000 mm 0,0 UV-I 57 W/m 16,0 C 16,7 C 15,3 km/h 100,00 %
27.09.2021 09:02 17,5 C 91 % 1014,2 hPa 0,0 l/m 3,7 km/h SO 130 0 min 0,000 mm 0,0 UV-I 54 W/m 16,0 C 17,5 C 7,7 km/h 100,00 %
27.09.2021 09:01 17,5 C 91 % 1014,2 hPa 0,0 l/m 7,4 km/h SO 134 0 min 0,025 mm 0,0 UV-I 53 W/m 16,0 C 17,0 C 13,4 km/h 100,00 %
27.09.2021 09:00 17,5 C 91 % 1014,1 hPa 0,0 l/m 4,3 km/h SO 136 0 min 0,000 mm 0,0 UV-I 53 W/m 16,0 C 17,5 C 9,6 km/h 100,00 %
27.09.2021 08:59 17,5 C 92 % 1014,1 hPa 0,0 l/m 7,2 km/h SO 138 0 min 0,000 mm 0,0 UV-I 53 W/m 16,2 C 17,1 C 15,3 km/h 96,55 %
27.09.2021 08:58 17,5 C 92 % 1014,1 hPa 0,0 l/m 3,4 km/h S-SO 148 0 min 0,000 mm 0,0 UV-I 54 W/m 16,2 C 17,5 C 9,6 km/h 95,83 %
27.09.2021 08:57 17,4 C 92 % 1014,2 hPa 0,0 l/m 6,7 km/h SO 127 0 min 0,000 mm 0,0 UV-I 56 W/m 16,1 C 17,3 C 7,7 km/h 96,15 %
27.09.2021 08:56 17,4 C 92 % 1014,2 hPa 0,0 l/m 5,7 km/h SO 140 0 min 0,000 mm 0,0 UV-I 58 W/m 16,1 C 17,4 C 9,6 km/h 100,00 %
27.09.2021 08:55 17,4 C 92 % 1014,2 hPa 0,0 l/m 4,1 km/h SO 132 0 min 0,000 mm 0,0 UV-I 60 W/m 16,1 C 17,4 C 5,7 km/h 95,83 %
27.09.2021 08:54 17,4 C 92 % 1014,2 hPa 0,0 l/m 1,0 km/h SO 133 0 min 0,000 mm 0,0 UV-I 58 W/m 16,1 C 17,4 C 1,9 km/h 100,00 %
27.09.2021 08:53 17,4 C 92 % 1014,2 hPa 0,0 l/m 2,7 km/h SO 133 0 min 0,000 mm 0,0 UV-I 55 W/m 16,1 C 17,4 C 3,8 km/h 100,00 %
27.09.2021 08:52 17,4 C 92 % 1014,2 hPa 0,0 l/m 2,8 km/h SO 132 0 min 0,000 mm 0,0 UV-I 53 W/m 16,1 C 17,4 C 5,7 km/h 100,00 %
27.09.2021 08:51 17,4 C 92 % 1014,2 hPa 0,0 l/m 2,7 km/h SO 132 0 min 0,000 mm 0,0 UV-I 53 W/m 16,1 C 17,4 C 5,7 km/h 100,00 %
27.09.2021 08:50 17,4 C 92 % 1014,2 hPa 0,0 l/m 4,2 km/h SO 138 0 min 0,000 mm 0,0 UV-I 51 W/m 16,1 C 17,4 C 9,6 km/h 100,00 %
27.09.2021 08:49 17,4 C 92 % 1014,2 hPa 0,0 l/m 8,1 km/h SO 142 0 min 0,000 mm 0,0 UV-I 51 W/m 16,1 C 16,6 C 13,4 km/h 100,00 %
27.09.2021 08:48 17,4 C 92 % 1014,2 hPa 0,0 l/m 4,6 km/h S-SO 157 0 min 0,000 mm 0,0 UV-I 51 W/m 16,1 C 17,4 C 9,6 km/h 100,00 %
27.09.2021 08:47 17,4 C 92 % 1014,2 hPa 0,0 l/m 6,3 km/h S-SO 163 0 min 0,000 mm 0,0 UV-I 48 W/m 16,1 C 17,4 C 13,4 km/h 100,00 %
27.09.2021 08:46 17,4 C 92 % 1014,2 hPa 0,0 l/m 6,7 km/h SO 145 0 min 0,000 mm 0,0 UV-I 46 W/m 16,1 C 17,3 C 15,3 km/h 100,00 %
27.09.2021 08:45 17,4 C 92 % 1014,2 hPa 0,0 l/m 8,1 km/h SO 132 0 min 0,000 mm 0,0 UV-I 50 W/m 16,1 C 16,6 C 17,2 km/h 100,00 %
27.09.2021 08:44 17,3 C 92 % 1014,2 hPa 0,0 l/m 5,8 km/h SO 139 0 min 0,000 mm 0,0 UV-I 55 W/m 16,0 C 17,3 C 9,6 km/h 95,65 %
27.09.2021 08:43 17,3 C 92 % 1014,2 hPa 0,0 l/m 3,6 km/h S-SO 157 0 min 0,000 mm 0,0 UV-I 58 W/m 16,0 C 17,3 C 5,7 km/h 100,00 %
27.09.2021 08:42 17,3 C 92 % 1014,2 hPa 0,0 l/m 2,4 km/h S-SO 161 0 min 0,000 mm 0,0 UV-I 57 W/m 16,0 C 17,3 C 3,8 km/h 100,00 %
27.09.2021 08:41 17,3 C 92 % 1014,2 hPa 0,0 l/m 2,2 km/h S-SO 161 0 min 0,000 mm 0,0 UV-I 52 W/m 16,0 C 17,3 C 3,8 km/h 100,00 %
27.09.2021 08:40 17,3 C 92 % 1014,3 hPa 0,0 l/m 4,2 km/h S-SO 161 0 min 0,000 mm 0,0 UV-I 48 W/m 16,0 C 17,3 C 11,5 km/h 100,00 %
27.09.2021 08:39 17,3 C 92 % 1014,2 hPa 0,0 l/m 4,5 km/h S-SO 167 0 min 0,000 mm 0,0 UV-I 46 W/m 16,0 C 17,3 C 9,6 km/h 100,00 %
27.09.2021 08:38 17,3 C 92 % 1014,2 hPa 0,0 l/m 3,9 km/h SO 143 0 min 0,000 mm 0,0 UV-I 46 W/m 16,0 C 17,3 C 7,7 km/h 100,00 %
27.09.2021 08:37 17,3 C 92 % 1014,2 hPa 0,0 l/m 7,5 km/h S-SO 147 0 min 0,000 mm 0,0 UV-I 44 W/m 16,0 C 16,8 C 13,4 km/h 100,00 %
27.09.2021 08:36 17,3 C 92 % 1014,2 hPa 0,0 l/m 4,4 km/h S-SO 162 0 min 0,000 mm 0,0 UV-I 44 W/m 16,0 C 17,3 C 7,7 km/h 100,00 %
27.09.2021 08:35 17,2 C 92 % 1014,2 hPa 0,0 l/m 4,9 km/h S-SO 155 0 min 0,000 mm 0,0 UV-I 43 W/m 15,9 C 17,2 C 7,7 km/h 100,00 %
27.09.2021 08:34 17,3 C 92 % 1014,2 hPa 0,0 l/m 5,0 km/h S 182 0 min 0,000 mm 0,0 UV-I 41 W/m 16,0 C 17,3 C 11,5 km/h 100,00 %
27.09.2021 08:33 17,2 C 92 % 1014,2 hPa 0,0 l/m 4,4 km/h SO 139 0 min 0,000 mm 0,0 UV-I 39 W/m 15,9 C 17,2 C 9,6 km/h 100,00 %
27.09.2021 08:32 17,2 C 92 % 1014,2 hPa 0,0 l/m 6,0 km/h S-SO 161 0 min 0,000 mm 0,0 UV-I 35 W/m 15,9 C 17,2 C 9,6 km/h 100,00 %
27.09.2021 08:31 17,2 C 92 % 1014,2 hPa 0,0 l/m 6,2 km/h SO 144 0 min 0,000 mm 0,0 UV-I 33 W/m 15,9 C 17,2 C 13,4 km/h 100,00 %
27.09.2021 08:30 17,2 C 92 % 1014,2 hPa 0,0 l/m 4,0 km/h SO 144 0 min 0,000 mm 0,0 UV-I 34 W/m 15,9 C 17,2 C 9,6 km/h 100,00 %
27.09.2021 08:29 17,2 C 92 % 1014,2 hPa 0,0 l/m 6,6 km/h S 175 0 min 0,000 mm 0,0 UV-I 35 W/m 15,9 C 17,1 C 11,5 km/h 97,62 %
27.09.2021 08:28 17,2 C 92 % 1014,2 hPa 0,0 l/m 1,7 km/h SO 140 0 min 0,000 mm 0,0 UV-I 35 W/m 15,9 C 17,2 C 3,8 km/h 100,00 %
27.09.2021 08:27 17,2 C 92 % 1014,2 hPa 0,0 l/m 3,7 km/h SO 140 0 min 0,000 mm 0,0 UV-I 35 W/m 15,9 C 17,2 C 9,6 km/h 100,00 %
27.09.2021 08:26 17,2 C 92 % 1014,2 hPa 0,0 l/m 6,5 km/h S-SO 153 0 min 0,000 mm 0,0 UV-I 33 W/m 15,9 C 17,2 C 11,5 km/h 100,00 %
27.09.2021 08:25 17,2 C 92 % 1014,2 hPa 0,0 l/m 3,7 km/h S-SO 163 0 min 0,000 mm 0,0 UV-I 33 W/m 15,9 C 17,2 C 7,7 km/h 100,00 %
27.09.2021 08:24 17,2 C 92 % 1014,2 hPa 0,0 l/m 4,2 km/h SO 146 0 min 0,000 mm 0,0 UV-I 31 W/m 15,9 C 17,2 C 5,7 km/h 100,00 %
27.09.2021 08:23 17,2 C 92 % 1014,2 hPa 0,0 l/m 4,6 km/h S-SO 148 0 min 0,000 mm 0,0 UV-I 29 W/m 15,9 C 17,2 C 13,4 km/h 100,00 %
27.09.2021 08:22 17,2 C 92 % 1014,3 hPa 0,0 l/m 3,8 km/h SO 142 0 min 0,000 mm 0,0 UV-I 25 W/m 15,9 C 17,2 C 7,7 km/h 100,00 %
27.09.2021 08:21 17,2 C 92 % 1014,2 hPa 0,0 l/m 0,9 km/h S-SO 151 0 min 0,000 mm 0,0 UV-I 25 W/m 15,9 C 17,2 C 3,8 km/h 100,00 %
27.09.2021 08:20 17,2 C 92 % 1014,2 hPa 0,0 l/m 1,2 km/h S-SO 151 0 min 0,000 mm 0,0 UV-I 25 W/m 15,9 C 17,2 C 3,8 km/h 100,00 %
27.09.2021 08:19 17,2 C 92 % 1014,2 hPa 0,0 l/m 1,5 km/h S-SO 151 0 min 0,000 mm 0,0 UV-I 25 W/m 15,9 C 17,2 C 5,7 km/h 100,00 %
27.09.2021 08:18 17,1 C 92 % 1014,2 hPa 0,0 l/m 5,0 km/h S-SO 153 0 min 0,000 mm 0,0 UV-I 25 W/m 15,8 C 17,1 C 9,6 km/h 100,00 %
27.09.2021 08:17 17,1 C 92 % 1014,2 hPa 0,0 l/m 3,7 km/h SO 140 0 min 0,000 mm 0,0 UV-I 25 W/m 15,8 C 17,1 C 9,6 km/h 100,00 %
27.09.2021 08:16 17,1 C 92 % 1014,2 hPa 0,0 l/m 0,6 km/h S-SO 150 0 min 0,000 mm 0,0 UV-I 23 W/m 15,8 C 17,1 C 1,9 km/h 100,00 %
27.09.2021 08:15 17,1 C 92 % 1014,2 hPa 0,0 l/m 1,0 km/h S-SO 150 0 min 0,000 mm 0,0 UV-I 23 W/m 15,8 C 17,1 C 3,8 km/h 100,00 %
27.09.2021 08:14 17,1 C 92 % 1014,2 hPa 0,0 l/m 2,4 km/h S-SO 150 0 min 0,000 mm 0,0 UV-I 23 W/m 15,8 C 17,1 C 3,8 km/h 100,00 %
27.09.2021 08:13 17,1 C 93 % 1014,2 hPa 0,0 l/m 2,0 km/h S-SO 149 0 min 0,000 mm 0,0 UV-I 22 W/m 16,0 C 17,1 C 3,8 km/h 100,00 %
27.09.2021 08:12 17,1 C 93 % 1014,2 hPa 0,0 l/m 2,0 km/h S-SO 149 0 min 0,000 mm 0,0 UV-I 21 W/m 16,0 C 17,1 C 3,8 km/h 96,30 %
27.09.2021 08:11 17,1 C 93 % 1014,2 hPa 0,0 l/m 2,3 km/h S-SO 148 0 min 0,000 mm 0,0 UV-I 21 W/m 16,0 C 17,1 C 7,7 km/h 100,00 %
27.09.2021 08:10 17,1 C 93 % 1014,2 hPa 0,0 l/m 6,9 km/h O-SO 113 0 min 0,000 mm 0,0 UV-I 21 W/m 16,0 C 16,9 C 9,6 km/h 100,00 %
27.09.2021 08:09 17,1 C 93 % 1014,2 hPa 0,0 l/m 1,8 km/h SO 135 0 min 0,000 mm 0,0 UV-I 19 W/m 16,0 C 17,1 C 3,8 km/h 96,30 %
27.09.2021 08:08 17,1 C 93 % 1014,2 hPa 0,0 l/m 2,2 km/h SO 141 0 min 0,000 mm 0,0 UV-I 19 W/m 16,0 C 17,1 C 7,7 km/h 100,00 %
27.09.2021 08:07 17,1 C 93 % 1014,1 hPa 0,0 l/m 1,0 km/h S-SO 150 0 min 0,000 mm 0,0 UV-I 18 W/m 16,0 C 17,1 C 1,9 km/h 100,00 %
27.09.2021 08:06 17,1 C 93 % 1014,2 hPa 0,0 l/m 1,2 km/h S-SO 150 0 min 0,000 mm 0,0 UV-I 17 W/m 16,0 C 17,1 C 3,8 km/h 100,00 %
27.09.2021 08:05 17,1 C 93 % 1014,2 hPa 0,0 l/m 1,5 km/h S-SO 150 0 min 0,000 mm 0,0 UV-I 16 W/m 16,0 C 17,1 C 3,8 km/h 100,00 %
27.09.2021 08:04 17,1 C 93 % 1014,2 hPa 0,0 l/m 0,3 km/h S-SO 150 0 min 0,000 mm 0,0 UV-I 14 W/m 16,0 C 17,1 C 1,9 km/h 100,00 %
27.09.2021 08:03 17,1 C 93 % 1014,2 hPa 0,0 l/m 0,7 km/h S-SO 150 0 min 0,000 mm 0,0 UV-I 14 W/m 16,0 C 17,1 C 1,9 km/h 100,00 %
27.09.2021 08:02 17,1 C 93 % 1014,2 hPa 0,0 l/m 1,3 km/h S-SO 150 0 min 0,000 mm 0,0 UV-I 14 W/m 16,0 C 17,1 C 3,8 km/h 100,00 %
27.09.2021 08:01 17,1 C 93 % 1014,2 hPa 0,0 l/m 8,5 km/h S-SO 150 0 min 0,000 mm 0,0 UV-I 14 W/m 16,0 C 16,1 C 13,4 km/h 95,83 %
27.09.2021 08:00 17,0 C 93 % 1014,2 hPa 0,0 l/m 0,0 km/h SO 142 0 min 0,000 mm 0,0 UV-I 14 W/m 15,9 C 17,0 C 0,0 km/h 100,00 %
27.09.2021 07:59 17,0 C 93 % 1014,2 hPa 0,0 l/m 1,4 km/h SO 142 0 min 0,000 mm 0,0 UV-I 14 W/m 15,9 C 17,0 C 3,8 km/h 100,00 %
27.09.2021 07:58 17,0 C 93 % 1014,2 hPa 0,0 l/m 4,5 km/h SO 139 0 min 0,000 mm 0,0 UV-I 14 W/m 15,9 C 17,0 C 7,7 km/h 100,00 %
27.09.2021 07:57 17,0 C 93 % 1014,2 hPa 0,0 l/m 5,5 km/h O-SO 111 0 min 0,000 mm 0,0 UV-I 12 W/m 15,9 C 17,0 C 11,5 km/h 100,00 %
27.09.2021 07:56 17,0 C 93 % 1014,2 hPa 0,0 l/m 1,9 km/h SO 125 0 min 0,000 mm 0,0 UV-I 11 W/m 15,9 C 17,0 C 3,8 km/h 100,00 %
27.09.2021 07:55 17,0 C 93 % 1014,2 hPa 0,0 l/m 3,7 km/h SO 125 0 min 0,000 mm 0,0 UV-I 11 W/m 15,9 C 17,0 C 5,7 km/h 95,65 %
27.09.2021 07:54 17,0 C 93 % 1014,2 hPa 0,0 l/m 3,8 km/h SO 125 0 min 0,000 mm 0,0 UV-I 11 W/m 15,9 C 17,0 C 5,7 km/h 100,00 %
27.09.2021 07:53 17,0 C 93 % 1014,2 hPa 0,0 l/m 6,3 km/h SO 126 0 min 0,000 mm 0,0 UV-I 11 W/m 15,9 C 17,0 C 13,4 km/h 100,00 %
27.09.2021 07:52 17,0 C 93 % 1014,2 hPa 0,0 l/m 7,6 km/h SO 132 0 min 0,000 mm 0,0 UV-I 11 W/m 15,9 C 16,4 C 15,3 km/h 100,00 %
27.09.2021 07:51 17,0 C 93 % 1014,2 hPa 0,0 l/m 4,5 km/h SO 134 0 min 0,000 mm 0,0 UV-I 11 W/m 15,9 C 17,0 C 9,6 km/h 100,00 %
27.09.2021 07:50 17,0 C 93 % 1014,2 hPa 0,0 l/m 3,5 km/h SO 141 0 min 0,000 mm 0,0 UV-I 10 W/m 15,9 C 17,0 C 5,7 km/h 100,00 %
27.09.2021 07:49 16,9 C 93 % 1014,2 hPa 0,0 l/m 1,4 km/h SO 141 0 min 0,000 mm 0,0 UV-I 9 W/m 15,8 C 16,9 C 3,8 km/h 100,00 %
27.09.2021 07:48 16,9 C 93 % 1014,2 hPa 0,0 l/m 3,4 km/h SO 141 0 min 0,000 mm 0,0 UV-I 9 W/m 15,8 C 16,9 C 9,6 km/h 100,00 %
27.09.2021 07:47 16,9 C 93 % 1014,2 hPa 0,0 l/m 2,8 km/h SO 141 0 min 0,000 mm 0,0 UV-I 8 W/m 15,8 C 16,9 C 5,7 km/h 100,00 %
27.09.2021 07:46 16,9 C 93 % 1014,2 hPa 0,0 l/m 3,2 km/h SO 142 0 min 0,000 mm 0,0 UV-I 7 W/m 15,8 C 16,9 C 5,7 km/h 95,83 %
27.09.2021 07:45 16,9 C 93 % 1014,2 hPa 0,0 l/m 5,7 km/h SO 142 0 min 0,000 mm 0,0 UV-I 7 W/m 15,8 C 16,9 C 11,5 km/h 100,00 %
27.09.2021 07:44 16,9 C 93 % 1014,2 hPa 0,0 l/m 3,5 km/h S-SO 155 0 min 0,000 mm 0,0 UV-I 5 W/m 15,8 C 16,9 C 7,7 km/h 100,00 %
27.09.2021 07:43 16,9 C 93 % 1014,3 hPa 0,0 l/m 0,8 km/h S-SO 155 0 min 0,000 mm 0,0 UV-I 5 W/m 15,8 C 16,9 C 3,8 km/h 100,00 %
27.09.2021 07:42 16,9 C 93 % 1014,3 hPa 0,0 l/m 2,3 km/h S-SO 155 0 min 0,000 mm 0,0 UV-I 5 W/m 15,8 C 16,9 C 5,7 km/h 100,00 %
27.09.2021 07:41 16,9 C 93 % 1014,3 hPa 0,0 l/m 3,2 km/h S-SO 155 0 min 0,000 mm 0,0 UV-I 1 W/m 15,8 C 16,9 C 5,7 km/h 100,00 %
27.09.2021 07:40 16,9 C 93 % 1014,3 hPa 0,0 l/m 5,2 km/h S-SO 157 0 min 0,000 mm 0,0 UV-I 0 W/m 15,8 C 16,9 C 11,5 km/h 100,00 %
27.09.2021 07:39 16,9 C 93 % 1014,3 hPa 0,0 l/m 7,5 km/h S-SO 166 0 min 0,000 mm 0,0 UV-I 0 W/m 15,8 C 16,3 C 13,4 km/h 100,00 %
27.09.2021 07:38 16,9 C 93 % 1014,3 hPa 0,0 l/m 3,1 km/h O-SO 120 0 min 0,000 mm 0,0 UV-I 0 W/m 15,8 C 16,9 C 7,7 km/h 96,00 %
27.09.2021 07:37 16,9 C 93 % 1014,3 hPa 0,0 l/m 6,8 km/h O-SO 119 0 min 0,000 mm 0,0 UV-I 0 W/m 15,8 C 16,7 C 13,4 km/h 100,00 %
27.09.2021 07:36 16,9 C 93 % 1014,3 hPa 0,0 l/m 6,7 km/h O-SO 121 0 min 0,000 mm 0,0 UV-I 0 W/m 15,8 C 16,8 C 13,4 km/h 100,00 %
27.09.2021 07:35 16,9 C 93 % 1014,4 hPa 0,0 l/m 4,3 km/h O-SO 122 0 min 0,000 mm 0,0 UV-I 0 W/m 15,8 C 16,9 C 7,7 km/h 100,00 %
27.09.2021 07:34 16,9 C 93 % 1014,3 hPa 0,0 l/m 2,5 km/h O-SO 123 0 min 0,000 mm 0,0 UV-I 0 W/m 15,8 C 16,9 C 7,7 km/h 100,00 %
27.09.2021 07:33 16,9 C 93 % 1014,3 hPa 0,0 l/m 1,4 km/h O-SO 123 0 min 0,000 mm 0,0 UV-I 0 W/m 15,8 C 16,9 C 3,8 km/h 100,00 %
27.09.2021 07:32 16,9 C 93 % 1014,3 hPa 0,0 l/m 4,1 km/h O-SO 123 0 min 0,000 mm 0,0 UV-I 0 W/m 15,8 C 16,9 C 5,7 km/h 100,00 %
27.09.2021 07:31 16,9 C 93 % 1014,3 hPa 0,0 l/m 3,5 km/h O-SO 122 0 min 0,000 mm 0,0 UV-I 0 W/m 15,8 C 16,9 C 5,7 km/h 100,00 %
27.09.2021 07:30 16,9 C 93 % 1014,3 hPa 0,0 l/m 6,7 km/h O-SO 115 0 min 0,000 mm 0,0 UV-I 0 W/m 15,8 C 16,8 C 13,4 km/h 100,00 %
27.09.2021 07:29 16,9 C 93 % 1014,3 hPa 0,0 l/m 1,8 km/h SO 129 0 min 0,000 mm 0,0 UV-I 0 W/m 15,8 C 16,9 C 7,7 km/h 100,00 %
27.09.2021 07:28 16,9 C 93 % 1014,4 hPa 0,0 l/m 1,8 km/h SO 129 0 min 0,000 mm 0,0 UV-I 0 W/m 15,8 C 16,9 C 3,8 km/h 100,00 %
27.09.2021 07:27 16,9 C 93 % 1014,3 hPa 0,0 l/m 3,0 km/h SO 129 0 min 0,000 mm 0,0 UV-I 0 W/m 15,8 C 16,9 C 7,7 km/h 100,00 %
27.09.2021 07:26 16,9 C 93 % 1014,4 hPa 0,0 l/m 1,8 km/h SO 138 0 min 0,000 mm 0,0 UV-I 0 W/m 15,8 C 16,9 C 3,8 km/h 100,00 %
27.09.2021 07:25 16,9 C 93 % 1014,5 hPa 0,0 l/m 3,9 km/h SO 138 0 min 0,000 mm 0,0 UV-I 0 W/m 15,8 C 16,9 C 5,7 km/h 100,00 %
27.09.2021 07:24 16,9 C 93 % 1014,4 hPa 0,0 l/m 3,9 km/h SO 138 0 min 0,000 mm 0,0 UV-I 0 W/m 15,8 C 16,9 C 7,7 km/h 100,00 %
27.09.2021 07:23 16,9 C 93 % 1014,4 hPa 0,0 l/m 1,9 km/h SO 140 0 min 0,000 mm 0,0 UV-I 0 W/m 15,8 C 16,9 C 5,7 km/h 100,00 %
27.09.2021 07:22 16,9 C 93 % 1014,4 hPa 0,0 l/m 4,8 km/h SO 142 0 min 0,000 mm 0,0 UV-I 0 W/m 15,8 C 16,9 C 5,7 km/h 92,86 %
27.09.2021 07:21 16,9 C 93 % 1014,5 hPa 0,0 l/m 3,6 km/h O-SO 113 0 min 0,000 mm 0,0 UV-I 0 W/m 15,8 C 16,9 C 7,7 km/h 100,00 %
27.09.2021 07:20 16,9 C 93 % 1014,5 hPa 0,0 l/m 2,3 km/h SO 144 0 min 0,000 mm 0,0 UV-I 0 W/m 15,8 C 16,9 C 3,8 km/h 100,00 %
27.09.2021 07:19 16,9 C 93 % 1014,4 hPa 0,0 l/m 1,9 km/h SO 144 0 min 0,000 mm 0,0 UV-I 0 W/m 15,8 C 16,9 C 5,7 km/h 100,00 %
27.09.2021 07:18 16,9 C 93 % 1014,5 hPa 0,0 l/m 3,9 km/h SO 142 0 min 0,000 mm 0,0 UV-I 0 W/m 15,8 C 16,9 C 7,7 km/h 100,00 %
27.09.2021 07:17 16,9 C 93 % 1014,5 hPa 0,0 l/m 4,6 km/h SO 143 0 min 0,000 mm 0,0 UV-I 0 W/m 15,8 C 16,9 C 9,6 km/h 100,00 %
27.09.2021 07:16 16,9 C 93 % 1014,5 hPa 0,0 l/m 4,4 km/h S-SO 150 0 min 0,000 mm 0,0 UV-I 0 W/m 15,8 C 16,9 C 9,6 km/h 100,00 %
27.09.2021 07:15 16,9 C 93 % 1014,5 hPa 0,0 l/m 1,9 km/h O-SO 118 0 min 0,000 mm 0,0 UV-I 0 W/m 15,8 C 16,9 C 5,7 km/h 100,00 %
27.09.2021 07:14 16,9 C 93 % 1014,5 hPa 0,0 l/m 6,5 km/h O-SO 117 0 min 0,000 mm 0,0 UV-I 0 W/m 15,8 C 16,9 C 11,5 km/h 100,00 %
27.09.2021 07:13 16,9 C 93 % 1014,5 hPa 0,0 l/m 4,8 km/h O-SO 123 0 min 0,000 mm 0,0 UV-I 0 W/m 15,8 C 16,9 C 7,7 km/h 96,55 %
27.09.2021 07:12 16,9 C 93 % 1014,5 hPa 0,0 l/m 8,7 km/h SO 128 0 min 0,000 mm 0,0 UV-I 0 W/m 15,8 C 15,8 C 15,3 km/h 100,00 %
27.09.2021 07:11 16,9 C 93 % 1014,5 hPa 0,0 l/m 6,7 km/h S-SO 147 0 min 0,000 mm 0,0 UV-I 0 W/m 15,8 C 16,8 C 13,4 km/h 100,00 %
27.09.2021 07:10 16,9 C 93 % 1014,5 hPa 0,0 l/m 9,4 km/h SO 128 0 min 0,000 mm 0,0 UV-I 0 W/m 15,8 C 15,5 C 15,3 km/h 100,00 %
27.09.2021 07:09 16,9 C 93 % 1014,5 hPa 0,0 l/m 5,4 km/h O-SO 115 0 min 0,000 mm 0,0 UV-I 0 W/m 15,8 C 16,9 C 11,5 km/h 100,00 %
27.09.2021 07:08 16,9 C 93 % 1014,5 hPa 0,0 l/m 6,7 km/h O-SO 119 0 min 0,000 mm 0,0 UV-I 0 W/m 15,8 C 16,8 C 9,6 km/h 100,00 %
27.09.2021 07:07 16,9 C 93 % 1014,5 hPa 0,0 l/m 4,9 km/h SO 139 0 min 0,000 mm 0,0 UV-I 0 W/m 15,8 C 16,9 C 9,6 km/h 100,00 %
27.09.2021 07:06 16,9 C 93 % 1014,5 hPa 0,0 l/m 5,4 km/h S-SO 157 0 min 0,000 mm 0,0 UV-I 0 W/m 15,8 C 16,9 C 11,5 km/h 100,00 %
27.09.2021 07:05 16,9 C 93 % 1014,5 hPa 0,0 l/m 5,6 km/h O-SO 111 0 min 0,000 mm 0,0 UV-I 0 W/m 15,8 C 16,9 C 7,7 km/h 95,65 %
27.09.2021 07:04 16,9 C 93 % 1014,5 hPa 0,0 l/m 5,0 km/h S-SO 147 0 min 0,000 mm 0,0 UV-I 0 W/m 15,8 C 16,9 C 9,6 km/h 100,00 %
27.09.2021 07:03 16,9 C 93 % 1014,5 hPa 0,0 l/m 3,4 km/h SO 136 0 min 0,000 mm 0,0 UV-I 0 W/m 15,8 C 16,9 C 7,7 km/h 100,00 %
27.09.2021 07:02 16,9 C 93 % 1014,5 hPa 0,0 l/m 1,7 km/h SO 136 0 min 0,000 mm 0,0 UV-I 0 W/m 15,8 C 16,9 C 3,8 km/h 100,00 %
27.09.2021 07:01 16,9 C 93 % 1014,5 hPa 0,0 l/m 3,2 km/h SO 136 0 min 0,000 mm 0,0 UV-I 0 W/m 15,8 C 16,9 C 5,7 km/h 100,00 %
27.09.2021 07:00 16,9 C 93 % 1014,5 hPa 0,0 l/m 4,2 km/h SO 140 0 min 0,000 mm 0,0 UV-I 0 W/m 15,8 C 16,9 C 9,6 km/h 100,00 %
27.09.2021 06:59 16,9 C 93 % 1014,5 hPa 0,0 l/m 4,5 km/h O-SO 115 0 min 0,000 mm 0,0 UV-I 0 W/m 15,8 C 16,9 C 5,7 km/h 100,00 %
27.09.2021 06:58 16,9 C 93 % 1014,5 hPa 0,0 l/m 4,9 km/h O-SO 117 0 min 0,000 mm 0,0 UV-I 0 W/m 15,8 C 16,9 C 7,7 km/h 100,00 %
27.09.2021 06:57 16,9 C 93 % 1014,6 hPa 0,0 l/m 4,5 km/h O-SO 120 0 min 0,000 mm 0,0 UV-I 0 W/m 15,8 C 16,9 C 7,7 km/h 100,00 %
27.09.2021 06:56 16,9 C 93 % 1014,5 hPa 0,0 l/m 4,6 km/h SO 135 0 min 0,000 mm 0,0 UV-I 0 W/m 15,8 C 16,9 C 7,7 km/h 100,00 %
27.09.2021 06:55 16,9 C 93 % 1014,6 hPa 0,0 l/m 3,8 km/h SO 140 0 min 0,000 mm 0,0 UV-I 0 W/m 15,8 C 16,9 C 9,6 km/h 100,00 %
27.09.2021 06:54 16,9 C 93 % 1014,5 hPa 0,0 l/m 6,0 km/h SO 130 0 min 0,000 mm 0,0 UV-I 0 W/m 15,8 C 16,9 C 9,6 km/h 100,00 %
27.09.2021 06:53 16,9 C 93 % 1014,6 hPa 0,0 l/m 2,9 km/h SO 140 0 min 0,000 mm 0,0 UV-I 0 W/m 15,8 C 16,9 C 7,7 km/h 100,00 %
27.09.2021 06:52 16,8 C 93 % 1014,5 hPa 0,0 l/m 3,1 km/h SO 140 0 min 0,000 mm 0,0 UV-I 0 W/m 15,7 C 16,8 C 5,7 km/h 100,00 %
27.09.2021 06:51 16,8 C 93 % 1014,5 hPa 0,0 l/m 1,1 km/h SO 142 0 min 0,000 mm 0,0 UV-I 0 W/m 15,7 C 16,8 C 3,8 km/h 100,00 %
27.09.2021 06:50 16,8 C 92 % 1014,5 hPa 0,0 l/m 0,2 km/h SO 142 0 min 0,000 mm 0,0 UV-I 0 W/m 15,5 C 16,8 C 1,9 km/h 96,15 %
27.09.2021 06:49 16,8 C 92 % 1014,5 hPa 0,0 l/m 3,4 km/h SO 142 0 min 0,000 mm 0,0 UV-I 0 W/m 15,5 C 16,8 C 5,7 km/h 100,00 %
27.09.2021 06:48 16,8 C 92 % 1014,5 hPa 0,0 l/m 2,9 km/h SO 141 0 min 0,000 mm 0,0 UV-I 0 W/m 15,5 C 16,8 C 5,7 km/h 100,00 %
27.09.2021 06:47 16,8 C 92 % 1014,5 hPa 0,0 l/m 2,2 km/h SO 130 0 min 0,000 mm 0,0 UV-I 0 W/m 15,5 C 16,8 C 5,7 km/h 100,00 %
27.09.2021 06:46 16,8 C 92 % 1014,5 hPa 0,0 l/m 3,0 km/h SO 130 0 min 0,000 mm 0,0 UV-I 0 W/m 15,5 C 16,8 C 5,7 km/h 95,65 %
27.09.2021 06:45 16,8 C 92 % 1014,5 hPa 0,0 l/m 1,8 km/h SO 130 0 min 0,000 mm 0,0 UV-I 0 W/m 15,5 C 16,8 C 7,7 km/h 100,00 %
27.09.2021 06:44 16,8 C 93 % 1014,5 hPa 0,0 l/m 3,1 km/h SO 131 0 min 0,000 mm 0,0 UV-I 0 W/m 15,7 C 16,8 C 5,7 km/h 100,00 %
27.09.2021 06:43 16,8 C 93 % 1014,5 hPa 0,0 l/m 4,4 km/h SO 131 0 min 0,000 mm 0,0 UV-I 0 W/m 15,7 C 16,8 C 7,7 km/h 100,00 %
27.09.2021 06:42 16,8 C 93 % 1014,4 hPa 0,0 l/m 2,4 km/h SO 132 0 min 0,000 mm 0,0 UV-I 0 W/m 15,7 C 16,8 C 5,7 km/h 100,00 %
27.09.2021 06:41 16,8 C 93 % 1014,4 hPa 0,0 l/m 1,2 km/h SO 132 0 min 0,000 mm 0,0 UV-I 0 W/m 15,7 C 16,8 C 3,8 km/h 100,00 %
27.09.2021 06:40 16,8 C 93 % 1014,5 hPa 0,0 l/m 3,5 km/h SO 132 0 min 0,000 mm 0,0 UV-I 0 W/m 15,7 C 16,8 C 5,7 km/h 100,00 %
27.09.2021 06:39 16,8 C 93 % 1014,5 hPa 0,0 l/m 1,0 km/h SO 134 0 min 0,000 mm 0,0 UV-I 0 W/m 15,7 C 16,8 C 3,8 km/h 100,00 %
27.09.2021 06:38 16,8 C 92 % 1014,5 hPa 0,0 l/m 4,3 km/h SO 134 0 min 0,000 mm 0,0 UV-I 0 W/m 15,5 C 16,8 C 5,7 km/h 100,00 %
27.09.2021 06:37 16,8 C 92 % 1014,6 hPa 0,0 l/m 2,2 km/h S 181 0 min 0,000 mm 0,0 UV-I 0 W/m 15,5 C 16,8 C 5,7 km/h 96,15 %
27.09.2021 06:36 16,8 C 92 % 1014,6 hPa 0,0 l/m 2,8 km/h S 186 0 min 0,000 mm 0,0 UV-I 0 W/m 15,5 C 16,8 C 7,7 km/h 100,00 %
27.09.2021 06:35 16,8 C 92 % 1014,6 hPa 0,0 l/m 1,4 km/h S-SO 150 0 min 0,000 mm 0,0 UV-I 0 W/m 15,5 C 16,8 C 5,7 km/h 100,00 %
27.09.2021 06:34 16,8 C 92 % 1014,6 hPa 0,0 l/m 2,8 km/h S-SO 149 0 min 0,000 mm 0,0 UV-I 0 W/m 15,5 C 16,8 C 5,7 km/h 100,00 %
27.09.2021 06:33 16,8 C 92 % 1014,6 hPa 0,0 l/m 2,0 km/h S-SO 155 0 min 0,000 mm 0,0 UV-I 0 W/m 15,5 C 16,8 C 3,8 km/h 100,00 %
27.09.2021 06:32 16,8 C 93 % 1014,6 hPa 0,0 l/m 4,5 km/h S-SO 155 0 min 0,000 mm 0,0 UV-I 0 W/m 15,7 C 16,8 C 5,7 km/h 100,00 %
27.09.2021 06:31 16,8 C 93 % 1014,6 hPa 0,0 l/m 2,5 km/h S-SO 155 0 min 0,000 mm 0,0 UV-I 0 W/m 15,7 C 16,8 C 5,7 km/h 100,00 %
27.09.2021 06:30 16,8 C 93 % 1014,6 hPa 0,0 l/m 3,3 km/h S-SO 156 0 min 0,000 mm 0,0 UV-I 0 W/m 15,7 C 16,8 C 5,7 km/h 100,00 %
27.09.2021 06:29 16,8 C 93 % 1014,6 hPa 0,0 l/m 3,5 km/h S-SO 156 0 min 0,000 mm 0,0 UV-I 0 W/m 15,7 C 16,8 C 5,7 km/h 100,00 %
27.09.2021 06:28 16,7 C 93 % 1014,6 hPa 0,0 l/m 2,0 km/h S-SO 156 0 min 0,000 mm 0,0 UV-I 0 W/m 15,6 C 16,7 C 3,8 km/h 100,00 %
27.09.2021 06:27 16,7 C 93 % 1014,6 hPa 0,0 l/m 1,9 km/h S-SO 156 0 min 0,000 mm 0,0 UV-I 0 W/m 15,6 C 16,7 C 3,8 km/h 100,00 %
27.09.2021 06:26 16,7 C 93 % 1014,6 hPa 0,0 l/m 0,8 km/h S-SO 156 0 min 0,000 mm 0,0 UV-I 0 W/m 15,6 C 16,7 C 1,9 km/h 100,00 %
27.09.2021 06:25 16,7 C 93 % 1014,6 hPa 0,0 l/m 1,1 km/h S-SO 156 0 min 0,000 mm 0,0 UV-I 0 W/m 15,6 C 16,7 C 3,8 km/h 100,00 %
27.09.2021 06:24 16,7 C 93 % 1014,6 hPa 0,0 l/m 2,8 km/h S-SO 156 0 min 0,000 mm 0,0 UV-I 0 W/m 15,6 C 16,7 C 5,7 km/h 100,00 %
27.09.2021 06:23 16,7 C 93 % 1014,6 hPa 0,0 l/m 1,3 km/h S-SO 156 0 min 0,000 mm 0,0 UV-I 0 W/m 15,6 C 16,7 C 5,7 km/h 100,00 %
27.09.2021 06:22 16,7 C 92 % 1014,6 hPa 0,0 l/m 2,6 km/h S-SO 156 0 min 0,000 mm 0,0 UV-I 0 W/m 15,4 C 16,7 C 5,7 km/h 100,00 %
27.09.2021 06:21 16,7 C 93 % 1014,6 hPa 0,0 l/m 1,8 km/h S-SO 156 0 min 0,000 mm 0,0 UV-I 0 W/m 15,6 C 16,7 C 3,8 km/h 100,00 %
27.09.2021 06:20 16,7 C 93 % 1014,6 hPa 0,0 l/m 3,0 km/h S-SO 159 0 min 0,000 mm 0,0 UV-I 0 W/m 15,6 C 16,7 C 7,7 km/h 100,00 %
27.09.2021 06:19 16,6 C 92 % 1014,6 hPa 0,0 l/m 1,0 km/h SO 126 0 min 0,000 mm 0,0 UV-I 0 W/m 15,3 C 16,6 C 3,8 km/h 100,00 %
27.09.2021 06:18 16,7 C 92 % 1014,6 hPa 0,0 l/m 1,4 km/h SO 126 0 min 0,000 mm 0,0 UV-I 0 W/m 15,4 C 16,7 C 3,8 km/h 100,00 %
27.09.2021 06:17 16,7 C 92 % 1014,6 hPa 0,0 l/m 1,9 km/h SO 126 0 min 0,000 mm 0,0 UV-I 0 W/m 15,4 C 16,7 C 3,8 km/h 100,00 %
27.09.2021 06:16 16,6 C 92 % 1014,6 hPa 0,0 l/m 4,2 km/h SO 126 0 min 0,000 mm 0,0 UV-I 0 W/m 15,3 C 16,6 C 7,7 km/h 100,00 %
27.09.2021 06:15 16,7 C 92 % 1014,6 hPa 0,0 l/m 4,5 km/h S-SO 157 0 min 0,000 mm 0,0 UV-I 0 W/m 15,4 C 16,7 C 9,6 km/h 100,00 %
27.09.2021 06:14 16,7 C 92 % 1014,6 hPa 0,0 l/m 1,0 km/h S-SO 164 0 min 0,000 mm 0,0 UV-I 0 W/m 15,4 C 16,7 C 3,8 km/h 100,00 %
27.09.2021 06:13 16,7 C 92 % 1014,6 hPa 0,0 l/m 0,7 km/h S-SO 165 0 min 0,000 mm 0,0 UV-I 0 W/m 15,4 C 16,7 C 1,9 km/h 100,00 %
27.09.2021 06:12 16,7 C 92 % 1014,6 hPa 0,0 l/m 4,9 km/h S-SO 165 0 min 0,000 mm 0,0 UV-I 0 W/m 15,4 C 16,7 C 11,5 km/h 100,00 %
27.09.2021 06:11 16,7 C 92 % 1014,5 hPa 0,0 l/m 2,5 km/h SO 136 0 min 0,000 mm 0,0 UV-I 0 W/m 15,4 C 16,7 C 3,8 km/h 100,00 %
27.09.2021 06:10 16,7 C 92 % 1014,6 hPa 0,0 l/m 4,9 km/h SO 136 0 min 0,000 mm 0,0 UV-I 0 W/m 15,4 C 16,7 C 9,6 km/h 100,00 %
27.09.2021 06:09 16,7 C 92 % 1014,6 hPa 0,0 l/m 3,1 km/h S-SO 158 0 min 0,000 mm 0,0 UV-I 0 W/m 15,4 C 16,7 C 5,7 km/h 100,00 %
27.09.2021 06:08 16,7 C 92 % 1014,6 hPa 0,0 l/m 3,3 km/h SO 140 0 min 0,000 mm 0,0 UV-I 0 W/m 15,4 C 16,7 C 5,7 km/h 100,00 %
27.09.2021 06:07 16,7 C 92 % 1014,5 hPa 0,0 l/m 1,5 km/h SO 137 0 min 0,000 mm 0,0 UV-I 0 W/m 15,4 C 16,7 C 3,8 km/h 100,00 %
27.09.2021 06:06 16,7 C 92 % 1014,5 hPa 0,0 l/m 3,7 km/h SO 137 0 min 0,000 mm 0,0 UV-I 0 W/m 15,4 C 16,7 C 11,5 km/h 100,00 %
27.09.2021 06:05 16,7 C 92 % 1014,5 hPa 0,0 l/m 4,3 km/h S-SO 165 0 min 0,000 mm 0,0 UV-I 0 W/m 15,4 C 16,7 C 9,6 km/h 100,00 %
27.09.2021 06:04 16,7 C 92 % 1014,5 hPa 0,0 l/m 3,6 km/h S 171 0 min 0,000 mm 0,0 UV-I 0 W/m 15,4 C 16,7 C 7,7 km/h 96,15 %
27.09.2021 06:03 16,7 C 93 % 1014,4 hPa 0,0 l/m 3,3 km/h S 171 0 min 0,000 mm 0,0 UV-I 0 W/m 15,6 C 16,7 C 7,7 km/h 96,30 %
27.09.2021 06:02 16,7 C 93 % 1014,5 hPa 0,0 l/m 6,7 km/h S 171 0 min 0,000 mm 0,0 UV-I 0 W/m 15,6 C 16,6 C 11,5 km/h 100,00 %
27.09.2021 06:01 16,7 C 93 % 1014,4 hPa 0,0 l/m 6,0 km/h S-SO 153 0 min 0,000 mm 0,0 UV-I 0 W/m 15,6 C 16,7 C 11,5 km/h 100,00 %
27.09.2021 06:00 16,7 C 93 % 1014,5 hPa 0,0 l/m 3,0 km/h SO 136 0 min 0,000 mm 0,0 UV-I 0 W/m 15,6 C 16,7 C 5,7 km/h 95,65 %
_ Min-Zeit 05:05 15:15 14:59 - 08:00 - - - - - - 05:05 05:05 08:00 16:23
Minimum _ 11,6 C 70 % 1012,5 hPa - 0,0 km/h - - - - - - 11,0 C 11,6 C 0,0 km/h 83,33 %
_ Max-Zeit 13:47 22:56 05:35 18:11 16:55 - - 09:51 14:01 13:45 13:46 13:46 15:32 16:53 06:01
Maximum _ 21,8 C 96 % 1022,3 hPa 0,6 l/m 20,6 km/h
S-SO
- - 1 min 0,229 mm 2,6 UV-I 652 W/m 17,3 C 21,7 C 42,1 km/h
S-SO
100,00 %
Durchschnitt _ 16,5 C 89 % 1016,4 hPa #6,8 l/m 5,0 km/h S - #0 min. #0,000 mm 0,0 UV-I 0 W/m 14,6 C 16,1 C 9,2 km/h 98,84 %